Wetterdaten: Dienstag, 22.08.2023
Datum Zeit Temp. I. Temp. A. Feuchte I. Feuchte A. Luftdruck Regen Wind Richtung Richtung Sonnenschein Solar Taupunkt Windchill Windböen
22.08.2023 00:00 25,1 °C 19,9 °C 66 % 86 % 1021,3 hPa 0,0 l/m² 0,0 km/h (0 Bft) W-NW 295 ° 0 min 0 W/m² 17,5 °C 19,9 °C 0,0 km/h (0 Bft)
22.08.2023 00:01 25,1 °C 19,9 °C 66 % 86 % 1021,2 hPa 0,0 l/m² 0,0 km/h (0 Bft) W-NW 295 ° 0 min 0 W/m² 17,5 °C 19,9 °C 0,0 km/h (0 Bft)
22.08.2023 00:02 25,1 °C 19,9 °C 66 % 86 % 1021,2 hPa 0,0 l/m² 0,0 km/h (0 Bft) W-NW 295 ° 0 min 0 W/m² 17,5 °C 19,9 °C 0,0 km/h (0 Bft)
22.08.2023 00:04 25,1 °C 19,9 °C 66 % 86 % 1021,1 hPa 0,0 l/m² 0,0 km/h (0 Bft) W-NW 295 ° 0 min 0 W/m² 17,5 °C 19,9 °C 0,0 km/h (0 Bft)
22.08.2023 00:06 25,1 °C 19,9 °C 66 % 86 % 1021,1 hPa 0,0 l/m² 0,0 km/h (0 Bft) W-NW 295 ° 0 min 0 W/m² 17,5 °C 19,9 °C 0,0 km/h (0 Bft)
22.08.2023 00:08 25,1 °C 19,9 °C 66 % 86 % 1021,1 hPa 0,0 l/m² 0,0 km/h (0 Bft) W-NW 295 ° 0 min 0 W/m² 17,5 °C 19,9 °C 0,0 km/h (0 Bft)
22.08.2023 00:10 25,1 °C 19,9 °C 66 % 86 % 1021,1 hPa 0,0 l/m² 0,0 km/h (0 Bft) W-NW 295 ° 0 min 0 W/m² 17,5 °C 19,9 °C 0,0 km/h (0 Bft)
22.08.2023 00:11 25,1 °C 19,9 °C 66 % 86 % 1021,1 hPa 0,0 l/m² 0,0 km/h (0 Bft) W-NW 295 ° 0 min 0 W/m² 17,5 °C 19,9 °C 0,0 km/h (0 Bft)
22.08.2023 00:13 25,1 °C 19,9 °C 66 % 86 % 1021,1 hPa 0,0 l/m² 0,1 km/h (0 Bft) W-NW 295 ° 0 min 0 W/m² 17,5 °C 19,9 °C 1,6 km/h (1 Bft)
22.08.2023 00:15 25,1 °C 19,9 °C 66 % 87 % 1021,2 hPa 0,0 l/m² 0,0 km/h (0 Bft) W-NW 295 ° 0 min 0 W/m² 17,7 °C 19,9 °C 0,0 km/h (0 Bft)
22.08.2023 00:17 25,1 °C 19,9 °C 66 % 87 % 1021,1 hPa 0,0 l/m² 0,0 km/h (0 Bft) W-NW 295 ° 0 min 0 W/m² 17,7 °C 19,9 °C 0,0 km/h (0 Bft)
22.08.2023 00:19 25,1 °C 19,9 °C 66 % 87 % 1021,1 hPa 0,0 l/m² 0,0 km/h (0 Bft) W-NW 295 ° 0 min 0 W/m² 17,7 °C 19,9 °C 0,0 km/h (0 Bft)
22.08.2023 00:21 25,1 °C 20,0 °C 66 % 86 % 1021,1 hPa 0,0 l/m² 0,0 km/h (0 Bft) W-NW 295 ° 0 min 0 W/m² 17,6 °C 20,0 °C 0,0 km/h (0 Bft)
22.08.2023 00:22 25,1 °C 20,1 °C 66 % 86 % 1021,1 hPa 0,0 l/m² 0,0 km/h (0 Bft) W-NW 295 ° 0 min 0 W/m² 17,7 °C 20,1 °C 0,0 km/h (0 Bft)
22.08.2023 00:24 25,1 °C 20,1 °C 66 % 87 % 1021,2 hPa 0,0 l/m² 0,0 km/h (0 Bft) W-NW 295 ° 0 min 0 W/m² 17,9 °C 20,1 °C 0,0 km/h (0 Bft)
22.08.2023 00:25 25,1 °C 20,1 °C 66 % 87 % 1021,2 hPa 0,0 l/m² 0,0 km/h (0 Bft) W-NW 295 ° 0 min 0 W/m² 17,9 °C 20,1 °C 0,0 km/h (0 Bft)
22.08.2023 00:26 25,1 °C 20,1 °C 66 % 87 % 1021,2 hPa 0,0 l/m² 0,0 km/h (0 Bft) W-NW 295 ° 0 min 0 W/m² 17,9 °C 20,1 °C 0,0 km/h (0 Bft)
22.08.2023 00:27 25,0 °C 20,1 °C 66 % 87 % 1021,2 hPa 0,0 l/m² 0,0 km/h (0 Bft) W-NW 295 ° 0 min 0 W/m² 17,9 °C 20,1 °C 0,0 km/h (0 Bft)
22.08.2023 00:28 25,1 °C 20,1 °C 66 % 88 % 1021,1 hPa 0,0 l/m² 0,0 km/h (0 Bft) W-NW 295 ° 0 min 0 W/m² 18,0 °C 20,1 °C 0,0 km/h (0 Bft)
22.08.2023 00:29 25,1 °C 20,1 °C 66 % 88 % 1021,1 hPa 0,0 l/m² 0,0 km/h (0 Bft) W-NW 295 ° 0 min 0 W/m² 18,0 °C 20,1 °C 0,0 km/h (0 Bft)
22.08.2023 00:30 25,1 °C 20,1 °C 66 % 88 % 1021,0 hPa 0,0 l/m² 0,0 km/h (0 Bft) W-NW 295 ° 0 min 0 W/m² 18,0 °C 20,1 °C 0,0 km/h (0 Bft)
22.08.2023 00:33 25,0 °C 19,9 °C 66 % 88 % 1021,0 hPa 0,0 l/m² 0,0 km/h (0 Bft) W-NW 295 ° 0 min 0 W/m² 17,8 °C 19,9 °C 0,0 km/h (0 Bft)
22.08.2023 00:34 25,0 °C 19,9 °C 66 % 88 % 1021,1 hPa 0,0 l/m² 0,0 km/h (0 Bft) W-NW 295 ° 0 min 0 W/m² 17,8 °C 19,9 °C 0,0 km/h (0 Bft)
22.08.2023 00:35 25,0 °C 19,8 °C 66 % 88 % 1021,0 hPa 0,0 l/m² 0,0 km/h (0 Bft) W-NW 295 ° 0 min 0 W/m² 17,8 °C 19,8 °C 0,0 km/h (0 Bft)
22.08.2023 00:36 25,0 °C 19,8 °C 66 % 88 % 1021,0 hPa 0,0 l/m² 0,0 km/h (0 Bft) W-NW 295 ° 0 min 0 W/m² 17,8 °C 19,8 °C 0,0 km/h (0 Bft)
22.08.2023 00:38 25,0 °C 19,8 °C 66 % 88 % 1021,0 hPa 0,0 l/m² 0,0 km/h (0 Bft) W-NW 295 ° 0 min 0 W/m² 17,8 °C 19,8 °C 0,0 km/h (0 Bft)
22.08.2023 00:39 25,1 °C 19,7 °C 66 % 88 % 1020,9 hPa 0,0 l/m² 0,0 km/h (0 Bft) W-NW 295 ° 0 min 0 W/m² 17,7 °C 19,7 °C 0,0 km/h (0 Bft)
22.08.2023 00:41 25,1 °C 19,7 °C 66 % 88 % 1021,0 hPa 0,0 l/m² 0,0 km/h (0 Bft) W-NW 295 ° 0 min 0 W/m² 17,7 °C 19,7 °C 0,0 km/h (0 Bft)
22.08.2023 00:42 25,0 °C 19,7 °C 66 % 88 % 1021,0 hPa 0,0 l/m² 0,0 km/h (0 Bft) W-NW 295 ° 0 min 0 W/m² 17,7 °C 19,7 °C 0,0 km/h (0 Bft)
22.08.2023 00:43 25,0 °C 19,7 °C 66 % 88 % 1020,9 hPa 0,0 l/m² 0,0 km/h (0 Bft) W-NW 295 ° 0 min 0 W/m² 17,7 °C 19,7 °C 0,0 km/h (0 Bft)
22.08.2023 00:44 25,0 °C 19,7 °C 66 % 88 % 1020,9 hPa 0,0 l/m² 0,0 km/h (0 Bft) W-NW 295 ° 0 min 0 W/m² 17,7 °C 19,7 °C 0,0 km/h (0 Bft)
22.08.2023 00:45 25,0 °C 19,7 °C 66 % 88 % 1020,9 hPa 0,0 l/m² 0,0 km/h (0 Bft) W-NW 295 ° 0 min 0 W/m² 17,7 °C 19,7 °C 0,0 km/h (0 Bft)
22.08.2023 00:46 25,0 °C 19,7 °C 66 % 88 % 1020,9 hPa 0,0 l/m² 0,0 km/h (0 Bft) W-NW 295 ° 0 min 0 W/m² 17,7 °C 19,7 °C 0,0 km/h (0 Bft)
22.08.2023 00:47 25,0 °C 19,7 °C 66 % 88 % 1021,0 hPa 0,0 l/m² 0,0 km/h (0 Bft) W-NW 295 ° 0 min 0 W/m² 17,7 °C 19,7 °C 0,0 km/h (0 Bft)
22.08.2023 00:48 25,0 °C 19,7 °C 66 % 88 % 1021,0 hPa 0,0 l/m² 0,0 km/h (0 Bft) W-NW 295 ° 0 min 0 W/m² 17,7 °C 19,7 °C 0,0 km/h (0 Bft)
22.08.2023 00:49 25,0 °C 19,7 °C 66 % 88 % 1021,0 hPa 0,0 l/m² 0,0 km/h (0 Bft) W-NW 295 ° 0 min 0 W/m² 17,7 °C 19,7 °C 0,0 km/h (0 Bft)
22.08.2023 00:51 25,0 °C 19,7 °C 66 % 88 % 1021,0 hPa 0,0 l/m² 0,0 km/h (0 Bft) W-NW 295 ° 0 min 0 W/m² 17,7 °C 19,7 °C 0,0 km/h (0 Bft)
22.08.2023 00:53 25,0 °C 19,8 °C 66 % 88 % 1021,0 hPa 0,0 l/m² 0,0 km/h (0 Bft) W-NW 295 ° 0 min 0 W/m² 17,8 °C 19,8 °C 0,0 km/h (0 Bft)
22.08.2023 00:56 25,0 °C 19,9 °C 66 % 87 % 1021,1 hPa 0,0 l/m² 0,9 km/h (0 Bft) W 275 ° 0 min 0 W/m² 17,7 °C 19,9 °C 3,2 km/h (1 Bft)
22.08.2023 00:57 25,0 °C 20,0 °C 66 % 86 % 1021,2 hPa 0,0 l/m² 2,2 km/h (1 Bft) W-NW 286 ° 0 min 0 W/m² 17,6 °C 20,0 °C 3,2 km/h (1 Bft)
22.08.2023 00:58 25,0 °C 20,1 °C 66 % 86 % 1021,1 hPa 0,0 l/m² 3,1 km/h (1 Bft) W-NW 300 ° 0 min 0 W/m² 17,7 °C 20,1 °C 4,8 km/h (1 Bft)
22.08.2023 00:59 25,0 °C 20,2 °C 66 % 85 % 1021,1 hPa 0,0 l/m² 6,8 km/h (2 Bft) NW 314 ° 0 min 0 W/m² 17,6 °C 20,0 °C 11,3 km/h (2 Bft)
22.08.2023 01:01 25,0 °C 20,3 °C 66 % 83 % 1021,1 hPa 0,0 l/m² 7,9 km/h (2 Bft) N-NW 327 ° 0 min 0 W/m² 17,3 °C 19,7 °C 14,5 km/h (3 Bft)
22.08.2023 01:03 25,0 °C 20,4 °C 66 % 81 % 1021,1 hPa 0,0 l/m² 6,9 km/h (2 Bft) NW 319 ° 0 min 0 W/m² 17,0 °C 20,2 °C 9,7 km/h (2 Bft)
22.08.2023 01:04 25,0 °C 20,5 °C 66 % 81 % 1021,1 hPa 0,0 l/m² 5,1 km/h (1 Bft) N-NW 338 ° 0 min 0 W/m² 17,1 °C 20,5 °C 9,7 km/h (2 Bft)
22.08.2023 01:05 25,0 °C 20,5 °C 66 % 81 % 1021,0 hPa 0,0 l/m² 4,2 km/h (1 Bft) N 349 ° 0 min 0 W/m² 17,1 °C 20,5 °C 4,8 km/h (1 Bft)
22.08.2023 01:06 25,0 °C 20,6 °C 66 % 80 % 1020,9 hPa 0,0 l/m² 1,6 km/h (1 Bft) N 355 ° 0 min 0 W/m² 17,0 °C 20,6 °C 4,8 km/h (1 Bft)
22.08.2023 01:07 25,0 °C 20,6 °C 66 % 80 % 1021,0 hPa 0,0 l/m² 0,1 km/h (0 Bft) N 360 ° 0 min 0 W/m² 17,0 °C 20,6 °C 1,6 km/h (1 Bft)
22.08.2023 01:08 25,0 °C 20,6 °C 66 % 80 % 1021,0 hPa 0,0 l/m² 2,6 km/h (1 Bft) NO 39 ° 0 min 0 W/m² 17,0 °C 20,6 °C 6,4 km/h (2 Bft)
22.08.2023 01:09 25,0 °C 20,7 °C 66 % 80 % 1020,9 hPa 0,0 l/m² 4,1 km/h (1 Bft) NO 54 ° 0 min 0 W/m² 17,1 °C 20,7 °C 8,0 km/h (2 Bft)
22.08.2023 01:11 25,0 °C 20,7 °C 66 % 80 % 1020,9 hPa 0,0 l/m² 1,2 km/h (1 Bft) NO 54 ° 0 min 0 W/m² 17,1 °C 20,7 °C 3,2 km/h (1 Bft)
22.08.2023 01:13 25,0 °C 20,7 °C 66 % 80 % 1020,9 hPa 0,0 l/m² 0,4 km/h (0 Bft) NO 54 ° 0 min 0 W/m² 17,1 °C 20,7 °C 3,2 km/h (1 Bft)
22.08.2023 01:14 25,0 °C 20,7 °C 66 % 79 % 1021,0 hPa 0,0 l/m² 0,0 km/h (0 Bft) NO 54 ° 0 min 0 W/m² 16,9 °C 20,7 °C 0,0 km/h (0 Bft)
22.08.2023 01:15 25,0 °C 20,8 °C 66 % 79 % 1021,0 hPa 0,0 l/m² 0,0 km/h (0 Bft) NO 54 ° 0 min 0 W/m² 17,0 °C 20,8 °C 0,0 km/h (0 Bft)
22.08.2023 01:16 25,0 °C 20,8 °C 66 % 79 % 1021,0 hPa 0,0 l/m² 0,0 km/h (0 Bft) NO 54 ° 0 min 0 W/m² 17,0 °C 20,8 °C 0,0 km/h (0 Bft)
22.08.2023 01:17 25,0 °C 20,8 °C 66 % 79 % 1021,1 hPa 0,0 l/m² 0,0 km/h (0 Bft) NO 54 ° 0 min 0 W/m² 17,0 °C 20,8 °C 0,0 km/h (0 Bft)
22.08.2023 01:18 25,0 °C 20,8 °C 66 % 79 % 1021,0 hPa 0,0 l/m² 0,1 km/h (0 Bft) NO 54 ° 0 min 0 W/m² 17,0 °C 20,8 °C 1,6 km/h (1 Bft)
22.08.2023 01:19 25,0 °C 20,8 °C 66 % 79 % 1021,0 hPa 0,0 l/m² 0,0 km/h (0 Bft) NO 54 ° 0 min 0 W/m² 17,0 °C 20,8 °C 0,0 km/h (0 Bft)
22.08.2023 01:21 25,0 °C 20,8 °C 66 % 79 % 1020,9 hPa 0,0 l/m² 0,0 km/h (0 Bft) NO 54 ° 0 min 0 W/m² 17,0 °C 20,8 °C 0,0 km/h (0 Bft)
22.08.2023 01:23 25,0 °C 20,8 °C 66 % 79 % 1020,9 hPa 0,0 l/m² 0,0 km/h (0 Bft) NO 54 ° 0 min 0 W/m² 17,0 °C 20,8 °C 0,0 km/h (0 Bft)
22.08.2023 01:24 25,0 °C 20,8 °C 66 % 79 % 1020,9 hPa 0,0 l/m² 0,0 km/h (0 Bft) NO 54 ° 0 min 0 W/m² 17,0 °C 20,8 °C 0,0 km/h (0 Bft)
22.08.2023 01:25 25,0 °C 20,8 °C 66 % 79 % 1020,9 hPa 0,0 l/m² 0,0 km/h (0 Bft) NO 54 ° 0 min 0 W/m² 17,0 °C 20,8 °C 0,0 km/h (0 Bft)
22.08.2023 01:26 25,0 °C 20,8 °C 66 % 79 % 1020,8 hPa 0,0 l/m² 0,0 km/h (0 Bft) NO 54 ° 0 min 0 W/m² 17,0 °C 20,8 °C 0,0 km/h (0 Bft)
22.08.2023 01:27 25,0 °C 20,7 °C 66 % 79 % 1020,8 hPa 0,0 l/m² 0,0 km/h (0 Bft) NO 54 ° 0 min 0 W/m² 16,9 °C 20,7 °C 0,0 km/h (0 Bft)
22.08.2023 01:28 25,0 °C 20,7 °C 66 % 80 % 1020,7 hPa 0,0 l/m² 0,7 km/h (0 Bft) NO 54 ° 0 min 0 W/m² 17,1 °C 20,7 °C 3,2 km/h (1 Bft)
22.08.2023 01:29 25,0 °C 20,7 °C 66 % 80 % 1020,7 hPa 0,0 l/m² 0,6 km/h (0 Bft) NO 54 ° 0 min 0 W/m² 17,1 °C 20,7 °C 1,6 km/h (1 Bft)
22.08.2023 01:31 25,0 °C 20,6 °C 66 % 81 % 1020,6 hPa 0,0 l/m² 0,2 km/h (0 Bft) NO 54 ° 0 min 0 W/m² 17,2 °C 20,6 °C 3,2 km/h (1 Bft)
22.08.2023 01:32 25,0 °C 20,5 °C 66 % 81 % 1020,6 hPa 0,0 l/m² 0,0 km/h (0 Bft) NO 54 ° 0 min 0 W/m² 17,1 °C 20,5 °C 0,0 km/h (0 Bft)
22.08.2023 01:33 25,0 °C 20,5 °C 66 % 81 % 1020,6 hPa 0,0 l/m² 0,0 km/h (0 Bft) NO 54 ° 0 min 0 W/m² 17,1 °C 20,5 °C 0,0 km/h (0 Bft)
22.08.2023 01:34 25,0 °C 20,4 °C 66 % 82 % 1020,6 hPa 0,0 l/m² 0,0 km/h (0 Bft) NO 54 ° 0 min 0 W/m² 17,2 °C 20,4 °C 0,0 km/h (0 Bft)
22.08.2023 01:35 25,0 °C 20,3 °C 66 % 82 % 1020,6 hPa 0,0 l/m² 0,0 km/h (0 Bft) NO 54 ° 0 min 0 W/m² 17,1 °C 20,3 °C 0,0 km/h (0 Bft)
22.08.2023 01:36 24,9 °C 20,3 °C 66 % 82 % 1020,6 hPa 0,0 l/m² 0,0 km/h (0 Bft) NO 54 ° 0 min 0 W/m² 17,1 °C 20,3 °C 0,0 km/h (0 Bft)
22.08.2023 01:37 25,0 °C 20,2 °C 66 % 82 % 1020,7 hPa 0,0 l/m² 0,0 km/h (0 Bft) NO 54 ° 0 min 0 W/m² 17,0 °C 20,2 °C 0,0 km/h (0 Bft)
22.08.2023 01:38 25,0 °C 20,2 °C 66 % 82 % 1020,6 hPa 0,0 l/m² 0,0 km/h (0 Bft) NO 54 ° 0 min 0 W/m² 17,0 °C 20,2 °C 0,0 km/h (0 Bft)
22.08.2023 01:39 25,0 °C 20,2 °C 66 % 82 % 1020,6 hPa 0,0 l/m² 0,0 km/h (0 Bft) NO 54 ° 0 min 0 W/m² 17,0 °C 20,2 °C 0,0 km/h (0 Bft)
22.08.2023 01:40 25,0 °C 20,2 °C 66 % 82 % 1020,7 hPa 0,0 l/m² 0,0 km/h (0 Bft) NO 54 ° 0 min 0 W/m² 17,0 °C 20,2 °C 0,0 km/h (0 Bft)
22.08.2023 01:41 25,0 °C 20,1 °C 66 % 83 % 1020,7 hPa 0,0 l/m² 0,0 km/h (0 Bft) NO 54 ° 0 min 0 W/m² 17,1 °C 20,1 °C 0,0 km/h (0 Bft)
22.08.2023 01:42 25,0 °C 20,1 °C 66 % 83 % 1020,6 hPa 0,0 l/m² 0,0 km/h (0 Bft) NO 54 ° 0 min 0 W/m² 17,1 °C 20,1 °C 0,0 km/h (0 Bft)
22.08.2023 01:43 25,0 °C 20,1 °C 66 % 83 % 1020,7 hPa 0,0 l/m² 0,0 km/h (0 Bft) NO 54 ° 0 min 0 W/m² 17,1 °C 20,1 °C 0,0 km/h (0 Bft)
22.08.2023 01:44 25,0 °C 20,1 °C 66 % 83 % 1020,7 hPa 0,0 l/m² 0,2 km/h (0 Bft) NO 54 ° 0 min 0 W/m² 17,1 °C 20,1 °C 1,6 km/h (1 Bft)
22.08.2023 01:45 25,0 °C 20,1 °C 66 % 83 % 1020,7 hPa 0,0 l/m² 2,3 km/h (1 Bft) NO 54 ° 0 min 0 W/m² 17,1 °C 20,1 °C 3,2 km/h (1 Bft)
22.08.2023 01:46 25,0 °C 20,0 °C 66 % 83 % 1020,7 hPa 0,0 l/m² 2,1 km/h (1 Bft) N-NO 21 ° 0 min 0 W/m² 17,0 °C 20,0 °C 3,2 km/h (1 Bft)
22.08.2023 01:47 24,9 °C 19,9 °C 66 % 83 % 1020,7 hPa 0,0 l/m² 1,9 km/h (1 Bft) N-NO 15 ° 0 min 0 W/m² 16,9 °C 19,9 °C 3,2 km/h (1 Bft)
22.08.2023 01:48 25,0 °C 20,0 °C 66 % 83 % 1020,6 hPa 0,0 l/m² 1,4 km/h (1 Bft) N-NO 15 ° 0 min 0 W/m² 17,0 °C 20,0 °C 3,2 km/h (1 Bft)
22.08.2023 01:49 25,0 °C 19,9 °C 66 % 83 % 1020,6 hPa 0,0 l/m² 0,2 km/h (0 Bft) N-NO 15 ° 0 min 0 W/m² 16,9 °C 19,9 °C 1,6 km/h (1 Bft)
22.08.2023 01:50 24,9 °C 19,9 °C 66 % 83 % 1020,6 hPa 0,0 l/m² 0,0 km/h (0 Bft) N-NO 15 ° 0 min 0 W/m² 16,9 °C 19,9 °C 0,0 km/h (0 Bft)
22.08.2023 01:51 25,0 °C 19,9 °C 66 % 83 % 1020,6 hPa 0,0 l/m² 0,0 km/h (0 Bft) N-NO 15 ° 0 min 0 W/m² 16,9 °C 19,9 °C 0,0 km/h (0 Bft)
22.08.2023 01:52 25,0 °C 19,8 °C 66 % 84 % 1020,6 hPa 0,0 l/m² 0,0 km/h (0 Bft) N-NO 15 ° 0 min 0 W/m² 17,0 °C 19,8 °C 0,0 km/h (0 Bft)
22.08.2023 01:53 25,0 °C 19,7 °C 66 % 84 % 1020,5 hPa 0,0 l/m² 0,0 km/h (0 Bft) N-NO 15 ° 0 min 0 W/m² 16,9 °C 19,7 °C 0,0 km/h (0 Bft)
22.08.2023 01:54 25,0 °C 19,7 °C 66 % 84 % 1020,5 hPa 0,0 l/m² 0,0 km/h (0 Bft) N-NO 15 ° 0 min 0 W/m² 16,9 °C 19,7 °C 0,0 km/h (0 Bft)
22.08.2023 01:55 25,0 °C 19,6 °C 66 % 85 % 1020,5 hPa 0,0 l/m² 0,0 km/h (0 Bft) N-NO 15 ° 0 min 0 W/m² 17,0 °C 19,6 °C 0,0 km/h (0 Bft)
22.08.2023 01:56 25,0 °C 19,5 °C 66 % 85 % 1020,6 hPa 0,0 l/m² 0,0 km/h (0 Bft) N-NO 15 ° 0 min 0 W/m² 16,9 °C 19,5 °C 0,0 km/h (0 Bft)
22.08.2023 01:57 25,0 °C 19,4 °C 66 % 86 % 1020,5 hPa 0,0 l/m² 0,0 km/h (0 Bft) N-NO 15 ° 0 min 0 W/m² 17,0 °C 19,4 °C 0,0 km/h (0 Bft)
22.08.2023 01:58 25,0 °C 19,4 °C 66 % 86 % 1020,6 hPa 0,0 l/m² 0,0 km/h (0 Bft) N-NO 15 ° 0 min 0 W/m² 17,0 °C 19,4 °C 0,0 km/h (0 Bft)
22.08.2023 01:59 24,9 °C 19,3 °C 66 % 86 % 1020,5 hPa 0,0 l/m² 0,0 km/h (0 Bft) N-NO 15 ° 0 min 0 W/m² 16,9 °C 19,3 °C 0,0 km/h (0 Bft)
22.08.2023 02:00 25,0 °C 19,3 °C 66 % 86 % 1020,5 hPa 0,0 l/m² 0,0 km/h (0 Bft) N-NO 15 ° 0 min 0 W/m² 16,9 °C 19,3 °C 0,0 km/h (0 Bft)
22.08.2023 02:01 24,9 °C 19,3 °C 66 % 87 % 1020,6 hPa 0,0 l/m² 0,0 km/h (0 Bft) N-NO 15 ° 0 min 0 W/m² 17,1 °C 19,3 °C 0,0 km/h (0 Bft)
22.08.2023 02:02 25,0 °C 19,3 °C 66 % 87 % 1020,5 hPa 0,0 l/m² 0,0 km/h (0 Bft) N-NO 15 ° 0 min 0 W/m² 17,1 °C 19,3 °C 0,0 km/h (0 Bft)
22.08.2023 02:03 25,0 °C 19,3 °C 66 % 87 % 1020,5 hPa 0,0 l/m² 0,0 km/h (0 Bft) N-NO 15 ° 0 min 0 W/m² 17,1 °C 19,3 °C 0,0 km/h (0 Bft)
22.08.2023 02:04 25,0 °C 19,3 °C 66 % 87 % 1020,5 hPa 0,0 l/m² 0,0 km/h (0 Bft) N-NO 15 ° 0 min 0 W/m² 17,1 °C 19,3 °C 0,0 km/h (0 Bft)
22.08.2023 02:06 25,0 °C 19,2 °C 66 % 87 % 1020,4 hPa 0,0 l/m² 0,0 km/h (0 Bft) N-NO 15 ° 0 min 0 W/m² 17,0 °C 19,2 °C 0,0 km/h (0 Bft)
22.08.2023 02:07 24,9 °C 19,2 °C 66 % 87 % 1020,4 hPa 0,0 l/m² 0,0 km/h (0 Bft) N-NO 15 ° 0 min 0 W/m² 17,0 °C 19,2 °C 0,0 km/h (0 Bft)
22.08.2023 02:08 25,0 °C 19,2 °C 66 % 87 % 1020,4 hPa 0,0 l/m² 0,0 km/h (0 Bft) N-NO 15 ° 0 min 0 W/m² 17,0 °C 19,2 °C 0,0 km/h (0 Bft)
22.08.2023 02:09 25,0 °C 19,1 °C 66 % 87 % 1020,4 hPa 0,0 l/m² 0,0 km/h (0 Bft) N 0 ° 0 min 0 W/m² 16,9 °C 19,1 °C 0,0 km/h (0 Bft)
22.08.2023 02:10 25,0 °C 19,1 °C 66 % 88 % 1020,3 hPa 0,0 l/m² 0,0 km/h (0 Bft) N 0 ° 0 min 0 W/m² 17,1 °C 19,1 °C 0,0 km/h (0 Bft)
22.08.2023 02:11 25,0 °C 19,1 °C 66 % 88 % 1020,4 hPa 0,0 l/m² 0,0 km/h (0 Bft) N 0 ° 0 min 0 W/m² 17,1 °C 19,1 °C 0,0 km/h (0 Bft)
22.08.2023 02:12 25,0 °C 19,1 °C 66 % 88 % 1020,3 hPa 0,0 l/m² 0,0 km/h (0 Bft) N 0 ° 0 min 0 W/m² 17,1 °C 19,1 °C 0,0 km/h (0 Bft)
22.08.2023 02:13 24,9 °C 19,1 °C 66 % 88 % 1020,3 hPa 0,0 l/m² 0,0 km/h (0 Bft) N 0 ° 0 min 0 W/m² 17,1 °C 19,1 °C 0,0 km/h (0 Bft)
22.08.2023 02:14 24,9 °C 19,1 °C 66 % 88 % 1020,3 hPa 0,0 l/m² 0,0 km/h (0 Bft) N 0 ° 0 min 0 W/m² 17,1 °C 19,1 °C 0,0 km/h (0 Bft)
22.08.2023 02:15 25,0 °C 19,0 °C 66 % 88 % 1020,2 hPa 0,0 l/m² 0,0 km/h (0 Bft) N 0 ° 0 min 0 W/m² 17,0 °C 19,0 °C 0,0 km/h (0 Bft)
22.08.2023 02:16 24,9 °C 19,0 °C 66 % 88 % 1020,1 hPa 0,0 l/m² 0,0 km/h (0 Bft) N 0 ° 0 min 0 W/m² 17,0 °C 19,0 °C 0,0 km/h (0 Bft)
22.08.2023 02:17 25,0 °C 18,9 °C 66 % 88 % 1020,2 hPa 0,0 l/m² 0,0 km/h (0 Bft) N 0 ° 0 min 0 W/m² 16,9 °C 18,9 °C 0,0 km/h (0 Bft)
22.08.2023 02:18 24,9 °C 18,9 °C 66 % 88 % 1020,2 hPa 0,0 l/m² 0,0 km/h (0 Bft) N 0 ° 0 min 0 W/m² 16,9 °C 18,9 °C 0,0 km/h (0 Bft)
22.08.2023 02:19 24,9 °C 18,9 °C 66 % 88 % 1020,2 hPa 0,0 l/m² 0,0 km/h (0 Bft) N 0 ° 0 min 0 W/m² 16,9 °C 18,9 °C 0,0 km/h (0 Bft)
22.08.2023 02:20 24,9 °C 18,9 °C 66 % 88 % 1020,2 hPa 0,0 l/m² 0,0 km/h (0 Bft) N 0 ° 0 min 0 W/m² 16,9 °C 18,9 °C 0,0 km/h (0 Bft)
22.08.2023 02:21 24,9 °C 18,9 °C 66 % 88 % 1020,2 hPa 0,0 l/m² 0,0 km/h (0 Bft) N 0 ° 0 min 0 W/m² 16,9 °C 18,9 °C 0,0 km/h (0 Bft)
22.08.2023 02:22 25,0 °C 18,9 °C 66 % 88 % 1020,2 hPa 0,0 l/m² 0,0 km/h (0 Bft) N 0 ° 0 min 0 W/m² 16,9 °C 18,9 °C 0,0 km/h (0 Bft)
22.08.2023 02:23 24,9 °C 18,8 °C 66 % 88 % 1020,2 hPa 0,0 l/m² 0,0 km/h (0 Bft) N 0 ° 0 min 0 W/m² 16,8 °C 18,8 °C 0,0 km/h (0 Bft)
22.08.2023 02:24 24,9 °C 18,8 °C 66 % 88 % 1020,2 hPa 0,0 l/m² 0,0 km/h (0 Bft) N 0 ° 0 min 0 W/m² 16,8 °C 18,8 °C 0,0 km/h (0 Bft)
22.08.2023 02:25 24,9 °C 18,8 °C 66 % 88 % 1020,2 hPa 0,0 l/m² 0,0 km/h (0 Bft) N 0 ° 0 min 0 W/m² 16,8 °C 18,8 °C 0,0 km/h (0 Bft)
22.08.2023 02:26 24,9 °C 18,8 °C 66 % 88 % 1020,1 hPa 0,0 l/m² 0,0 km/h (0 Bft) N 0 ° 0 min 0 W/m² 16,8 °C 18,8 °C 0,0 km/h (0 Bft)
22.08.2023 02:27 24,9 °C 18,7 °C 66 % 88 % 1020,1 hPa 0,0 l/m² 0,0 km/h (0 Bft) N 0 ° 0 min 0 W/m² 16,7 °C 18,7 °C 0,0 km/h (0 Bft)
22.08.2023 02:28 25,0 °C 18,7 °C 66 % 88 % 1020,1 hPa 0,0 l/m² 0,0 km/h (0 Bft) N-NO 22 ° 0 min 0 W/m² 16,7 °C 18,7 °C 1,6 km/h (1 Bft)
22.08.2023 02:29 24,9 °C 18,6 °C 66 % 88 % 1020,2 hPa 0,0 l/m² 1,6 km/h (1 Bft) N-NO 22 ° 0 min 0 W/m² 16,6 °C 18,6 °C 1,6 km/h (1 Bft)
22.08.2023 02:30 24,9 °C 18,6 °C 66 % 88 % 1020,1 hPa 0,0 l/m² 0,0 km/h (0 Bft) N-NO 22 ° 0 min 0 W/m² 16,6 °C 18,6 °C 3,2 km/h (1 Bft)
22.08.2023 02:31 24,9 °C 18,6 °C 66 % 88 % 1020,1 hPa 0,0 l/m² 0,0 km/h (0 Bft) N 0 ° 0 min 0 W/m² 16,6 °C 18,6 °C 0,0 km/h (0 Bft)
22.08.2023 02:32 24,9 °C 18,6 °C 66 % 88 % 1020,1 hPa 0,0 l/m² 0,0 km/h (0 Bft) N 0 ° 0 min 0 W/m² 16,6 °C 18,6 °C 0,0 km/h (0 Bft)
22.08.2023 02:33 24,9 °C 18,6 °C 66 % 88 % 1020,1 hPa 0,0 l/m² 0,0 km/h (0 Bft) N 0 ° 0 min 0 W/m² 16,6 °C 18,6 °C 0,0 km/h (0 Bft)
22.08.2023 02:34 24,9 °C 18,6 °C 66 % 88 % 1020,0 hPa 0,0 l/m² 0,0 km/h (0 Bft) N 0 ° 0 min 0 W/m² 16,6 °C 18,6 °C 0,0 km/h (0 Bft)
22.08.2023 02:35 24,9 °C 18,6 °C 66 % 88 % 1020,0 hPa 0,0 l/m² 0,0 km/h (0 Bft) N 0 ° 0 min 0 W/m² 16,6 °C 18,6 °C 0,0 km/h (0 Bft)
22.08.2023 02:36 24,9 °C 18,4 °C 66 % 88 % 1020,0 hPa 0,0 l/m² 0,0 km/h (0 Bft) N 0 ° 0 min 0 W/m² 16,4 °C 18,4 °C 0,0 km/h (0 Bft)
22.08.2023 02:37 24,9 °C 18,3 °C 66 % 88 % 1020,0 hPa 0,0 l/m² 0,0 km/h (0 Bft) N 0 ° 0 min 0 W/m² 16,3 °C 18,3 °C 0,0 km/h (0 Bft)
22.08.2023 02:38 24,9 °C 18,2 °C 66 % 88 % 1020,0 hPa 0,0 l/m² 0,0 km/h (0 Bft) N 0 ° 0 min 0 W/m² 16,2 °C 18,2 °C 0,0 km/h (0 Bft)
22.08.2023 02:39 24,9 °C 18,1 °C 66 % 89 % 1020,0 hPa 0,0 l/m² 0,0 km/h (0 Bft) N 0 ° 0 min 0 W/m² 16,3 °C 18,1 °C 0,0 km/h (0 Bft)
22.08.2023 02:40 24,9 °C 18,0 °C 66 % 89 % 1019,9 hPa 0,0 l/m² 0,0 km/h (0 Bft) N 0 ° 0 min 0 W/m² 16,2 °C 18,0 °C 0,0 km/h (0 Bft)
22.08.2023 02:41 24,9 °C 17,9 °C 66 % 89 % 1019,9 hPa 0,0 l/m² 0,0 km/h (0 Bft) N 0 ° 0 min 0 W/m² 16,1 °C 17,9 °C 0,0 km/h (0 Bft)
22.08.2023 02:42 24,9 °C 17,9 °C 66 % 89 % 1020,0 hPa 0,0 l/m² 0,0 km/h (0 Bft) N 0 ° 0 min 0 W/m² 16,1 °C 17,9 °C 0,0 km/h (0 Bft)
22.08.2023 02:43 24,9 °C 17,9 °C 66 % 89 % 1020,0 hPa 0,0 l/m² 0,0 km/h (0 Bft) N 0 ° 0 min 0 W/m² 16,1 °C 17,9 °C 0,0 km/h (0 Bft)
22.08.2023 02:44 24,9 °C 17,9 °C 66 % 89 % 1020,0 hPa 0,0 l/m² 0,0 km/h (0 Bft) N 0 ° 0 min 0 W/m² 16,1 °C 17,9 °C 0,0 km/h (0 Bft)
22.08.2023 02:45 24,9 °C 17,9 °C 66 % 89 % 1020,1 hPa 0,0 l/m² 0,0 km/h (0 Bft) N 0 ° 0 min 0 W/m² 16,1 °C 17,9 °C 0,0 km/h (0 Bft)
22.08.2023 02:46 24,9 °C 17,8 °C 66 % 89 % 1020,1 hPa 0,0 l/m² 0,0 km/h (0 Bft) N 0 ° 0 min 0 W/m² 16,0 °C 17,8 °C 0,0 km/h (0 Bft)
22.08.2023 02:47 24,9 °C 17,9 °C 66 % 89 % 1020,0 hPa 0,0 l/m² 0,0 km/h (0 Bft) N 0 ° 0 min 0 W/m² 16,1 °C 17,9 °C 0,0 km/h (0 Bft)
22.08.2023 02:48 24,9 °C 17,9 °C 65 % 90 % 1020,0 hPa 0,0 l/m² 0,0 km/h (0 Bft) N 0 ° 0 min 0 W/m² 16,2 °C 17,9 °C 0,0 km/h (0 Bft)
22.08.2023 02:49 24,9 °C 17,9 °C 65 % 90 % 1020,0 hPa 0,0 l/m² 0,0 km/h (0 Bft) N 0 ° 0 min 0 W/m² 16,2 °C 17,9 °C 0,0 km/h (0 Bft)
22.08.2023 02:50 24,9 °C 17,9 °C 66 % 90 % 1020,0 hPa 0,0 l/m² 0,0 km/h (0 Bft) N 0 ° 0 min 0 W/m² 16,2 °C 17,9 °C 0,0 km/h (0 Bft)
22.08.2023 02:51 24,9 °C 18,0 °C 65 % 90 % 1020,0 hPa 0,0 l/m² 0,0 km/h (0 Bft) N 0 ° 0 min 0 W/m² 16,3 °C 18,0 °C 0,0 km/h (0 Bft)
22.08.2023 02:52 24,9 °C 18,0 °C 65 % 90 % 1019,9 hPa 0,0 l/m² 0,0 km/h (0 Bft) N 0 ° 0 min 0 W/m² 16,3 °C 18,0 °C 0,0 km/h (0 Bft)
22.08.2023 02:53 24,9 °C 18,0 °C 65 % 90 % 1020,0 hPa 0,0 l/m² 0,0 km/h (0 Bft) N 0 ° 0 min 0 W/m² 16,3 °C 18,0 °C 0,0 km/h (0 Bft)
22.08.2023 02:54 24,9 °C 18,0 °C 65 % 90 % 1020,0 hPa 0,0 l/m² 0,0 km/h (0 Bft) N 0 ° 0 min 0 W/m² 16,3 °C 18,0 °C 0,0 km/h (0 Bft)
22.08.2023 02:55 24,9 °C 18,1 °C 65 % 90 % 1020,0 hPa 0,0 l/m² 0,0 km/h (0 Bft) N 0 ° 0 min 0 W/m² 16,4 °C 18,1 °C 0,0 km/h (0 Bft)
22.08.2023 02:56 24,9 °C 18,0 °C 65 % 90 % 1019,9 hPa 0,0 l/m² 0,0 km/h (0 Bft) N 0 ° 0 min 0 W/m² 16,3 °C 18,0 °C 0,0 km/h (0 Bft)
22.08.2023 02:57 24,9 °C 18,0 °C 65 % 90 % 1020,0 hPa 0,0 l/m² 0,0 km/h (0 Bft) N 0 ° 0 min 0 W/m² 16,3 °C 18,0 °C 0,0 km/h (0 Bft)
22.08.2023 02:58 24,9 °C 18,0 °C 65 % 90 % 1019,9 hPa 0,0 l/m² 0,0 km/h (0 Bft) N 0 ° 0 min 0 W/m² 16,3 °C 18,0 °C 0,0 km/h (0 Bft)
22.08.2023 02:59 24,9 °C 18,0 °C 65 % 90 % 1019,9 hPa 0,0 l/m² 0,0 km/h (0 Bft) N 0 ° 0 min 0 W/m² 16,3 °C 18,0 °C 0,0 km/h (0 Bft)
22.08.2023 03:00 24,9 °C 17,9 °C 65 % 90 % 1019,9 hPa 0,0 l/m² 0,0 km/h (0 Bft) N 0 ° 0 min 0 W/m² 16,2 °C 17,9 °C 0,0 km/h (0 Bft)
22.08.2023 03:01 24,9 °C 17,9 °C 65 % 90 % 1019,8 hPa 0,0 l/m² 0,0 km/h (0 Bft) N 0 ° 0 min 0 W/m² 16,2 °C 17,9 °C 0,0 km/h (0 Bft)
22.08.2023 03:02 24,9 °C 17,9 °C 65 % 91 % 1019,8 hPa 0,0 l/m² 0,0 km/h (0 Bft) N 0 ° 0 min 0 W/m² 16,4 °C 17,9 °C 0,0 km/h (0 Bft)
22.08.2023 03:03 24,9 °C 17,9 °C 65 % 91 % 1019,8 hPa 0,0 l/m² 0,0 km/h (0 Bft) N 0 ° 0 min 0 W/m² 16,4 °C 17,9 °C 0,0 km/h (0 Bft)
22.08.2023 03:04 24,9 °C 17,9 °C 65 % 91 % 1019,7 hPa 0,0 l/m² 0,0 km/h (0 Bft) N 0 ° 0 min 0 W/m² 16,4 °C 17,9 °C 0,0 km/h (0 Bft)
22.08.2023 03:05 24,9 °C 17,9 °C 65 % 91 % 1019,8 hPa 0,0 l/m² 0,0 km/h (0 Bft) N 0 ° 0 min 0 W/m² 16,4 °C 17,9 °C 0,0 km/h (0 Bft)
22.08.2023 03:06 24,9 °C 17,9 °C 65 % 91 % 1019,8 hPa 0,0 l/m² 0,0 km/h (0 Bft) N 0 ° 0 min 0 W/m² 16,4 °C 17,9 °C 0,0 km/h (0 Bft)
22.08.2023 03:07 24,9 °C 17,9 °C 65 % 91 % 1019,7 hPa 0,0 l/m² 0,0 km/h (0 Bft) N 0 ° 0 min 0 W/m² 16,4 °C 17,9 °C 0,0 km/h (0 Bft)
22.08.2023 03:08 24,9 °C 17,9 °C 65 % 91 % 1019,7 hPa 0,0 l/m² 0,0 km/h (0 Bft) N 0 ° 0 min 0 W/m² 16,4 °C 17,9 °C 0,0 km/h (0 Bft)
22.08.2023 03:09 24,9 °C 17,9 °C 65 % 91 % 1019,8 hPa 0,0 l/m² 0,0 km/h (0 Bft) N 0 ° 0 min 0 W/m² 16,4 °C 17,9 °C 0,0 km/h (0 Bft)
22.08.2023 03:10 24,9 °C 17,9 °C 65 % 91 % 1019,7 hPa 0,0 l/m² 0,0 km/h (0 Bft) N 0 ° 0 min 0 W/m² 16,4 °C 17,9 °C 0,0 km/h (0 Bft)
22.08.2023 03:11 24,9 °C 17,8 °C 65 % 91 % 1019,6 hPa 0,0 l/m² 0,0 km/h (0 Bft) N 0 ° 0 min 0 W/m² 16,3 °C 17,8 °C 0,0 km/h (0 Bft)
22.08.2023 03:12 24,9 °C 17,9 °C 65 % 91 % 1019,7 hPa 0,0 l/m² 0,0 km/h (0 Bft) N 0 ° 0 min 0 W/m² 16,4 °C 17,9 °C 0,0 km/h (0 Bft)
22.08.2023 03:13 24,9 °C 17,9 °C 65 % 91 % 1019,7 hPa 0,0 l/m² 0,0 km/h (0 Bft) N-NO 22 ° 0 min 0 W/m² 16,4 °C 17,9 °C 1,6 km/h (1 Bft)
22.08.2023 03:14 24,9 °C 17,9 °C 65 % 91 % 1019,7 hPa 0,0 l/m² 1,6 km/h (1 Bft) N-NO 22 ° 0 min 0 W/m² 16,4 °C 17,9 °C 3,2 km/h (1 Bft)
22.08.2023 03:15 24,9 °C 17,8 °C 65 % 91 % 1019,7 hPa 0,0 l/m² 0,0 km/h (0 Bft) N 0 ° 0 min 0 W/m² 16,3 °C 17,8 °C 0,0 km/h (0 Bft)
22.08.2023 03:16 24,9 °C 17,9 °C 65 % 91 % 1019,7 hPa 0,0 l/m² 0,0 km/h (0 Bft) N 0 ° 0 min 0 W/m² 16,4 °C 17,9 °C 0,0 km/h (0 Bft)
22.08.2023 03:17 24,9 °C 17,9 °C 65 % 91 % 1019,7 hPa 0,0 l/m² 0,0 km/h (0 Bft) N 0 ° 0 min 0 W/m² 16,4 °C 17,9 °C 0,0 km/h (0 Bft)
22.08.2023 03:18 24,9 °C 17,9 °C 65 % 90 % 1019,7 hPa 0,0 l/m² 0,0 km/h (0 Bft) N 0 ° 0 min 0 W/m² 16,2 °C 17,9 °C 0,0 km/h (0 Bft)
22.08.2023 03:19 24,9 °C 17,9 °C 65 % 90 % 1019,7 hPa 0,0 l/m² 0,0 km/h (0 Bft) N 0 ° 0 min 0 W/m² 16,2 °C 17,9 °C 0,0 km/h (0 Bft)
22.08.2023 03:20 24,9 °C 17,9 °C 65 % 90 % 1019,7 hPa 0,0 l/m² 0,0 km/h (0 Bft) N 0 ° 0 min 0 W/m² 16,2 °C 17,9 °C 0,0 km/h (0 Bft)
22.08.2023 03:21 24,9 °C 17,9 °C 65 % 90 % 1019,7 hPa 0,0 l/m² 0,0 km/h (0 Bft) N 0 ° 0 min 0 W/m² 16,2 °C 17,9 °C 0,0 km/h (0 Bft)
22.08.2023 03:22 24,9 °C 18,0 °C 65 % 90 % 1019,7 hPa 0,0 l/m² 0,0 km/h (0 Bft) N 0 ° 0 min 0 W/m² 16,3 °C 18,0 °C 0,0 km/h (0 Bft)
22.08.2023 03:23 24,9 °C 18,1 °C 65 % 90 % 1019,7 hPa 0,0 l/m² 0,0 km/h (0 Bft) N 0 ° 0 min 0 W/m² 16,4 °C 18,1 °C 0,0 km/h (0 Bft)
22.08.2023 03:24 24,9 °C 18,1 °C 65 % 89 % 1019,7 hPa 0,0 l/m² 0,0 km/h (0 Bft) N 0 ° 0 min 0 W/m² 16,3 °C 18,1 °C 0,0 km/h (0 Bft)
22.08.2023 03:25 24,9 °C 18,1 °C 65 % 89 % 1019,7 hPa 0,0 l/m² 0,0 km/h (0 Bft) N 0 ° 0 min 0 W/m² 16,3 °C 18,1 °C 0,0 km/h (0 Bft)
22.08.2023 03:26 24,9 °C 18,1 °C 65 % 89 % 1019,7 hPa 0,0 l/m² 0,0 km/h (0 Bft) N 0 ° 0 min 0 W/m² 16,3 °C 18,1 °C 0,0 km/h (0 Bft)
22.08.2023 03:27 24,9 °C 18,1 °C 65 % 89 % 1019,8 hPa 0,0 l/m² 0,0 km/h (0 Bft) N-NO 22 ° 0 min 0 W/m² 16,3 °C 18,1 °C 1,6 km/h (1 Bft)
22.08.2023 03:28 24,9 °C 18,1 °C 65 % 89 % 1019,7 hPa 0,0 l/m² 0,0 km/h (0 Bft) N 0 ° 0 min 0 W/m² 16,3 °C 18,1 °C 0,0 km/h (0 Bft)
22.08.2023 03:29 24,9 °C 18,2 °C 65 % 89 % 1019,7 hPa 0,0 l/m² 0,0 km/h (0 Bft) N 0 ° 0 min 0 W/m² 16,4 °C 18,2 °C 0,0 km/h (0 Bft)
22.08.2023 03:30 24,9 °C 18,2 °C 65 % 89 % 1019,7 hPa 0,0 l/m² 0,0 km/h (0 Bft) N 0 ° 0 min 0 W/m² 16,4 °C 18,2 °C 0,0 km/h (0 Bft)
22.08.2023 03:31 24,9 °C 18,2 °C 65 % 89 % 1019,6 hPa 0,0 l/m² 0,0 km/h (0 Bft) N 0 ° 0 min 0 W/m² 16,4 °C 18,2 °C 0,0 km/h (0 Bft)
22.08.2023 03:32 24,9 °C 18,2 °C 65 % 89 % 1019,7 hPa 0,0 l/m² 0,0 km/h (0 Bft) N 0 ° 0 min 0 W/m² 16,4 °C 18,2 °C 0,0 km/h (0 Bft)
22.08.2023 03:33 24,9 °C 18,3 °C 65 % 89 % 1019,6 hPa 0,0 l/m² 0,0 km/h (0 Bft) N 0 ° 0 min 0 W/m² 16,5 °C 18,3 °C 0,0 km/h (0 Bft)
22.08.2023 03:34 24,9 °C 18,3 °C 65 % 89 % 1019,7 hPa 0,0 l/m² 0,0 km/h (0 Bft) N 0 ° 0 min 0 W/m² 16,5 °C 18,3 °C 0,0 km/h (0 Bft)
22.08.2023 03:35 24,9 °C 18,3 °C 65 % 89 % 1019,6 hPa 0,0 l/m² 0,0 km/h (0 Bft) N-NO 22 ° 0 min 0 W/m² 16,5 °C 18,3 °C 1,6 km/h (1 Bft)
22.08.2023 03:36 24,9 °C 18,3 °C 65 % 88 % 1019,7 hPa 0,0 l/m² 0,0 km/h (0 Bft) N-NO 22 ° 0 min 0 W/m² 16,3 °C 18,3 °C 1,6 km/h (1 Bft)
22.08.2023 03:37 24,9 °C 18,3 °C 65 % 88 % 1019,6 hPa 0,0 l/m² 1,6 km/h (1 Bft) N-NO 22 ° 0 min 0 W/m² 16,3 °C 18,3 °C 3,2 km/h (1 Bft)
22.08.2023 03:38 24,9 °C 18,3 °C 65 % 88 % 1019,6 hPa 0,0 l/m² 0,0 km/h (0 Bft) N-NO 22 ° 0 min 0 W/m² 16,3 °C 18,3 °C 3,2 km/h (1 Bft)
22.08.2023 03:39 24,9 °C 18,4 °C 65 % 88 % 1019,6 hPa 0,0 l/m² 0,0 km/h (0 Bft) N 0 ° 0 min 0 W/m² 16,4 °C 18,4 °C 0,0 km/h (0 Bft)
22.08.2023 03:40 24,9 °C 18,4 °C 65 % 88 % 1019,7 hPa 0,0 l/m² 0,0 km/h (0 Bft) N 0 ° 0 min 0 W/m² 16,4 °C 18,4 °C 0,0 km/h (0 Bft)
22.08.2023 03:41 24,9 °C 18,4 °C 65 % 88 % 1019,6 hPa 0,0 l/m² 0,0 km/h (0 Bft) N-NO 22 ° 0 min 0 W/m² 16,4 °C 18,4 °C 1,6 km/h (1 Bft)
22.08.2023 03:42 24,9 °C 18,4 °C 65 % 87 % 1019,7 hPa 0,0 l/m² 0,0 km/h (0 Bft) N-NO 22 ° 0 min 0 W/m² 16,2 °C 18,4 °C 1,6 km/h (1 Bft)
22.08.2023 03:43 24,8 °C 18,4 °C 65 % 87 % 1019,7 hPa 0,0 l/m² 1,6 km/h (1 Bft) N-NO 22 ° 0 min 0 W/m² 16,2 °C 18,4 °C 3,2 km/h (1 Bft)
22.08.2023 03:44 24,9 °C 18,4 °C 65 % 87 % 1019,7 hPa 0,0 l/m² 0,0 km/h (0 Bft) N 0 ° 0 min 0 W/m² 16,2 °C 18,4 °C 0,0 km/h (0 Bft)
22.08.2023 03:45 24,9 °C 18,4 °C 65 % 87 % 1019,7 hPa 0,0 l/m² 0,0 km/h (0 Bft) N 0 ° 0 min 0 W/m² 16,2 °C 18,4 °C 0,0 km/h (0 Bft)
22.08.2023 03:46 24,9 °C 18,4 °C 65 % 87 % 1019,6 hPa 0,0 l/m² 0,0 km/h (0 Bft) N 0 ° 0 min 0 W/m² 16,2 °C 18,4 °C 0,0 km/h (0 Bft)
22.08.2023 03:47 24,9 °C 18,3 °C 65 % 87 % 1019,6 hPa 0,0 l/m² 0,0 km/h (0 Bft) N 0 ° 0 min 0 W/m² 16,1 °C 18,3 °C 0,0 km/h (0 Bft)
22.08.2023 03:48 24,8 °C 18,3 °C 65 % 87 % 1019,5 hPa 0,0 l/m² 0,0 km/h (0 Bft) N 0 ° 0 min 0 W/m² 16,1 °C 18,3 °C 0,0 km/h (0 Bft)
22.08.2023 03:49 24,9 °C 18,1 °C 65 % 87 % 1019,6 hPa 0,0 l/m² 0,0 km/h (0 Bft) N 0 ° 0 min 0 W/m² 15,9 °C 18,1 °C 0,0 km/h (0 Bft)
22.08.2023 03:50 24,8 °C 18,1 °C 65 % 87 % 1019,5 hPa 0,0 l/m² 0,0 km/h (0 Bft) N 0 ° 0 min 0 W/m² 15,9 °C 18,1 °C 0,0 km/h (0 Bft)
22.08.2023 03:51 24,9 °C 17,9 °C 65 % 88 % 1019,5 hPa 0,0 l/m² 0,0 km/h (0 Bft) N 0 ° 0 min 0 W/m² 15,9 °C 17,9 °C 0,0 km/h (0 Bft)
22.08.2023 03:52 24,8 °C 17,8 °C 65 % 88 % 1019,5 hPa 0,0 l/m² 0,0 km/h (0 Bft) N 0 ° 0 min 0 W/m² 15,8 °C 17,8 °C 0,0 km/h (0 Bft)
22.08.2023 03:53 24,9 °C 17,8 °C 65 % 88 % 1019,5 hPa 0,0 l/m² 0,0 km/h (0 Bft) N 0 ° 0 min 0 W/m² 15,8 °C 17,8 °C 0,0 km/h (0 Bft)
22.08.2023 03:54 24,9 °C 17,8 °C 65 % 89 % 1019,4 hPa 0,0 l/m² 0,0 km/h (0 Bft) N 0 ° 0 min 0 W/m² 16,0 °C 17,8 °C 0,0 km/h (0 Bft)
22.08.2023 03:55 24,9 °C 17,7 °C 65 % 89 % 1019,4 hPa 0,0 l/m² 0,0 km/h (0 Bft) N 0 ° 0 min 0 W/m² 15,9 °C 17,7 °C 0,0 km/h (0 Bft)
22.08.2023 03:56 24,9 °C 17,7 °C 65 % 89 % 1019,4 hPa 0,0 l/m² 0,0 km/h (0 Bft) N 0 ° 0 min 0 W/m² 15,9 °C 17,7 °C 0,0 km/h (0 Bft)
22.08.2023 03:57 24,8 °C 17,7 °C 65 % 89 % 1019,4 hPa 0,0 l/m² 0,0 km/h (0 Bft) N 0 ° 0 min 0 W/m² 15,9 °C 17,7 °C 0,0 km/h (0 Bft)
22.08.2023 03:58 24,8 °C 17,6 °C 65 % 89 % 1019,4 hPa 0,0 l/m² 0,0 km/h (0 Bft) N 0 ° 0 min 0 W/m² 15,8 °C 17,6 °C 0,0 km/h (0 Bft)
22.08.2023 03:59 24,8 °C 17,6 °C 65 % 90 % 1019,4 hPa 0,0 l/m² 0,0 km/h (0 Bft) N 0 ° 0 min 0 W/m² 15,9 °C 17,6 °C 0,0 km/h (0 Bft)
22.08.2023 04:00 24,9 °C 17,6 °C 65 % 90 % 1019,4 hPa 0,0 l/m² 0,0 km/h (0 Bft) N 0 ° 0 min 0 W/m² 15,9 °C 17,6 °C 0,0 km/h (0 Bft)
22.08.2023 04:01 24,8 °C 17,6 °C 65 % 90 % 1019,4 hPa 0,0 l/m² 0,0 km/h (0 Bft) N 0 ° 0 min 0 W/m² 15,9 °C 17,6 °C 0,0 km/h (0 Bft)
22.08.2023 04:02 24,8 °C 17,6 °C 65 % 90 % 1019,4 hPa 0,0 l/m² 0,0 km/h (0 Bft) N 0 ° 0 min 0 W/m² 15,9 °C 17,6 °C 0,0 km/h (0 Bft)
22.08.2023 04:03 24,9 °C 17,6 °C 65 % 90 % 1019,4 hPa 0,0 l/m² 0,0 km/h (0 Bft) N 0 ° 0 min 0 W/m² 15,9 °C 17,6 °C 0,0 km/h (0 Bft)
22.08.2023 04:04 24,8 °C 17,6 °C 65 % 90 % 1019,2 hPa 0,0 l/m² 0,0 km/h (0 Bft) N 0 ° 0 min 0 W/m² 15,9 °C 17,6 °C 0,0 km/h (0 Bft)
22.08.2023 04:05 24,9 °C 17,6 °C 65 % 90 % 1019,3 hPa 0,0 l/m² 0,0 km/h (0 Bft) N 0 ° 0 min 0 W/m² 15,9 °C 17,6 °C 0,0 km/h (0 Bft)
22.08.2023 04:06 24,8 °C 17,6 °C 65 % 90 % 1019,4 hPa 0,0 l/m² 0,0 km/h (0 Bft) N 0 ° 0 min 0 W/m² 15,9 °C 17,6 °C 0,0 km/h (0 Bft)
22.08.2023 04:07 24,8 °C 17,6 °C 65 % 90 % 1019,4 hPa 0,0 l/m² 0,0 km/h (0 Bft) N 0 ° 0 min 0 W/m² 15,9 °C 17,6 °C 0,0 km/h (0 Bft)
22.08.2023 04:08 24,8 °C 17,6 °C 65 % 90 % 1019,3 hPa 0,0 l/m² 0,0 km/h (0 Bft) N 0 ° 0 min 0 W/m² 15,9 °C 17,6 °C 0,0 km/h (0 Bft)
22.08.2023 04:09 24,8 °C 17,6 °C 65 % 90 % 1019,2 hPa 0,0 l/m² 0,0 km/h (0 Bft) N 0 ° 0 min 0 W/m² 15,9 °C 17,6 °C 0,0 km/h (0 Bft)
22.08.2023 04:10 24,8 °C 17,6 °C 65 % 89 % 1019,3 hPa 0,0 l/m² 0,0 km/h (0 Bft) N 0 ° 0 min 0 W/m² 15,8 °C 17,6 °C 0,0 km/h (0 Bft)
22.08.2023 04:11 24,8 °C 17,6 °C 65 % 89 % 1019,2 hPa 0,0 l/m² 0,0 km/h (0 Bft) N 0 ° 0 min 0 W/m² 15,8 °C 17,6 °C 0,0 km/h (0 Bft)
22.08.2023 04:12 24,9 °C 17,6 °C 65 % 89 % 1019,3 hPa 0,0 l/m² 0,0 km/h (0 Bft) N 0 ° 0 min 0 W/m² 15,8 °C 17,6 °C 0,0 km/h (0 Bft)
22.08.2023 04:13 24,9 °C 17,6 °C 65 % 90 % 1019,3 hPa 0,0 l/m² 0,0 km/h (0 Bft) N 0 ° 0 min 0 W/m² 15,9 °C 17,6 °C 0,0 km/h (0 Bft)
22.08.2023 04:14 24,8 °C 17,6 °C 65 % 90 % 1019,3 hPa 0,0 l/m² 0,0 km/h (0 Bft) N 0 ° 0 min 0 W/m² 15,9 °C 17,6 °C 0,0 km/h (0 Bft)
22.08.2023 04:15 24,9 °C 17,6 °C 65 % 90 % 1019,3 hPa 0,0 l/m² 0,0 km/h (0 Bft) N-NO 22 ° 0 min 0 W/m² 15,9 °C 17,6 °C 3,2 km/h (1 Bft)
22.08.2023 04:16 24,8 °C 17,6 °C 65 % 89 % 1019,4 hPa 0,0 l/m² 0,0 km/h (0 Bft) N-NO 22 ° 0 min 0 W/m² 15,8 °C 17,6 °C 1,6 km/h (1 Bft)
22.08.2023 04:17 24,8 °C 17,6 °C 65 % 89 % 1019,4 hPa 0,0 l/m² 0,0 km/h (0 Bft) N-NO 22 ° 0 min 0 W/m² 15,8 °C 17,6 °C 1,6 km/h (1 Bft)
22.08.2023 04:18 24,9 °C 17,7 °C 65 % 89 % 1019,5 hPa 0,0 l/m² 0,0 km/h (0 Bft) N-NO 22 ° 0 min 0 W/m² 15,9 °C 17,7 °C 1,6 km/h (1 Bft)
22.08.2023 04:19 24,8 °C 17,7 °C 65 % 89 % 1019,4 hPa 0,0 l/m² 1,6 km/h (1 Bft) N-NO 22 ° 0 min 0 W/m² 15,9 °C 17,7 °C 3,2 km/h (1 Bft)
22.08.2023 04:20 24,8 °C 17,8 °C 65 % 88 % 1019,4 hPa 0,0 l/m² 0,0 km/h (0 Bft) N 0 ° 0 min 0 W/m² 15,8 °C 17,8 °C 0,0 km/h (0 Bft)
22.08.2023 04:21 24,8 °C 17,8 °C 65 % 88 % 1019,4 hPa 0,0 l/m² 1,6 km/h (1 Bft) N-NO 22 ° 0 min 0 W/m² 15,8 °C 17,8 °C 3,2 km/h (1 Bft)
22.08.2023 04:22 24,8 °C 17,8 °C 65 % 88 % 1019,4 hPa 0,0 l/m² 1,6 km/h (1 Bft) N-NO 22 ° 0 min 0 W/m² 15,8 °C 17,8 °C 3,2 km/h (1 Bft)
22.08.2023 04:23 24,9 °C 17,8 °C 65 % 87 % 1019,4 hPa 0,0 l/m² 1,6 km/h (1 Bft) N-NO 22 ° 0 min 0 W/m² 15,6 °C 17,8 °C 4,8 km/h (1 Bft)
22.08.2023 04:24 24,8 °C 17,9 °C 65 % 87 % 1019,4 hPa 0,0 l/m² 0,0 km/h (0 Bft) N-NO 22 ° 0 min 0 W/m² 15,7 °C 17,9 °C 1,6 km/h (1 Bft)
22.08.2023 04:25 24,8 °C 17,9 °C 65 % 87 % 1019,3 hPa 0,0 l/m² 1,6 km/h (1 Bft) N-NO 22 ° 0 min 0 W/m² 15,7 °C 17,9 °C 3,2 km/h (1 Bft)
22.08.2023 04:26 24,8 °C 18,0 °C 65 % 87 % 1019,4 hPa 0,0 l/m² 0,0 km/h (0 Bft) N-NO 22 ° 0 min 0 W/m² 15,8 °C 18,0 °C 1,6 km/h (1 Bft)
22.08.2023 04:27 24,8 °C 18,0 °C 65 % 87 % 1019,4 hPa 0,0 l/m² 0,0 km/h (0 Bft) N 0 ° 0 min 0 W/m² 15,8 °C 18,0 °C 0,0 km/h (0 Bft)
22.08.2023 04:28 24,8 °C 18,0 °C 65 % 86 % 1019,4 hPa 0,0 l/m² 0,0 km/h (0 Bft) N 0 ° 0 min 0 W/m² 15,6 °C 18,0 °C 0,0 km/h (0 Bft)
22.08.2023 04:29 24,8 °C 18,0 °C 65 % 87 % 1019,3 hPa 0,0 l/m² 0,0 km/h (0 Bft) N 0 ° 0 min 0 W/m² 15,8 °C 18,0 °C 0,0 km/h (0 Bft)
22.08.2023 04:30 24,8 °C 17,9 °C 65 % 87 % 1019,4 hPa 0,0 l/m² 0,0 km/h (0 Bft) N-NO 22 ° 0 min 0 W/m² 15,7 °C 17,9 °C 1,6 km/h (1 Bft)
22.08.2023 04:31 24,8 °C 17,9 °C 65 % 87 % 1019,4 hPa 0,0 l/m² 0,0 km/h (0 Bft) N-NO 22 ° 0 min 0 W/m² 15,7 °C 17,9 °C 3,2 km/h (1 Bft)
22.08.2023 04:32 24,8 °C 17,9 °C 65 % 87 % 1019,4 hPa 0,0 l/m² 3,2 km/h (1 Bft) N-NO 22 ° 0 min 0 W/m² 15,7 °C 17,9 °C 3,2 km/h (1 Bft)
22.08.2023 04:33 24,8 °C 17,9 °C 65 % 87 % 1019,5 hPa 0,0 l/m² 1,6 km/h (1 Bft) N-NO 22 ° 0 min 0 W/m² 15,7 °C 17,9 °C 3,2 km/h (1 Bft)
22.08.2023 04:34 24,8 °C 17,9 °C 65 % 86 % 1019,4 hPa 0,0 l/m² 0,0 km/h (0 Bft) N 0 ° 0 min 0 W/m² 15,5 °C 17,9 °C 0,0 km/h (0 Bft)
22.08.2023 04:35 24,8 °C 17,9 °C 65 % 86 % 1019,4 hPa 0,0 l/m² 0,0 km/h (0 Bft) N-NO 22 ° 0 min 0 W/m² 15,5 °C 17,9 °C 1,6 km/h (1 Bft)
22.08.2023 04:36 24,8 °C 18,0 °C 65 % 86 % 1019,5 hPa 0,0 l/m² 3,2 km/h (1 Bft) N-NO 22 ° 0 min 0 W/m² 15,6 °C 18,0 °C 4,8 km/h (1 Bft)
22.08.2023 04:37 24,8 °C 18,0 °C 65 % 86 % 1019,3 hPa 0,0 l/m² 1,6 km/h (1 Bft) N-NO 22 ° 0 min 0 W/m² 15,6 °C 18,0 °C 3,2 km/h (1 Bft)
22.08.2023 04:38 24,8 °C 18,0 °C 65 % 86 % 1019,3 hPa 0,0 l/m² 0,0 km/h (0 Bft) N-NO 22 ° 0 min 0 W/m² 15,6 °C 18,0 °C 1,6 km/h (1 Bft)
22.08.2023 04:39 24,8 °C 18,0 °C 65 % 86 % 1019,3 hPa 0,0 l/m² 1,6 km/h (1 Bft) N-NO 22 ° 0 min 0 W/m² 15,6 °C 18,0 °C 4,8 km/h (1 Bft)
22.08.2023 04:40 24,8 °C 18,0 °C 65 % 86 % 1019,3 hPa 0,0 l/m² 0,0 km/h (0 Bft) N-NO 22 ° 0 min 0 W/m² 15,6 °C 18,0 °C 1,6 km/h (1 Bft)
22.08.2023 04:41 24,8 °C 18,0 °C 65 % 86 % 1019,3 hPa 0,0 l/m² 1,6 km/h (1 Bft) N-NO 22 ° 0 min 0 W/m² 15,6 °C 18,0 °C 3,2 km/h (1 Bft)
22.08.2023 04:42 24,8 °C 18,1 °C 65 % 86 % 1019,3 hPa 0,0 l/m² 1,6 km/h (1 Bft) N-NO 22 ° 0 min 0 W/m² 15,7 °C 18,1 °C 3,2 km/h (1 Bft)
22.08.2023 04:43 24,8 °C 18,1 °C 65 % 86 % 1019,4 hPa 0,0 l/m² 0,0 km/h (0 Bft) N 0 ° 0 min 0 W/m² 15,7 °C 18,1 °C 0,0 km/h (0 Bft)
22.08.2023 04:44 24,8 °C 18,0 °C 65 % 86 % 1019,3 hPa 0,0 l/m² 0,0 km/h (0 Bft) N 0 ° 0 min 0 W/m² 15,6 °C 18,0 °C 0,0 km/h (0 Bft)
22.08.2023 04:45 24,8 °C 17,9 °C 65 % 87 % 1019,4 hPa 0,0 l/m² 0,0 km/h (0 Bft) N 0 ° 0 min 0 W/m² 15,7 °C 17,9 °C 0,0 km/h (0 Bft)
22.08.2023 04:46 24,8 °C 17,8 °C 65 % 87 % 1019,3 hPa 0,0 l/m² 0,0 km/h (0 Bft) N 0 ° 0 min 0 W/m² 15,6 °C 17,8 °C 0,0 km/h (0 Bft)
22.08.2023 04:47 24,8 °C 17,8 °C 65 % 87 % 1019,3 hPa 0,0 l/m² 0,0 km/h (0 Bft) N 0 ° 0 min 0 W/m² 15,6 °C 17,8 °C 0,0 km/h (0 Bft)
22.08.2023 04:48 24,8 °C 17,8 °C 65 % 87 % 1019,3 hPa 0,0 l/m² 0,0 km/h (0 Bft) N 0 ° 0 min 0 W/m² 15,6 °C 17,8 °C 0,0 km/h (0 Bft)
22.08.2023 04:49 24,8 °C 17,8 °C 65 % 87 % 1019,3 hPa 0,0 l/m² 0,0 km/h (0 Bft) N 0 ° 0 min 0 W/m² 15,6 °C 17,8 °C 0,0 km/h (0 Bft)
22.08.2023 04:50 24,8 °C 17,8 °C 65 % 88 % 1019,3 hPa 0,0 l/m² 0,0 km/h (0 Bft) N 0 ° 0 min 0 W/m² 15,8 °C 17,8 °C 0,0 km/h (0 Bft)
22.08.2023 04:51 24,8 °C 17,8 °C 65 % 88 % 1019,3 hPa 0,0 l/m² 0,0 km/h (0 Bft) N 0 ° 0 min 0 W/m² 15,8 °C 17,8 °C 0,0 km/h (0 Bft)
22.08.2023 04:52 24,8 °C 17,8 °C 65 % 88 % 1019,2 hPa 0,0 l/m² 0,0 km/h (0 Bft) N 0 ° 0 min 0 W/m² 15,8 °C 17,8 °C 0,0 km/h (0 Bft)
22.08.2023 04:53 24,8 °C 17,8 °C 65 % 88 % 1019,2 hPa 0,0 l/m² 0,0 km/h (0 Bft) N 0 ° 0 min 0 W/m² 15,8 °C 17,8 °C 0,0 km/h (0 Bft)
22.08.2023 04:54 24,8 °C 17,8 °C 65 % 88 % 1019,2 hPa 0,0 l/m² 0,0 km/h (0 Bft) N 0 ° 0 min 0 W/m² 15,8 °C 17,8 °C 0,0 km/h (0 Bft)
22.08.2023 04:55 24,8 °C 17,8 °C 65 % 88 % 1019,2 hPa 0,0 l/m² 0,0 km/h (0 Bft) N 0 ° 0 min 0 W/m² 15,8 °C 17,8 °C 0,0 km/h (0 Bft)
22.08.2023 04:56 24,8 °C 17,7 °C 65 % 88 % 1019,1 hPa 0,0 l/m² 0,0 km/h (0 Bft) N 0 ° 0 min 0 W/m² 15,7 °C 17,7 °C 0,0 km/h (0 Bft)
22.08.2023 04:57 24,8 °C 17,8 °C 65 % 88 % 1019,2 hPa 0,0 l/m² 0,0 km/h (0 Bft) N 0 ° 0 min 0 W/m² 15,8 °C 17,8 °C 0,0 km/h (0 Bft)
22.08.2023 04:58 24,8 °C 17,8 °C 65 % 88 % 1019,2 hPa 0,0 l/m² 0,0 km/h (0 Bft) N 0 ° 0 min 0 W/m² 15,8 °C 17,8 °C 0,0 km/h (0 Bft)
22.08.2023 04:59 24,8 °C 17,8 °C 65 % 88 % 1019,1 hPa 0,0 l/m² 0,0 km/h (0 Bft) N 0 ° 0 min 0 W/m² 15,8 °C 17,8 °C 0,0 km/h (0 Bft)
22.08.2023 05:00 24,8 °C 17,8 °C 65 % 88 % 1019,1 hPa 0,0 l/m² 0,0 km/h (0 Bft) N 0 ° 0 min 0 W/m² 15,8 °C 17,8 °C 0,0 km/h (0 Bft)
22.08.2023 05:01 24,8 °C 17,8 °C 65 % 89 % 1019,2 hPa 0,0 l/m² 0,0 km/h (0 Bft) N 0 ° 0 min 0 W/m² 16,0 °C 17,8 °C 0,0 km/h (0 Bft)
22.08.2023 05:02 24,8 °C 17,8 °C 65 % 89 % 1019,2 hPa 0,0 l/m² 0,0 km/h (0 Bft) N 0 ° 0 min 0 W/m² 16,0 °C 17,8 °C 0,0 km/h (0 Bft)
22.08.2023 05:03 24,8 °C 17,7 °C 65 % 88 % 1019,2 hPa 0,0 l/m² 0,0 km/h (0 Bft) N-NO 22 ° 0 min 0 W/m² 15,7 °C 17,7 °C 3,2 km/h (1 Bft)
22.08.2023 05:04 24,9 °C 17,8 °C 65 % 88 % 1019,3 hPa 0,0 l/m² 0,0 km/h (0 Bft) N-NO 22 ° 0 min 0 W/m² 15,8 °C 17,8 °C 3,2 km/h (1 Bft)
22.08.2023 05:05 24,8 °C 17,8 °C 65 % 88 % 1019,3 hPa 0,0 l/m² 3,2 km/h (1 Bft) NW 315 ° 0 min 0 W/m² 15,8 °C 17,8 °C 4,8 km/h (1 Bft)
22.08.2023 05:06 24,9 °C 17,8 °C 66 % 88 % 1019,2 hPa 0,0 l/m² 3,2 km/h (1 Bft) NW 315 ° 0 min 0 W/m² 15,8 °C 17,8 °C 4,8 km/h (1 Bft)
22.08.2023 05:07 24,8 °C 17,8 °C 66 % 87 % 1019,3 hPa 0,0 l/m² 3,2 km/h (1 Bft) W-NW 292 ° 0 min 0 W/m² 15,6 °C 17,8 °C 6,4 km/h (2 Bft)
22.08.2023 05:08 24,9 °C 17,9 °C 66 % 87 % 1019,3 hPa 0,0 l/m² 3,2 km/h (1 Bft) W-NW 292 ° 0 min 0 W/m² 15,7 °C 17,9 °C 6,4 km/h (2 Bft)
22.08.2023 05:09 24,9 °C 17,9 °C 66 % 87 % 1019,3 hPa 0,0 l/m² 3,2 km/h (1 Bft) NW 315 ° 0 min 0 W/m² 15,7 °C 17,9 °C 4,8 km/h (1 Bft)
22.08.2023 05:10 24,9 °C 18,1 °C 66 % 87 % 1019,3 hPa 0,0 l/m² 4,8 km/h (1 Bft) NW 315 ° 0 min 0 W/m² 15,9 °C 18,1 °C 6,4 km/h (2 Bft)
22.08.2023 05:11 24,8 °C 18,1 °C 66 % 86 % 1019,2 hPa 0,0 l/m² 3,2 km/h (1 Bft) W-NW 292 ° 0 min 0 W/m² 15,7 °C 18,1 °C 6,4 km/h (2 Bft)
22.08.2023 05:12 24,9 °C 18,1 °C 66 % 86 % 1019,3 hPa 0,0 l/m² 3,2 km/h (1 Bft) NW 315 ° 0 min 0 W/m² 15,7 °C 18,1 °C 4,8 km/h (1 Bft)
22.08.2023 05:13 24,9 °C 18,2 °C 66 % 86 % 1019,3 hPa 0,0 l/m² 4,8 km/h (1 Bft) NW 315 ° 0 min 0 W/m² 15,8 °C 18,2 °C 6,4 km/h (2 Bft)
22.08.2023 05:14 24,9 °C 18,2 °C 66 % 86 % 1019,2 hPa 0,0 l/m² 3,2 km/h (1 Bft) N-NW 337 ° 0 min 0 W/m² 15,8 °C 18,2 °C 4,8 km/h (1 Bft)
22.08.2023 05:15 24,9 °C 18,2 °C 65 % 85 % 1019,2 hPa 0,0 l/m² 4,8 km/h (1 Bft) N-NW 337 ° 0 min 0 W/m² 15,6 °C 18,2 °C 6,4 km/h (2 Bft)
22.08.2023 05:16 24,9 °C 18,3 °C 65 % 85 % 1019,1 hPa 0,0 l/m² 4,8 km/h (1 Bft) N-NW 337 ° 0 min 0 W/m² 15,7 °C 18,3 °C 6,4 km/h (2 Bft)
22.08.2023 05:17 24,9 °C 18,3 °C 65 % 84 % 1019,2 hPa 0,0 l/m² 4,8 km/h (1 Bft) N-NW 337 ° 0 min 0 W/m² 15,5 °C 18,3 °C 6,4 km/h (2 Bft)
22.08.2023 05:18 24,9 °C 18,3 °C 65 % 84 % 1019,2 hPa 0,0 l/m² 1,6 km/h (1 Bft) N-NW 337 ° 0 min 0 W/m² 15,5 °C 18,3 °C 4,8 km/h (1 Bft)
22.08.2023 05:19 24,9 °C 18,4 °C 65 % 84 % 1019,2 hPa 0,0 l/m² 1,6 km/h (1 Bft) N-NW 337 ° 0 min 0 W/m² 15,6 °C 18,4 °C 4,8 km/h (1 Bft)
22.08.2023 05:20 24,9 °C 18,4 °C 65 % 84 % 1019,1 hPa 0,0 l/m² 1,6 km/h (1 Bft) N-NW 337 ° 0 min 0 W/m² 15,6 °C 18,4 °C 3,2 km/h (1 Bft)
22.08.2023 05:21 24,9 °C 18,4 °C 65 % 84 % 1019,1 hPa 0,0 l/m² 1,6 km/h (1 Bft) N-NW 337 ° 0 min 0 W/m² 15,6 °C 18,4 °C 3,2 km/h (1 Bft)
22.08.2023 05:22 24,9 °C 18,4 °C 65 % 83 % 1019,1 hPa 0,0 l/m² 0,0 km/h (0 Bft) N 0 ° 0 min 0 W/m² 15,5 °C 18,4 °C 0,0 km/h (0 Bft)
22.08.2023 05:23 24,9 °C 18,4 °C 65 % 84 % 1019,1 hPa 0,0 l/m² 0,0 km/h (0 Bft) N 0 ° 0 min 0 W/m² 15,6 °C 18,4 °C 0,0 km/h (0 Bft)
22.08.2023 05:24 24,9 °C 18,3 °C 65 % 83 % 1019,0 hPa 0,0 l/m² 0,0 km/h (0 Bft) N 0 ° 0 min 0 W/m² 15,4 °C 18,3 °C 0,0 km/h (0 Bft)
22.08.2023 05:25 24,9 °C 18,3 °C 65 % 84 % 1018,9 hPa 0,0 l/m² 0,0 km/h (0 Bft) N 0 ° 0 min 0 W/m² 15,5 °C 18,3 °C 0,0 km/h (0 Bft)
22.08.2023 05:26 24,8 °C 18,2 °C 65 % 85 % 1018,9 hPa 0,0 l/m² 0,0 km/h (0 Bft) N 360 ° 0 min 0 W/m² 15,6 °C 18,2 °C 3,2 km/h (1 Bft)
22.08.2023 05:27 24,8 °C 18,1 °C 65 % 85 % 1018,9 hPa 0,0 l/m² 1,6 km/h (1 Bft) O-NO 67 ° 0 min 0 W/m² 15,5 °C 18,1 °C 1,6 km/h (1 Bft)
22.08.2023 05:28 24,8 °C 17,9 °C 65 % 86 % 1018,9 hPa 0,0 l/m² 0,0 km/h (0 Bft) N 0 ° 0 min 0 W/m² 15,5 °C 17,9 °C 0,0 km/h (0 Bft)
22.08.2023 05:29 24,8 °C 17,9 °C 65 % 86 % 1019,0 hPa 0,0 l/m² 0,0 km/h (0 Bft) N 0 ° 0 min 0 W/m² 15,5 °C 17,9 °C 0,0 km/h (0 Bft)
22.08.2023 05:30 24,8 °C 17,8 °C 65 % 87 % 1019,0 hPa 0,0 l/m² 0,0 km/h (0 Bft) N 0 ° 0 min 0 W/m² 15,6 °C 17,8 °C 0,0 km/h (0 Bft)
22.08.2023 05:31 24,8 °C 17,8 °C 65 % 87 % 1019,0 hPa 0,0 l/m² 0,0 km/h (0 Bft) N 0 ° 0 min 0 W/m² 15,6 °C 17,8 °C 0,0 km/h (0 Bft)
22.08.2023 05:32 24,8 °C 17,8 °C 65 % 87 % 1019,0 hPa 0,0 l/m² 0,0 km/h (0 Bft) N 0 ° 0 min 0 W/m² 15,6 °C 17,8 °C 0,0 km/h (0 Bft)
22.08.2023 05:33 24,8 °C 17,8 °C 65 % 86 % 1018,9 hPa 0,0 l/m² 0,0 km/h (0 Bft) N 0 ° 0 min 0 W/m² 15,4 °C 17,8 °C 0,0 km/h (0 Bft)
22.08.2023 05:34 24,8 °C 17,8 °C 65 % 86 % 1018,9 hPa 0,0 l/m² 0,0 km/h (0 Bft) N 0 ° 0 min 0 W/m² 15,4 °C 17,8 °C 0,0 km/h (0 Bft)
22.08.2023 05:35 24,8 °C 17,8 °C 65 % 86 % 1018,9 hPa 0,0 l/m² 0,0 km/h (0 Bft) O-NO 67 ° 0 min 0 W/m² 15,4 °C 17,8 °C 1,6 km/h (1 Bft)
22.08.2023 05:36 24,8 °C 17,8 °C 65 % 86 % 1018,9 hPa 0,0 l/m² 0,0 km/h (0 Bft) N 0 ° 0 min 0 W/m² 15,4 °C 17,8 °C 0,0 km/h (0 Bft)
22.08.2023 05:37 24,9 °C 17,8 °C 65 % 86 % 1018,9 hPa 0,0 l/m² 0,0 km/h (0 Bft) N 0 ° 0 min 0 W/m² 15,4 °C 17,8 °C 0,0 km/h (0 Bft)
22.08.2023 05:38 24,8 °C 17,8 °C 65 % 86 % 1018,8 hPa 0,0 l/m² 0,0 km/h (0 Bft) N 0 ° 0 min 0 W/m² 15,4 °C 17,8 °C 0,0 km/h (0 Bft)
22.08.2023 05:39 24,8 °C 17,8 °C 65 % 86 % 1018,9 hPa 0,0 l/m² 0,0 km/h (0 Bft) N 0 ° 0 min 0 W/m² 15,4 °C 17,8 °C 0,0 km/h (0 Bft)
22.08.2023 05:40 24,9 °C 17,8 °C 65 % 86 % 1018,9 hPa 0,0 l/m² 0,0 km/h (0 Bft) O-NO 67 ° 0 min 0 W/m² 15,4 °C 17,8 °C 1,6 km/h (1 Bft)
22.08.2023 05:41 24,8 °C 17,8 °C 65 % 86 % 1018,8 hPa 0,0 l/m² 0,0 km/h (0 Bft) N 0 ° 0 min 0 W/m² 15,4 °C 17,8 °C 0,0 km/h (0 Bft)
22.08.2023 05:42 24,8 °C 17,8 °C 65 % 86 % 1018,8 hPa 0,0 l/m² 0,0 km/h (0 Bft) N 0 ° 0 min 0 W/m² 15,4 °C 17,8 °C 0,0 km/h (0 Bft)
22.08.2023 05:43 24,8 °C 17,8 °C 65 % 85 % 1018,8 hPa 0,0 l/m² 0,0 km/h (0 Bft) N 0 ° 0 min 0 W/m² 15,2 °C 17,8 °C 0,0 km/h (0 Bft)
22.08.2023 05:44 24,8 °C 17,8 °C 65 % 86 % 1018,9 hPa 0,0 l/m² 0,0 km/h (0 Bft) N 0 ° 0 min 0 W/m² 15,4 °C 17,8 °C 0,0 km/h (0 Bft)
22.08.2023 05:45 24,8 °C 17,7 °C 65 % 86 % 1018,8 hPa 0,0 l/m² 0,0 km/h (0 Bft) N 0 ° 0 min 0 W/m² 15,3 °C 17,7 °C 0,0 km/h (0 Bft)
22.08.2023 05:46 24,8 °C 17,6 °C 65 % 86 % 1018,9 hPa 0,0 l/m² 0,0 km/h (0 Bft) N 0 ° 0 min 0 W/m² 15,2 °C 17,6 °C 0,0 km/h (0 Bft)
22.08.2023 05:47 24,8 °C 17,6 °C 65 % 86 % 1018,8 hPa 0,0 l/m² 0,0 km/h (0 Bft) NO 45 ° 0 min 0 W/m² 15,2 °C 17,6 °C 3,2 km/h (1 Bft)
22.08.2023 05:48 24,8 °C 17,6 °C 65 % 86 % 1018,8 hPa 0,0 l/m² 3,2 km/h (1 Bft) NO 45 ° 0 min 0 W/m² 15,2 °C 17,6 °C 4,8 km/h (1 Bft)
22.08.2023 05:49 24,8 °C 17,7 °C 65 % 86 % 1018,8 hPa 0,0 l/m² 3,2 km/h (1 Bft) N-NO 22 ° 0 min 0 W/m² 15,3 °C 17,7 °C 4,8 km/h (1 Bft)
22.08.2023 05:50 24,8 °C 17,7 °C 65 % 86 % 1018,9 hPa 0,0 l/m² 0,0 km/h (0 Bft) N-NO 22 ° 0 min 0 W/m² 15,3 °C 17,7 °C 1,6 km/h (1 Bft)
22.08.2023 05:51 24,8 °C 17,7 °C 65 % 86 % 1018,8 hPa 0,0 l/m² 0,0 km/h (0 Bft) N-NO 22 ° 0 min 0 W/m² 15,3 °C 17,7 °C 1,6 km/h (1 Bft)
22.08.2023 05:52 24,8 °C 17,7 °C 65 % 86 % 1018,8 hPa 0,0 l/m² 0,0 km/h (0 Bft) N 0 ° 0 min 0 W/m² 15,3 °C 17,7 °C 0,0 km/h (0 Bft)
22.08.2023 05:53 24,8 °C 17,7 °C 65 % 86 % 1018,7 hPa 0,0 l/m² 0,0 km/h (0 Bft) N 0 ° 0 min 0 W/m² 15,3 °C 17,7 °C 0,0 km/h (0 Bft)
22.08.2023 05:54 24,8 °C 17,7 °C 65 % 85 % 1018,8 hPa 0,0 l/m² 1,6 km/h (1 Bft) N-NO 22 ° 0 min 0 W/m² 15,1 °C 17,7 °C 3,2 km/h (1 Bft)
22.08.2023 05:55 24,8 °C 17,7 °C 65 % 85 % 1018,8 hPa 0,0 l/m² 0,0 km/h (0 Bft) N 0 ° 0 min 0 W/m² 15,1 °C 17,7 °C 0,0 km/h (0 Bft)
22.08.2023 05:56 24,8 °C 17,8 °C 65 % 85 % 1018,8 hPa 0,0 l/m² 0,0 km/h (0 Bft) N-NO 22 ° 0 min 0 W/m² 15,2 °C 17,8 °C 1,6 km/h (1 Bft)
22.08.2023 05:57 24,8 °C 17,7 °C 65 % 85 % 1018,8 hPa 0,0 l/m² 1,6 km/h (1 Bft) N-NO 22 ° 0 min 0 W/m² 15,1 °C 17,7 °C 1,6 km/h (1 Bft)
22.08.2023 05:58 24,8 °C 17,7 °C 65 % 85 % 1018,8 hPa 0,0 l/m² 1,6 km/h (1 Bft) N-NO 22 ° 0 min 0 W/m² 15,1 °C 17,7 °C 4,8 km/h (1 Bft)
22.08.2023 05:59 24,8 °C 17,7 °C 65 % 85 % 1018,7 hPa 0,0 l/m² 3,2 km/h (1 Bft) N-NO 22 ° 0 min 0 W/m² 15,1 °C 17,7 °C 4,8 km/h (1 Bft)
22.08.2023 06:00 24,8 °C 17,7 °C 65 % 85 % 1018,7 hPa 0,0 l/m² 3,2 km/h (1 Bft) N-NO 22 ° 0 min 0 W/m² 15,1 °C 17,7 °C 4,8 km/h (1 Bft)
22.08.2023 06:01 24,8 °C 17,7 °C 65 % 85 % 1018,8 hPa 0,0 l/m² 3,2 km/h (1 Bft) N-NO 22 ° 0 min 0 W/m² 15,1 °C 17,7 °C 4,8 km/h (1 Bft)
22.08.2023 06:02 24,8 °C 17,6 °C 65 % 85 % 1018,7 hPa 0,0 l/m² 3,2 km/h (1 Bft) N-NO 22 ° 0 min 0 W/m² 15,0 °C 17,6 °C 4,8 km/h (1 Bft)
22.08.2023 06:03 24,8 °C 17,6 °C 65 % 85 % 1018,7 hPa 0,0 l/m² 3,2 km/h (1 Bft) N-NO 22 ° 0 min 0 W/m² 15,0 °C 17,6 °C 4,8 km/h (1 Bft)
22.08.2023 06:04 24,8 °C 17,6 °C 65 % 85 % 1018,7 hPa 0,0 l/m² 1,6 km/h (1 Bft) N-NO 22 ° 0 min 0 W/m² 15,0 °C 17,6 °C 1,6 km/h (1 Bft)
22.08.2023 06:05 24,8 °C 17,6 °C 65 % 85 % 1018,8 hPa 0,0 l/m² 0,0 km/h (0 Bft) N-NO 22 ° 0 min 0 W/m² 15,0 °C 17,6 °C 1,6 km/h (1 Bft)
22.08.2023 06:06 24,8 °C 17,6 °C 65 % 85 % 1018,7 hPa 0,0 l/m² 0,0 km/h (0 Bft) N 0 ° 0 min 0 W/m² 15,0 °C 17,6 °C 0,0 km/h (0 Bft)
22.08.2023 06:07 24,8 °C 17,6 °C 65 % 85 % 1018,8 hPa 0,0 l/m² 0,0 km/h (0 Bft) N-NO 22 ° 0 min 0 W/m² 15,0 °C 17,6 °C 3,2 km/h (1 Bft)
22.08.2023 06:08 24,8 °C 17,6 °C 65 % 85 % 1018,7 hPa 0,0 l/m² 1,6 km/h (1 Bft) N-NO 22 ° 0 min 0 W/m² 15,0 °C 17,6 °C 4,8 km/h (1 Bft)
22.08.2023 06:09 24,8 °C 17,5 °C 65 % 85 % 1018,7 hPa 0,0 l/m² 3,2 km/h (1 Bft) N-NO 22 ° 0 min 0 W/m² 14,9 °C 17,5 °C 4,8 km/h (1 Bft)
22.08.2023 06:10 24,8 °C 17,5 °C 65 % 85 % 1018,7 hPa 0,0 l/m² 1,6 km/h (1 Bft) N-NO 22 ° 0 min 5 W/m² 14,9 °C 17,5 °C 3,2 km/h (1 Bft)
22.08.2023 06:11 24,8 °C 17,5 °C 65 % 85 % 1018,6 hPa 0,0 l/m² 3,2 km/h (1 Bft) N-NO 22 ° 0 min 5 W/m² 14,9 °C 17,5 °C 3,2 km/h (1 Bft)
22.08.2023 06:12 24,8 °C 17,4 °C 65 % 85 % 1018,6 hPa 0,0 l/m² 1,6 km/h (1 Bft) N-NO 22 ° 0 min 5 W/m² 14,8 °C 17,4 °C 3,2 km/h (1 Bft)
22.08.2023 06:13 24,8 °C 17,5 °C 65 % 85 % 1018,7 hPa 0,0 l/m² 0,0 km/h (0 Bft) N-NO 22 ° 0 min 5 W/m² 14,9 °C 17,5 °C 1,6 km/h (1 Bft)
22.08.2023 06:14 24,8 °C 17,4 °C 65 % 85 % 1018,6 hPa 0,0 l/m² 0,0 km/h (0 Bft) N 0 ° 0 min 5 W/m² 14,8 °C 17,4 °C 0,0 km/h (0 Bft)
22.08.2023 06:15 24,8 °C 17,4 °C 65 % 85 % 1018,6 hPa 0,0 l/m² 0,0 km/h (0 Bft) N 0 ° 0 min 5 W/m² 14,8 °C 17,4 °C 0,0 km/h (0 Bft)
22.08.2023 06:16 24,8 °C 17,4 °C 65 % 85 % 1018,6 hPa 0,0 l/m² 0,0 km/h (0 Bft) N 0 ° 0 min 7 W/m² 14,8 °C 17,4 °C 0,0 km/h (0 Bft)
22.08.2023 06:17 24,8 °C 17,4 °C 65 % 86 % 1018,6 hPa 0,0 l/m² 0,0 km/h (0 Bft) N 0 ° 0 min 7 W/m² 15,0 °C 17,4 °C 0,0 km/h (0 Bft)
22.08.2023 06:18 24,8 °C 17,3 °C 65 % 86 % 1018,6 hPa 0,0 l/m² 0,0 km/h (0 Bft) N 0 ° 0 min 7 W/m² 14,9 °C 17,3 °C 0,0 km/h (0 Bft)
22.08.2023 06:19 24,8 °C 17,2 °C 64 % 87 % 1018,6 hPa 0,0 l/m² 0,0 km/h (0 Bft) N 0 ° 0 min 7 W/m² 15,0 °C 17,2 °C 0,0 km/h (0 Bft)
22.08.2023 06:20 24,8 °C 17,2 °C 64 % 88 % 1018,6 hPa 0,0 l/m² 0,0 km/h (0 Bft) N 0 ° 0 min 9 W/m² 15,2 °C 17,2 °C 0,0 km/h (0 Bft)
22.08.2023 06:21 24,8 °C 17,1 °C 63 % 88 % 1018,6 hPa 0,0 l/m² 0,0 km/h (0 Bft) N 0 ° 0 min 11 W/m² 15,1 °C 17,1 °C 0,0 km/h (0 Bft)
22.08.2023 06:22 24,8 °C 17,1 °C 63 % 88 % 1018,6 hPa 0,0 l/m² 0,0 km/h (0 Bft) N 0 ° 0 min 11 W/m² 15,1 °C 17,1 °C 0,0 km/h (0 Bft)
22.08.2023 06:23 24,8 °C 17,1 °C 63 % 88 % 1018,6 hPa 0,0 l/m² 0,0 km/h (0 Bft) N 0 ° 0 min 11 W/m² 15,1 °C 17,1 °C 0,0 km/h (0 Bft)
22.08.2023 06:24 24,8 °C 17,0 °C 63 % 88 % 1018,6 hPa 0,0 l/m² 0,0 km/h (0 Bft) N 0 ° 0 min 12 W/m² 15,0 °C 17,0 °C 0,0 km/h (0 Bft)
22.08.2023 06:25 24,8 °C 16,9 °C 62 % 88 % 1018,7 hPa 0,0 l/m² 0,0 km/h (0 Bft) N 0 ° 0 min 12 W/m² 14,9 °C 16,9 °C 0,0 km/h (0 Bft)
22.08.2023 06:26 24,8 °C 17,0 °C 62 % 88 % 1018,7 hPa 0,0 l/m² 0,0 km/h (0 Bft) N-NO 22 ° 0 min 14 W/m² 15,0 °C 17,0 °C 1,6 km/h (1 Bft)
22.08.2023 06:27 24,8 °C 17,0 °C 62 % 88 % 1018,7 hPa 0,0 l/m² 0,0 km/h (0 Bft) N-NO 22 ° 0 min 14 W/m² 15,0 °C 17,0 °C 1,6 km/h (1 Bft)
22.08.2023 06:28 24,8 °C 17,1 °C 62 % 88 % 1018,7 hPa 0,0 l/m² 1,6 km/h (1 Bft) N-NO 22 ° 0 min 16 W/m² 15,1 °C 17,1 °C 4,8 km/h (1 Bft)
22.08.2023 06:29 24,8 °C 17,1 °C 62 % 88 % 1018,7 hPa 0,0 l/m² 1,6 km/h (1 Bft) N-NO 22 ° 0 min 16 W/m² 15,1 °C 17,1 °C 4,8 km/h (1 Bft)
22.08.2023 06:30 24,7 °C 17,2 °C 62 % 88 % 1018,7 hPa 0,0 l/m² 0,0 km/h (0 Bft) N-NO 22 ° 0 min 16 W/m² 15,2 °C 17,2 °C 3,2 km/h (1 Bft)
22.08.2023 06:31 24,7 °C 17,2 °C 62 % 87 % 1018,8 hPa 0,0 l/m² 1,6 km/h (1 Bft) N-NO 22 ° 0 min 16 W/m² 15,0 °C 17,2 °C 3,2 km/h (1 Bft)
22.08.2023 06:32 24,7 °C 17,3 °C 61 % 87 % 1018,8 hPa 0,0 l/m² 0,0 km/h (0 Bft) N-NO 22 ° 0 min 16 W/m² 15,1 °C 17,3 °C 1,6 km/h (1 Bft)
22.08.2023 06:33 24,7 °C 17,3 °C 61 % 87 % 1018,7 hPa 0,0 l/m² 1,6 km/h (1 Bft) N-NO 22 ° 0 min 18 W/m² 15,1 °C 17,3 °C 1,6 km/h (1 Bft)
22.08.2023 06:34 24,7 °C 17,3 °C 61 % 87 % 1018,6 hPa 0,0 l/m² 0,0 km/h (0 Bft) N-NO 22 ° 0 min 18 W/m² 15,1 °C 17,3 °C 3,2 km/h (1 Bft)
22.08.2023 06:35 24,7 °C 17,4 °C 61 % 86 % 1018,6 hPa 0,0 l/m² 3,2 km/h (1 Bft) N-NO 22 ° 0 min 18 W/m² 15,0 °C 17,4 °C 4,8 km/h (1 Bft)
22.08.2023 06:36 24,7 °C 17,4 °C 61 % 86 % 1018,5 hPa 0,0 l/m² 3,2 km/h (1 Bft) N-NO 22 ° 0 min 19 W/m² 15,0 °C 17,4 °C 4,8 km/h (1 Bft)
22.08.2023 06:37 24,7 °C 17,4 °C 61 % 86 % 1018,6 hPa 0,0 l/m² 1,6 km/h (1 Bft) N-NO 22 ° 0 min 19 W/m² 15,0 °C 17,4 °C 3,2 km/h (1 Bft)
22.08.2023 06:38 24,7 °C 17,4 °C 61 % 86 % 1018,6 hPa 0,0 l/m² 1,6 km/h (1 Bft) N-NO 22 ° 0 min 19 W/m² 15,0 °C 17,4 °C 3,2 km/h (1 Bft)
22.08.2023 06:39 24,7 °C 17,4 °C 61 % 86 % 1018,5 hPa 0,0 l/m² 3,2 km/h (1 Bft) N-NO 22 ° 0 min 21 W/m² 15,0 °C 17,4 °C 3,2 km/h (1 Bft)
22.08.2023 06:40 24,7 °C 17,5 °C 61 % 85 % 1018,6 hPa 0,0 l/m² 0,0 km/h (0 Bft) N-NO 22 ° 0 min 21 W/m² 14,9 °C 17,5 °C 1,6 km/h (1 Bft)
22.08.2023 06:41 24,7 °C 17,5 °C 61 % 85 % 1018,6 hPa 0,0 l/m² 0,0 km/h (0 Bft) N-NO 22 ° 0 min 21 W/m² 14,9 °C 17,5 °C 1,6 km/h (1 Bft)
22.08.2023 06:42 24,7 °C 17,5 °C 61 % 85 % 1018,6 hPa 0,0 l/m² 0,0 km/h (0 Bft) N-NO 22 ° 0 min 21 W/m² 14,9 °C 17,5 °C 3,2 km/h (1 Bft)
22.08.2023 06:43 24,7 °C 17,5 °C 61 % 85 % 1018,6 hPa 0,0 l/m² 0,0 km/h (0 Bft) N-NO 22 ° 0 min 23 W/m² 14,9 °C 17,5 °C 4,8 km/h (1 Bft)
22.08.2023 06:44 24,7 °C 17,6 °C 61 % 85 % 1018,6 hPa 0,0 l/m² 1,6 km/h (1 Bft) N-NO 22 ° 0 min 23 W/m² 15,0 °C 17,6 °C 3,2 km/h (1 Bft)
22.08.2023 06:45 24,7 °C 17,6 °C 61 % 85 % 1018,6 hPa 0,0 l/m² 1,6 km/h (1 Bft) N-NO 22 ° 0 min 25 W/m² 15,0 °C 17,6 °C 3,2 km/h (1 Bft)
22.08.2023 06:46 24,7 °C 17,6 °C 60 % 85 % 1018,6 hPa 0,0 l/m² 1,6 km/h (1 Bft) N-NO 22 ° 0 min 25 W/m² 15,0 °C 17,6 °C 4,8 km/h (1 Bft)
22.08.2023 06:47 24,7 °C 17,6 °C 60 % 85 % 1018,6 hPa 0,0 l/m² 3,2 km/h (1 Bft) N-NO 22 ° 0 min 26 W/m² 15,0 °C 17,6 °C 3,2 km/h (1 Bft)
22.08.2023 06:48 24,7 °C 17,7 °C 60 % 84 % 1018,6 hPa 0,0 l/m² 0,0 km/h (0 Bft) N-NO 22 ° 0 min 26 W/m² 15,0 °C 17,7 °C 1,6 km/h (1 Bft)
22.08.2023 06:49 24,7 °C 17,7 °C 60 % 84 % 1018,6 hPa 0,0 l/m² 0,0 km/h (0 Bft) N 0 ° 0 min 26 W/m² 15,0 °C 17,7 °C 0,0 km/h (0 Bft)
22.08.2023 06:50 24,6 °C 17,7 °C 60 % 85 % 1018,6 hPa 0,0 l/m² 0,0 km/h (0 Bft) N 0 ° 0 min 28 W/m² 15,1 °C 17,7 °C 0,0 km/h (0 Bft)
22.08.2023 06:51 24,6 °C 17,7 °C 59 % 85 % 1018,6 hPa 0,0 l/m² 0,0 km/h (0 Bft) N 0 ° 0 min 28 W/m² 15,1 °C 17,7 °C 0,0 km/h (0 Bft)
22.08.2023 06:52 24,7 °C 17,7 °C 59 % 85 % 1018,5 hPa 0,0 l/m² 0,0 km/h (0 Bft) N 0 ° 0 min 28 W/m² 15,1 °C 17,7 °C 0,0 km/h (0 Bft)
22.08.2023 06:53 24,6 °C 17,7 °C 59 % 85 % 1018,5 hPa 0,0 l/m² 0,0 km/h (0 Bft) N 0 ° 0 min 30 W/m² 15,1 °C 17,7 °C 0,0 km/h (0 Bft)
22.08.2023 06:54 24,6 °C 17,6 °C 59 % 86 % 1018,6 hPa 0,0 l/m² 0,0 km/h (0 Bft) N 0 ° 0 min 30 W/m² 15,2 °C 17,6 °C 0,0 km/h (0 Bft)
22.08.2023 06:55 24,6 °C 17,6 °C 59 % 86 % 1018,5 hPa 0,0 l/m² 0,0 km/h (0 Bft) N 0 ° 0 min 30 W/m² 15,2 °C 17,6 °C 0,0 km/h (0 Bft)
22.08.2023 06:56 24,6 °C 17,6 °C 59 % 86 % 1018,5 hPa 0,0 l/m² 0,0 km/h (0 Bft) N 0 ° 0 min 32 W/m² 15,2 °C 17,6 °C 0,0 km/h (0 Bft)
22.08.2023 06:57 24,6 °C 17,6 °C 59 % 86 % 1018,6 hPa 0,0 l/m² 0,0 km/h (0 Bft) N 0 ° 0 min 32 W/m² 15,2 °C 17,6 °C 0,0 km/h (0 Bft)
22.08.2023 06:58 24,6 °C 17,7 °C 59 % 85 % 1018,5 hPa 0,0 l/m² 0,0 km/h (0 Bft) N-NO 22 ° 0 min 33 W/m² 15,1 °C 17,7 °C 1,6 km/h (1 Bft)
22.08.2023 06:59 24,6 °C 17,7 °C 59 % 85 % 1018,5 hPa 0,0 l/m² 0,0 km/h (0 Bft) N 0 ° 0 min 33 W/m² 15,1 °C 17,7 °C 0,0 km/h (0 Bft)
22.08.2023 07:00 24,6 °C 17,8 °C 59 % 85 % 1018,5 hPa 0,0 l/m² 0,0 km/h (0 Bft) N 0 ° 0 min 33 W/m² 15,2 °C 17,8 °C 0,0 km/h (0 Bft)
22.08.2023 07:01 24,6 °C 17,8 °C 59 % 85 % 1018,5 hPa 0,0 l/m² 0,0 km/h (0 Bft) N 0 ° 0 min 35 W/m² 15,2 °C 17,8 °C 0,0 km/h (0 Bft)
22.08.2023 07:02 24,6 °C 17,8 °C 59 % 85 % 1018,5 hPa 0,0 l/m² 0,0 km/h (0 Bft) N 0 ° 0 min 35 W/m² 15,2 °C 17,8 °C 0,0 km/h (0 Bft)
22.08.2023 07:03 24,6 °C 17,8 °C 59 % 84 % 1018,4 hPa 0,0 l/m² 0,0 km/h (0 Bft) N 0 ° 0 min 35 W/m² 15,1 °C 17,8 °C 0,0 km/h (0 Bft)
22.08.2023 07:04 24,6 °C 17,9 °C 59 % 84 % 1018,5 hPa 0,0 l/m² 0,0 km/h (0 Bft) N-NO 22 ° 0 min 37 W/m² 15,2 °C 17,9 °C 1,6 km/h (1 Bft)
22.08.2023 07:05 24,6 °C 17,9 °C 59 % 84 % 1018,5 hPa 0,0 l/m² 0,0 km/h (0 Bft) N-NO 22 ° 0 min 37 W/m² 15,2 °C 17,9 °C 1,6 km/h (1 Bft)
22.08.2023 07:06 24,6 °C 18,0 °C 59 % 84 % 1018,4 hPa 0,0 l/m² 0,0 km/h (0 Bft) N 0 ° 0 min 39 W/m² 15,3 °C 18,0 °C 0,0 km/h (0 Bft)
22.08.2023 07:07 24,6 °C 18,0 °C 59 % 84 % 1018,5 hPa 0,0 l/m² 0,0 km/h (0 Bft) N-NO 22 ° 0 min 39 W/m² 15,3 °C 18,0 °C 1,6 km/h (1 Bft)
22.08.2023 07:08 24,6 °C 18,1 °C 59 % 84 % 1018,6 hPa 0,0 l/m² 3,2 km/h (1 Bft) N-NO 22 ° 0 min 40 W/m² 15,4 °C 18,1 °C 3,2 km/h (1 Bft)
22.08.2023 07:09 24,5 °C 18,1 °C 59 % 84 % 1018,5 hPa 0,0 l/m² 1,6 km/h (1 Bft) N-NO 22 ° 0 min 42 W/m² 15,4 °C 18,1 °C 3,2 km/h (1 Bft)
22.08.2023 07:10 24,6 °C 18,2 °C 59 % 84 % 1018,5 hPa 0,0 l/m² 1,6 km/h (1 Bft) N-NO 22 ° 0 min 42 W/m² 15,4 °C 18,2 °C 3,2 km/h (1 Bft)
22.08.2023 07:11 24,5 °C 18,2 °C 59 % 84 % 1018,5 hPa 0,0 l/m² 3,2 km/h (1 Bft) N 360 ° 0 min 44 W/m² 15,4 °C 18,2 °C 6,4 km/h (2 Bft)
22.08.2023 07:12 24,5 °C 18,3 °C 59 % 83 % 1018,5 hPa 0,0 l/m² 1,6 km/h (1 Bft) N 360 ° 0 min 46 W/m² 15,4 °C 18,3 °C 4,8 km/h (1 Bft)
22.08.2023 07:13 24,5 °C 18,3 °C 59 % 83 % 1018,5 hPa 0,0 l/m² 1,6 km/h (1 Bft) N 360 ° 0 min 47 W/m² 15,4 °C 18,3 °C 4,8 km/h (1 Bft)
22.08.2023 07:14 24,5 °C 18,4 °C 59 % 83 % 1018,5 hPa 0,0 l/m² 0,0 km/h (0 Bft) N 360 ° 0 min 49 W/m² 15,5 °C 18,4 °C 1,6 km/h (1 Bft)
22.08.2023 07:15 24,5 °C 18,4 °C 59 % 83 % 1018,5 hPa 0,0 l/m² 1,6 km/h (1 Bft) N 360 ° 0 min 51 W/m² 15,5 °C 18,4 °C 4,8 km/h (1 Bft)
22.08.2023 07:16 24,6 °C 18,4 °C 59 % 84 % 1018,5 hPa 0,0 l/m² 3,2 km/h (1 Bft) N 360 ° 1 min 53 W/m² 15,6 °C 18,4 °C 4,8 km/h (1 Bft)
22.08.2023 07:17 24,6 °C 18,4 °C 59 % 84 % 1018,6 hPa 0,0 l/m² 3,2 km/h (1 Bft) N 360 ° 1 min 56 W/m² 15,6 °C 18,4 °C 4,8 km/h (1 Bft)
22.08.2023 07:18 24,5 °C 18,5 °C 59 % 84 % 1018,5 hPa 0,0 l/m² 1,6 km/h (1 Bft) N 360 ° 1 min 62 W/m² 15,7 °C 18,5 °C 3,2 km/h (1 Bft)
22.08.2023 07:19 24,5 °C 18,5 °C 59 % 84 % 1018,5 hPa 0,0 l/m² 1,6 km/h (1 Bft) N 360 ° 1 min 67 W/m² 15,7 °C 18,5 °C 4,8 km/h (1 Bft)
22.08.2023 07:20 24,5 °C 18,6 °C 59 % 84 % 1018,6 hPa 0,0 l/m² 0,0 km/h (0 Bft) N 360 ° 1 min 69 W/m² 15,8 °C 18,6 °C 1,6 km/h (1 Bft)
22.08.2023 07:21 24,5 °C 18,6 °C 59 % 84 % 1018,5 hPa 0,0 l/m² 0,0 km/h (0 Bft) N 360 ° 1 min 72 W/m² 15,8 °C 18,6 °C 1,6 km/h (1 Bft)
22.08.2023 07:22 24,5 °C 18,6 °C 60 % 84 % 1018,5 hPa 0,0 l/m² 0,0 km/h (0 Bft) N 360 ° 1 min 79 W/m² 15,8 °C 18,6 °C 1,6 km/h (1 Bft)
22.08.2023 07:23 24,5 °C 18,6 °C 60 % 83 % 1018,6 hPa 0,0 l/m² 1,6 km/h (1 Bft) N 360 ° 1 min 95 W/m² 15,7 °C 18,6 °C 4,8 km/h (1 Bft)
22.08.2023 07:24 24,5 °C 18,7 °C 60 % 83 % 1018,5 hPa 0,0 l/m² 1,6 km/h (1 Bft) N 360 ° 1 min 113 W/m² 15,8 °C 18,7 °C 3,2 km/h (1 Bft)
22.08.2023 07:25 24,5 °C 18,7 °C 60 % 83 % 1018,5 hPa 0,0 l/m² 0,0 km/h (0 Bft) N 360 ° 1 min 123 W/m² 15,8 °C 18,7 °C 1,6 km/h (1 Bft)
22.08.2023 07:26 24,5 °C 18,8 °C 60 % 83 % 1018,5 hPa 0,0 l/m² 1,6 km/h (1 Bft) N 360 ° 1 min 132 W/m² 15,8 °C 18,8 °C 3,2 km/h (1 Bft)
22.08.2023 07:27 24,5 °C 18,8 °C 60 % 83 % 1018,5 hPa 0,0 l/m² 0,0 km/h (0 Bft) N 360 ° 1 min 130 W/m² 15,8 °C 18,8 °C 1,6 km/h (1 Bft)
22.08.2023 07:28 24,5 °C 18,9 °C 60 % 83 % 1018,6 hPa 0,0 l/m² 0,0 km/h (0 Bft) N 360 ° 1 min 128 W/m² 15,9 °C 18,9 °C 1,6 km/h (1 Bft)
22.08.2023 07:29 24,5 °C 18,9 °C 60 % 83 % 1018,5 hPa 0,0 l/m² 1,6 km/h (1 Bft) N 360 ° 1 min 141 W/m² 15,9 °C 18,9 °C 1,6 km/h (1 Bft)
22.08.2023 07:30 24,5 °C 18,9 °C 60 % 82 % 1018,4 hPa 0,0 l/m² 1,6 km/h (1 Bft) N 360 ° 1 min 153 W/m² 15,8 °C 18,9 °C 3,2 km/h (1 Bft)
22.08.2023 07:31 24,5 °C 19,0 °C 60 % 81 % 1018,5 hPa 0,0 l/m² 0,0 km/h (0 Bft) N 360 ° 1 min 155 W/m² 15,7 °C 19,0 °C 1,6 km/h (1 Bft)
22.08.2023 07:32 24,5 °C 19,0 °C 60 % 81 % 1018,5 hPa 0,0 l/m² 0,0 km/h (0 Bft) N 0 ° 1 min 160 W/m² 15,7 °C 19,0 °C 0,0 km/h (0 Bft)
22.08.2023 07:33 24,5 °C 19,1 °C 60 % 81 % 1018,5 hPa 0,0 l/m² 0,0 km/h (0 Bft) N 0 ° 1 min 158 W/m² 15,8 °C 19,1 °C 0,0 km/h (0 Bft)
22.08.2023 07:34 24,6 °C 19,2 °C 60 % 81 % 1018,5 hPa 0,0 l/m² 0,0 km/h (0 Bft) N 0 ° 1 min 155 W/m² 15,9 °C 19,2 °C 0,0 km/h (0 Bft)
22.08.2023 07:35 24,5 °C 19,2 °C 60 % 81 % 1018,5 hPa 0,0 l/m² 0,0 km/h (0 Bft) N 0 ° 1 min 121 W/m² 15,9 °C 19,2 °C 0,0 km/h (0 Bft)
22.08.2023 07:36 24,6 °C 19,2 °C 60 % 81 % 1018,5 hPa 0,0 l/m² 0,0 km/h (0 Bft) N 0 ° 1 min 134 W/m² 15,9 °C 19,2 °C 0,0 km/h (0 Bft)
22.08.2023 07:37 24,5 °C 19,3 °C 60 % 80 % 1018,6 hPa 0,0 l/m² 0,0 km/h (0 Bft) N 0 ° 1 min 160 W/m² 15,8 °C 19,3 °C 0,0 km/h (0 Bft)
22.08.2023 07:38 24,6 °C 19,3 °C 60 % 81 % 1018,5 hPa 0,0 l/m² 0,0 km/h (0 Bft) N 0 ° 1 min 162 W/m² 16,0 °C 19,3 °C 0,0 km/h (0 Bft)
22.08.2023 07:39 24,5 °C 19,4 °C 60 % 82 % 1018,5 hPa 0,0 l/m² 0,0 km/h (0 Bft) N 0 ° 1 min 153 W/m² 16,2 °C 19,4 °C 0,0 km/h (0 Bft)
22.08.2023 07:40 24,5 °C 19,4 °C 60 % 81 % 1018,5 hPa 0,0 l/m² 0,0 km/h (0 Bft) N 0 ° 1 min 172 W/m² 16,1 °C 19,4 °C 0,0 km/h (0 Bft)
22.08.2023 07:41 24,6 °C 19,5 °C 60 % 80 % 1018,5 hPa 0,0 l/m² 0,0 km/h (0 Bft) N 0 ° 1 min 162 W/m² 16,0 °C 19,5 °C 0,0 km/h (0 Bft)
22.08.2023 07:42 24,5 °C 19,6 °C 60 % 80 % 1018,5 hPa 0,0 l/m² 0,0 km/h (0 Bft) N 360 ° 1 min 176 W/m² 16,1 °C 19,6 °C 1,6 km/h (1 Bft)
22.08.2023 07:43 24,5 °C 19,6 °C 60 % 79 % 1018,4 hPa 0,0 l/m² 0,0 km/h (0 Bft) N 360 ° 1 min 125 W/m² 15,9 °C 19,6 °C 1,6 km/h (1 Bft)
22.08.2023 07:44 24,6 °C 19,7 °C 60 % 79 % 1018,4 hPa 0,0 l/m² 1,6 km/h (1 Bft) N 360 ° 1 min 93 W/m² 16,0 °C 19,7 °C 4,8 km/h (1 Bft)
22.08.2023 07:45 24,5 °C 19,7 °C 60 % 79 % 1018,4 hPa 0,0 l/m² 0,0 km/h (0 Bft) N 360 ° 1 min 86 W/m² 16,0 °C 19,7 °C 3,2 km/h (1 Bft)
22.08.2023 07:46 24,5 °C 19,7 °C 60 % 78 % 1018,5 hPa 0,0 l/m² 0,0 km/h (0 Bft) N 0 ° 1 min 81 W/m² 15,8 °C 19,7 °C 0,0 km/h (0 Bft)
22.08.2023 07:47 24,5 °C 19,7 °C 60 % 79 % 1018,5 hPa 0,0 l/m² 0,0 km/h (0 Bft) N 0 ° 1 min 76 W/m² 16,0 °C 19,7 °C 0,0 km/h (0 Bft)
22.08.2023 07:48 24,6 °C 19,8 °C 60 % 79 % 1018,5 hPa 0,0 l/m² 0,0 km/h (0 Bft) N 360 ° 1 min 70 W/m² 16,0 °C 19,8 °C 1,6 km/h (1 Bft)
22.08.2023 07:49 24,5 °C 19,8 °C 60 % 79 % 1018,4 hPa 0,0 l/m² 0,0 km/h (0 Bft) N 360 ° 1 min 69 W/m² 16,0 °C 19,8 °C 1,6 km/h (1 Bft)
22.08.2023 07:50 24,5 °C 19,8 °C 60 % 79 % 1018,5 hPa 0,0 l/m² 0,0 km/h (0 Bft) N 360 ° 1 min 63 W/m² 16,0 °C 19,8 °C 1,6 km/h (1 Bft)
22.08.2023 07:51 24,6 °C 19,8 °C 60 % 79 % 1018,5 hPa 0,0 l/m² 1,6 km/h (1 Bft) N 360 ° 1 min 65 W/m² 16,0 °C 19,8 °C 1,6 km/h (1 Bft)
22.08.2023 07:52 24,5 °C 19,8 °C 60 % 79 % 1018,4 hPa 0,0 l/m² 1,6 km/h (1 Bft) N 360 ° 1 min 69 W/m² 16,0 °C 19,8 °C 3,2 km/h (1 Bft)
22.08.2023 07:53 24,5 °C 19,8 °C 60 % 79 % 1018,4 hPa 0,0 l/m² 0,0 km/h (0 Bft) N 360 ° 1 min 67 W/m² 16,0 °C 19,8 °C 3,2 km/h (1 Bft)
22.08.2023 07:54 24,5 °C 19,8 °C 60 % 79 % 1018,4 hPa 0,0 l/m² 1,6 km/h (1 Bft) N 360 ° 1 min 67 W/m² 16,0 °C 19,8 °C 3,2 km/h (1 Bft)
22.08.2023 07:55 24,6 °C 19,8 °C 61 % 79 % 1018,4 hPa 0,0 l/m² 4,8 km/h (1 Bft) N 360 ° 1 min 70 W/m² 16,0 °C 19,8 °C 4,8 km/h (1 Bft)
22.08.2023 07:56 24,5 °C 19,8 °C 61 % 79 % 1018,4 hPa 0,0 l/m² 3,2 km/h (1 Bft) N 360 ° 1 min 67 W/m² 16,0 °C 19,8 °C 4,8 km/h (1 Bft)
22.08.2023 07:57 24,6 °C 19,8 °C 61 % 79 % 1018,3 hPa 0,0 l/m² 1,6 km/h (1 Bft) N 360 ° 1 min 65 W/m² 16,0 °C 19,8 °C 3,2 km/h (1 Bft)
22.08.2023 07:58 24,6 °C 19,8 °C 61 % 80 % 1018,4 hPa 0,0 l/m² 3,2 km/h (1 Bft) N 360 ° 1 min 63 W/m² 16,2 °C 19,8 °C 4,8 km/h (1 Bft)
22.08.2023 07:59 24,6 °C 19,7 °C 61 % 80 % 1018,5 hPa 0,0 l/m² 3,2 km/h (1 Bft) N 360 ° 1 min 63 W/m² 16,1 °C 19,7 °C 3,2 km/h (1 Bft)
22.08.2023 08:00 24,5 °C 19,7 °C 61 % 80 % 1018,4 hPa 0,0 l/m² 1,6 km/h (1 Bft) N 360 ° 1 min 63 W/m² 16,1 °C 19,7 °C 4,8 km/h (1 Bft)
22.08.2023 08:01 24,6 °C 19,7 °C 61 % 80 % 1018,4 hPa 0,0 l/m² 4,8 km/h (1 Bft) N 360 ° 1 min 70 W/m² 16,1 °C 19,7 °C 4,8 km/h (1 Bft)
22.08.2023 08:02 24,6 °C 19,7 °C 61 % 80 % 1018,5 hPa 0,0 l/m² 3,2 km/h (1 Bft) N 360 ° 1 min 97 W/m² 16,1 °C 19,7 °C 6,4 km/h (2 Bft)
22.08.2023 08:03 24,6 °C 19,7 °C 61 % 80 % 1018,5 hPa 0,0 l/m² 1,6 km/h (1 Bft) W-NW 292 ° 1 min 185 W/m² 16,1 °C 19,7 °C 3,2 km/h (1 Bft)
22.08.2023 08:04 24,5 °C 19,7 °C 61 % 80 % 1018,4 hPa 0,0 l/m² 1,6 km/h (1 Bft) W 270 ° 1 min 195 W/m² 16,1 °C 19,7 °C 4,8 km/h (1 Bft)
22.08.2023 08:05 24,6 °C 19,7 °C 61 % 81 % 1018,5 hPa 0,0 l/m² 1,6 km/h (1 Bft) W 270 ° 1 min 193 W/m² 16,3 °C 19,7 °C 3,2 km/h (1 Bft)
22.08.2023 08:06 24,6 °C 19,8 °C 61 % 81 % 1018,5 hPa 0,0 l/m² 1,6 km/h (1 Bft) W 270 ° 1 min 199 W/m² 16,4 °C 19,8 °C 6,4 km/h (2 Bft)
22.08.2023 08:07 24,6 °C 19,8 °C 61 % 81 % 1018,6 hPa 0,0 l/m² 1,6 km/h (1 Bft) W 270 ° 1 min 199 W/m² 16,4 °C 19,8 °C 4,8 km/h (1 Bft)
22.08.2023 08:08 24,6 °C 19,8 °C 61 % 82 % 1018,6 hPa 0,0 l/m² 1,6 km/h (1 Bft) W 270 ° 1 min 195 W/m² 16,6 °C 19,8 °C 4,8 km/h (1 Bft)
22.08.2023 08:09 24,6 °C 19,8 °C 61 % 81 % 1018,5 hPa 0,0 l/m² 3,2 km/h (1 Bft) W 270 ° 1 min 195 W/m² 16,4 °C 19,8 °C 4,8 km/h (1 Bft)
22.08.2023 08:10 24,6 °C 19,9 °C 61 % 81 % 1018,5 hPa 0,0 l/m² 0,0 km/h (0 Bft) W 270 ° 1 min 206 W/m² 16,5 °C 19,9 °C 1,6 km/h (1 Bft)
22.08.2023 08:11 24,6 °C 19,9 °C 61 % 81 % 1018,5 hPa 0,0 l/m² 1,6 km/h (1 Bft) W 270 ° 1 min 206 W/m² 16,5 °C 19,9 °C 4,8 km/h (1 Bft)
22.08.2023 08:12 24,6 °C 19,9 °C 61 % 81 % 1018,5 hPa 0,0 l/m² 4,8 km/h (1 Bft) W-NW 292 ° 1 min 206 W/m² 16,5 °C 19,9 °C 6,4 km/h (2 Bft)
22.08.2023 08:13 24,6 °C 20,1 °C 61 % 81 % 1018,5 hPa 0,0 l/m² 1,6 km/h (1 Bft) W-NW 292 ° 1 min 213 W/m² 16,7 °C 20,1 °C 3,2 km/h (1 Bft)
22.08.2023 08:14 24,6 °C 20,1 °C 61 % 81 % 1018,5 hPa 0,0 l/m² 0,0 km/h (0 Bft) W-NW 292 ° 1 min 213 W/m² 16,7 °C 20,1 °C 3,2 km/h (1 Bft)
22.08.2023 08:15 24,6 °C 20,2 °C 61 % 81 % 1018,5 hPa 0,0 l/m² 3,2 km/h (1 Bft) W-NW 292 ° 1 min 213 W/m² 16,8 °C 20,2 °C 9,7 km/h (2 Bft)
22.08.2023 08:16 24,6 °C 20,3 °C 61 % 80 % 1018,5 hPa 0,0 l/m² 3,2 km/h (1 Bft) W 270 ° 1 min 211 W/m² 16,7 °C 20,3 °C 6,4 km/h (2 Bft)
22.08.2023 08:17 24,6 °C 20,3 °C 61 % 80 % 1018,5 hPa 0,0 l/m² 3,2 km/h (1 Bft) W 270 ° 1 min 207 W/m² 16,7 °C 20,3 °C 4,8 km/h (1 Bft)
22.08.2023 08:18 24,6 °C 20,3 °C 61 % 80 % 1018,5 hPa 0,0 l/m² 0,0 km/h (0 Bft) W-NW 292 ° 1 min 172 W/m² 16,7 °C 20,3 °C 1,6 km/h (1 Bft)
22.08.2023 08:19 24,6 °C 20,3 °C 61 % 80 % 1018,5 hPa 0,0 l/m² 3,2 km/h (1 Bft) NW 315 ° 1 min 227 W/m² 16,7 °C 20,3 °C 6,4 km/h (2 Bft)
22.08.2023 08:20 24,6 °C 20,4 °C 61 % 80 % 1018,5 hPa 0,0 l/m² 0,0 km/h (0 Bft) NW 315 ° 1 min 237 W/m² 16,8 °C 20,4 °C 1,6 km/h (1 Bft)
22.08.2023 08:21 24,6 °C 20,5 °C 61 % 80 % 1018,5 hPa 0,0 l/m² 1,6 km/h (1 Bft) NW 315 ° 1 min 246 W/m² 16,9 °C 20,5 °C 4,8 km/h (1 Bft)
22.08.2023 08:22 24,6 °C 20,6 °C 61 % 81 % 1018,5 hPa 0,0 l/m² 3,2 km/h (1 Bft) NW 315 ° 1 min 251 W/m² 17,2 °C 20,6 °C 9,7 km/h (2 Bft)
22.08.2023 08:23 24,6 °C 20,7 °C 61 % 79 % 1018,5 hPa 0,0 l/m² 3,2 km/h (1 Bft) W-NW 292 ° 1 min 251 W/m² 16,9 °C 20,7 °C 8,0 km/h (2 Bft)
22.08.2023 08:24 24,6 °C 20,7 °C 61 % 79 % 1018,5 hPa 0,0 l/m² 1,6 km/h (1 Bft) W-NW 292 ° 1 min 265 W/m² 16,9 °C 20,7 °C 3,2 km/h (1 Bft)
22.08.2023 08:25 24,6 °C 20,7 °C 61 % 78 % 1018,5 hPa 0,0 l/m² 3,2 km/h (1 Bft) NW 315 ° 1 min 264 W/m² 16,7 °C 20,7 °C 6,4 km/h (2 Bft)
22.08.2023 08:26 24,6 °C 20,8 °C 61 % 79 % 1018,5 hPa 0,0 l/m² 8,0 km/h (2 Bft) NW 315 ° 1 min 264 W/m² 17,0 °C 20,2 °C 12,9 km/h (3 Bft)
22.08.2023 08:27 24,6 °C 20,7 °C 61 % 79 % 1018,5 hPa 0,0 l/m² 8,0 km/h (2 Bft) NW 315 ° 1 min 262 W/m² 16,9 °C 20,1 °C 11,3 km/h (2 Bft)
22.08.2023 08:28 24,6 °C 20,8 °C 61 % 79 % 1018,5 hPa 0,0 l/m² 4,8 km/h (1 Bft) NW 315 ° 1 min 163 W/m² 17,0 °C 20,8 °C 8,0 km/h (2 Bft)
22.08.2023 08:29 24,6 °C 20,8 °C 61 % 79 % 1018,4 hPa 0,0 l/m² 3,2 km/h (1 Bft) W-NW 292 ° 1 min 250 W/m² 17,0 °C 20,8 °C 6,4 km/h (2 Bft)
22.08.2023 08:30 24,6 °C 20,8 °C 61 % 78 % 1018,4 hPa 0,0 l/m² 6,4 km/h (2 Bft) NW 315 ° 1 min 262 W/m² 16,8 °C 20,8 °C 9,7 km/h (2 Bft)
22.08.2023 08:31 24,6 °C 20,8 °C 61 % 78 % 1018,5 hPa 0,0 l/m² 6,4 km/h (2 Bft) NW 315 ° 1 min 267 W/m² 16,8 °C 20,8 °C 8,0 km/h (2 Bft)
22.08.2023 08:32 24,6 °C 20,8 °C 61 % 77 % 1018,5 hPa 0,0 l/m² 4,8 km/h (1 Bft) NW 315 ° 1 min 279 W/m² 16,6 °C 20,8 °C 6,4 km/h (2 Bft)
22.08.2023 08:33 24,6 °C 20,8 °C 61 % 78 % 1018,5 hPa 0,0 l/m² 6,4 km/h (2 Bft) W-NW 292 ° 1 min 290 W/m² 16,8 °C 20,8 °C 11,3 km/h (2 Bft)
22.08.2023 08:34 24,6 °C 20,8 °C 61 % 77 % 1018,4 hPa 0,0 l/m² 3,2 km/h (1 Bft) W-NW 292 ° 1 min 290 W/m² 16,6 °C 20,8 °C 4,8 km/h (1 Bft)
22.08.2023 08:35 24,6 °C 20,8 °C 61 % 77 % 1018,5 hPa 0,0 l/m² 1,6 km/h (1 Bft) W 270 ° 1 min 297 W/m² 16,6 °C 20,8 °C 3,2 km/h (1 Bft)
22.08.2023 08:36 24,6 °C 20,9 °C 61 % 77 % 1018,5 hPa 0,0 l/m² 3,2 km/h (1 Bft) W-NW 292 ° 1 min 304 W/m² 16,7 °C 20,9 °C 6,4 km/h (2 Bft)
22.08.2023 08:37 24,6 °C 20,9 °C 61 % 77 % 1018,4 hPa 0,0 l/m² 3,2 km/h (1 Bft) W-NW 292 ° 1 min 311 W/m² 16,7 °C 20,9 °C 6,4 km/h (2 Bft)
22.08.2023 08:38 24,6 °C 20,9 °C 61 % 77 % 1018,5 hPa 0,0 l/m² 3,2 km/h (1 Bft) NW 315 ° 1 min 315 W/m² 16,7 °C 20,9 °C 6,4 km/h (2 Bft)
22.08.2023 08:39 24,6 °C 21,1 °C 61 % 78 % 1018,5 hPa 0,0 l/m² 3,2 km/h (1 Bft) NW 315 ° 1 min 320 W/m² 17,1 °C 21,1 °C 6,4 km/h (2 Bft)
22.08.2023 08:40 24,6 °C 21,2 °C 62 % 77 % 1018,5 hPa 0,0 l/m² 4,8 km/h (1 Bft) NW 315 ° 1 min 322 W/m² 17,0 °C 21,2 °C 6,4 km/h (2 Bft)
22.08.2023 08:41 24,6 °C 21,2 °C 61 % 77 % 1018,5 hPa 0,0 l/m² 1,6 km/h (1 Bft) W 270 ° 1 min 327 W/m² 17,0 °C 21,2 °C 4,8 km/h (1 Bft)
22.08.2023 08:42 24,6 °C 21,2 °C 62 % 77 % 1018,5 hPa 0,0 l/m² 1,6 km/h (1 Bft) W-NW 292 ° 1 min 336 W/m² 17,0 °C 21,2 °C 6,4 km/h (2 Bft)
22.08.2023 08:43 24,6 °C 21,2 °C 62 % 77 % 1018,5 hPa 0,0 l/m² 4,8 km/h (1 Bft) NW 315 ° 1 min 336 W/m² 17,0 °C 21,2 °C 6,4 km/h (2 Bft)
22.08.2023 08:44 24,6 °C 21,2 °C 62 % 76 % 1018,5 hPa 0,0 l/m² 3,2 km/h (1 Bft) W-SW 247 ° 1 min 338 W/m² 16,8 °C 21,2 °C 4,8 km/h (1 Bft)
22.08.2023 08:45 24,6 °C 21,3 °C 62 % 77 % 1018,5 hPa 0,0 l/m² 3,2 km/h (1 Bft) W 270 ° 1 min 336 W/m² 17,1 °C 21,3 °C 6,4 km/h (2 Bft)
22.08.2023 08:46 24,6 °C 21,3 °C 62 % 78 % 1018,4 hPa 0,0 l/m² 1,6 km/h (1 Bft) W-NW 292 ° 1 min 338 W/m² 17,3 °C 21,3 °C 4,8 km/h (1 Bft)
22.08.2023 08:47 24,6 °C 21,4 °C 62 % 77 % 1018,5 hPa 0,0 l/m² 0,0 km/h (0 Bft) W-NW 292 ° 1 min 330 W/m² 17,2 °C 21,4 °C 1,6 km/h (1 Bft)
22.08.2023 08:48 24,6 °C 21,4 °C 62 % 77 % 1018,5 hPa 0,0 l/m² 3,2 km/h (1 Bft) W 270 ° 1 min 329 W/m² 17,2 °C 21,4 °C 9,7 km/h (2 Bft)
22.08.2023 08:49 24,6 °C 21,4 °C 62 % 76 % 1018,5 hPa 0,0 l/m² 3,2 km/h (1 Bft) W 270 ° 1 min 336 W/m² 17,0 °C 21,4 °C 6,4 km/h (2 Bft)
22.08.2023 08:50 24,6 °C 21,4 °C 62 % 76 % 1018,5 hPa 0,0 l/m² 1,6 km/h (1 Bft) W 270 ° 1 min 345 W/m² 17,0 °C 21,4 °C 4,8 km/h (1 Bft)
22.08.2023 08:51 24,7 °C 21,6 °C 62 % 76 % 1018,5 hPa 0,0 l/m² 1,6 km/h (1 Bft) NW 315 ° 1 min 339 W/m² 17,2 °C 21,6 °C 4,8 km/h (1 Bft)
22.08.2023 08:52 24,6 °C 21,7 °C 62 % 75 % 1018,5 hPa 0,0 l/m² 3,2 km/h (1 Bft) W-NW 292 ° 1 min 334 W/m² 17,1 °C 21,7 °C 8,0 km/h (2 Bft)
22.08.2023 08:53 24,6 °C 21,7 °C 62 % 75 % 1018,5 hPa 0,0 l/m² 3,2 km/h (1 Bft) W-NW 292 ° 1 min 348 W/m² 17,1 °C 21,7 °C 8,0 km/h (2 Bft)
22.08.2023 08:54 24,7 °C 21,7 °C 62 % 74 % 1018,5 hPa 0,0 l/m² 1,6 km/h (1 Bft) W-SW 247 ° 1 min 360 W/m² 16,9 °C 21,7 °C 8,0 km/h (2 Bft)
22.08.2023 08:55 24,7 °C 21,7 °C 62 % 75 % 1018,5 hPa 0,0 l/m² 6,4 km/h (2 Bft) W 270 ° 1 min 369 W/m² 17,1 °C 21,7 °C 11,3 km/h (2 Bft)
22.08.2023 08:56 24,7 °C 21,7 °C 62 % 74 % 1018,6 hPa 0,0 l/m² 3,2 km/h (1 Bft) W 270 ° 1 min 371 W/m² 16,9 °C 21,7 °C 4,8 km/h (1 Bft)
22.08.2023 08:57 24,7 °C 21,7 °C 62 % 74 % 1018,6 hPa 0,0 l/m² 3,2 km/h (1 Bft) NW 315 ° 1 min 371 W/m² 16,9 °C 21,7 °C 4,8 km/h (1 Bft)
22.08.2023 08:58 24,6 °C 21,7 °C 62 % 74 % 1018,6 hPa 0,0 l/m² 4,8 km/h (1 Bft) W 270 ° 1 min 373 W/m² 16,9 °C 21,7 °C 9,7 km/h (2 Bft)
22.08.2023 08:59 24,7 °C 21,8 °C 62 % 74 % 1018,7 hPa 0,0 l/m² 3,2 km/h (1 Bft) W-NW 292 ° 1 min 376 W/m² 17,0 °C 21,8 °C 8,0 km/h (2 Bft)
22.08.2023 09:00 24,7 °C 21,8 °C 62 % 75 % 1018,6 hPa 0,0 l/m² 4,8 km/h (1 Bft) W 270 ° 1 min 385 W/m² 17,2 °C 21,8 °C 11,3 km/h (2 Bft)
22.08.2023 09:01 24,7 °C 21,8 °C 62 % 73 % 1018,6 hPa 0,0 l/m² 6,4 km/h (2 Bft) W 270 ° 1 min 388 W/m² 16,7 °C 21,8 °C 11,3 km/h (2 Bft)
22.08.2023 09:02 24,7 °C 21,9 °C 62 % 74 % 1018,7 hPa 0,0 l/m² 3,2 km/h (1 Bft) N-NW 337 ° 1 min 387 W/m² 17,0 °C 21,9 °C 8,0 km/h (2 Bft)
22.08.2023 09:03 24,7 °C 21,9 °C 62 % 74 % 1018,7 hPa 0,0 l/m² 1,6 km/h (1 Bft) NW 315 ° 1 min 387 W/m² 17,0 °C 21,9 °C 6,4 km/h (2 Bft)
22.08.2023 09:04 24,7 °C 22,0 °C 62 % 74 % 1018,6 hPa 0,0 l/m² 1,6 km/h (1 Bft) W-NW 292 ° 1 min 381 W/m² 17,1 °C 22,0 °C 4,8 km/h (1 Bft)
22.08.2023 09:05 24,7 °C 22,1 °C 62 % 73 % 1018,6 hPa 0,0 l/m² 4,8 km/h (1 Bft) NW 315 ° 1 min 387 W/m² 17,0 °C 22,1 °C 8,0 km/h (2 Bft)
22.08.2023 09:06 24,7 °C 22,1 °C 62 % 73 % 1018,6 hPa 0,0 l/m² 4,8 km/h (1 Bft) N-NW 337 ° 1 min 392 W/m² 17,0 °C 22,1 °C 6,4 km/h (2 Bft)
22.08.2023 09:07 24,7 °C 22,1 °C 62 % 73 % 1018,6 hPa 0,0 l/m² 4,8 km/h (1 Bft) NW 315 ° 1 min 397 W/m² 17,0 °C 22,1 °C 8,0 km/h (2 Bft)
22.08.2023 09:08 24,7 °C 22,0 °C 62 % 72 % 1018,6 hPa 0,0 l/m² 6,4 km/h (2 Bft) W-NW 292 ° 1 min 397 W/m² 16,7 °C 22,0 °C 11,3 km/h (2 Bft)
22.08.2023 09:09 24,7 °C 22,0 °C 62 % 73 % 1018,6 hPa 0,0 l/m² 3,2 km/h (1 Bft) W-NW 292 ° 1 min 401 W/m² 16,9 °C 22,0 °C 6,4 km/h (2 Bft)
22.08.2023 09:10 24,7 °C 22,1 °C 62 % 74 % 1018,6 hPa 0,0 l/m² 1,6 km/h (1 Bft) NW 315 ° 1 min 403 W/m² 17,2 °C 22,1 °C 4,8 km/h (1 Bft)
22.08.2023 09:11 24,7 °C 22,1 °C 62 % 74 % 1018,5 hPa 0,0 l/m² 4,8 km/h (1 Bft) NW 315 ° 1 min 410 W/m² 17,2 °C 22,1 °C 6,4 km/h (2 Bft)
22.08.2023 09:12 24,7 °C 22,1 °C 62 % 74 % 1018,6 hPa 0,0 l/m² 3,2 km/h (1 Bft) W 270 ° 1 min 413 W/m² 17,2 °C 22,1 °C 6,4 km/h (2 Bft)
22.08.2023 09:13 24,7 °C 22,2 °C 62 % 74 % 1018,6 hPa 0,0 l/m² 4,8 km/h (1 Bft) NW 315 ° 1 min 415 W/m² 17,3 °C 22,2 °C 8,0 km/h (2 Bft)
22.08.2023 09:14 24,7 °C 22,2 °C 62 % 72 % 1018,6 hPa 0,0 l/m² 4,8 km/h (1 Bft) NW 315 ° 1 min 415 W/m² 16,9 °C 22,2 °C 8,0 km/h (2 Bft)
22.08.2023 09:15 24,7 °C 22,2 °C 62 % 72 % 1018,6 hPa 0,0 l/m² 4,8 km/h (1 Bft) NW 315 ° 1 min 418 W/m² 16,9 °C 22,2 °C 8,0 km/h (2 Bft)
22.08.2023 09:16 24,7 °C 22,2 °C 62 % 72 % 1018,6 hPa 0,0 l/m² 4,8 km/h (1 Bft) N-NW 337 ° 1 min 420 W/m² 16,9 °C 22,2 °C 8,0 km/h (2 Bft)
22.08.2023 09:17 24,7 °C 22,3 °C 62 % 73 % 1018,7 hPa 0,0 l/m² 3,2 km/h (1 Bft) W-NW 292 ° 1 min 424 W/m² 17,2 °C 22,3 °C 6,4 km/h (2 Bft)
22.08.2023 09:18 24,7 °C 22,3 °C 62 % 73 % 1018,7 hPa 0,0 l/m² 6,4 km/h (2 Bft) W 270 ° 1 min 427 W/m² 17,2 °C 22,3 °C 11,3 km/h (2 Bft)
22.08.2023 09:19 24,7 °C 22,3 °C 62 % 72 % 1018,7 hPa 0,0 l/m² 3,2 km/h (1 Bft) W 270 ° 1 min 429 W/m² 17,0 °C 22,3 °C 9,7 km/h (2 Bft)
22.08.2023 09:20 24,7 °C 22,3 °C 62 % 72 % 1018,7 hPa 0,0 l/m² 6,4 km/h (2 Bft) W 270 ° 1 min 432 W/m² 17,0 °C 22,3 °C 11,3 km/h (2 Bft)
22.08.2023 09:21 24,7 °C 22,3 °C 62 % 71 % 1018,6 hPa 0,0 l/m² 4,8 km/h (1 Bft) W-SW 247 ° 1 min 436 W/m² 16,8 °C 22,3 °C 9,7 km/h (2 Bft)
22.08.2023 09:22 24,7 °C 22,2 °C 62 % 71 % 1018,6 hPa 0,0 l/m² 4,8 km/h (1 Bft) W 270 ° 1 min 432 W/m² 16,7 °C 22,2 °C 9,7 km/h (2 Bft)
22.08.2023 09:23 24,7 °C 22,3 °C 62 % 72 % 1018,6 hPa 0,0 l/m² 3,2 km/h (1 Bft) W-NW 292 ° 1 min 439 W/m² 17,0 °C 22,3 °C 6,4 km/h (2 Bft)
22.08.2023 09:24 24,7 °C 22,3 °C 62 % 72 % 1018,6 hPa 0,0 l/m² 1,6 km/h (1 Bft) W-SW 247 ° 1 min 441 W/m² 17,0 °C 22,3 °C 4,8 km/h (1 Bft)
22.08.2023 09:25 24,7 °C 22,3 °C 62 % 72 % 1018,6 hPa 0,0 l/m² 1,6 km/h (1 Bft) W-SW 247 ° 1 min 446 W/m² 17,0 °C 22,3 °C 6,4 km/h (2 Bft)
22.08.2023 09:26 24,7 °C 22,3 °C 62 % 71 % 1018,6 hPa 0,0 l/m² 6,4 km/h (2 Bft) W 270 ° 1 min 448 W/m² 16,8 °C 22,3 °C 9,7 km/h (2 Bft)
22.08.2023 09:27 24,7 °C 22,3 °C 62 % 70 % 1018,6 hPa 0,0 l/m² 6,4 km/h (2 Bft) W 270 ° 1 min 454 W/m² 16,6 °C 22,3 °C 11,3 km/h (2 Bft)
22.08.2023 09:28 24,7 °C 22,3 °C 62 % 71 % 1018,6 hPa 0,0 l/m² 3,2 km/h (1 Bft) W 270 ° 1 min 457 W/m² 16,8 °C 22,3 °C 9,7 km/h (2 Bft)
22.08.2023 09:29 24,7 °C 22,3 °C 62 % 70 % 1018,6 hPa 0,0 l/m² 4,8 km/h (1 Bft) W 270 ° 1 min 462 W/m² 16,6 °C 22,3 °C 9,7 km/h (2 Bft)
22.08.2023 09:30 24,7 °C 22,2 °C 62 % 70 % 1018,5 hPa 0,0 l/m² 6,4 km/h (2 Bft) W 270 ° 1 min 464 W/m² 16,5 °C 22,2 °C 11,3 km/h (2 Bft)
22.08.2023 09:31 24,7 °C 22,2 °C 62 % 70 % 1018,5 hPa 0,0 l/m² 3,2 km/h (1 Bft) W 270 ° 1 min 468 W/m² 16,5 °C 22,2 °C 4,8 km/h (1 Bft)
22.08.2023 09:32 24,7 °C 22,2 °C 62 % 71 % 1018,6 hPa 0,0 l/m² 0,0 km/h (0 Bft) W 270 ° 1 min 471 W/m² 16,7 °C 22,2 °C 1,6 km/h (1 Bft)
22.08.2023 09:33 24,7 °C 22,3 °C 62 % 72 % 1018,6 hPa 0,0 l/m² 1,6 km/h (1 Bft) W 270 ° 1 min 473 W/m² 17,0 °C 22,3 °C 6,4 km/h (2 Bft)
22.08.2023 09:34 24,7 °C 22,4 °C 62 % 72 % 1018,6 hPa 0,0 l/m² 3,2 km/h (1 Bft) W-NW 292 ° 1 min 476 W/m² 17,1 °C 22,4 °C 6,4 km/h (2 Bft)
22.08.2023 09:35 24,7 °C 22,4 °C 62 % 70 % 1018,6 hPa 0,0 l/m² 0,0 km/h (0 Bft) W 270 ° 1 min 480 W/m² 16,7 °C 22,4 °C 3,2 km/h (1 Bft)
22.08.2023 09:36 24,7 °C 22,5 °C 62 % 70 % 1018,6 hPa 0,0 l/m² 4,8 km/h (1 Bft) W 270 ° 1 min 480 W/m² 16,7 °C 22,5 °C 9,7 km/h (2 Bft)
22.08.2023 09:37 24,7 °C 22,6 °C 62 % 71 % 1018,5 hPa 0,0 l/m² 3,2 km/h (1 Bft) W 270 ° 1 min 487 W/m² 17,1 °C 22,6 °C 6,4 km/h (2 Bft)
22.08.2023 09:38 24,7 °C 22,6 °C 62 % 72 % 1018,7 hPa 0,0 l/m² 3,2 km/h (1 Bft) W 270 ° 1 min 487 W/m² 17,3 °C 22,6 °C 6,4 km/h (2 Bft)
22.08.2023 09:39 24,7 °C 22,7 °C 62 % 69 % 1018,6 hPa 0,0 l/m² 3,2 km/h (1 Bft) W 270 ° 1 min 490 W/m² 16,7 °C 22,7 °C 4,8 km/h (1 Bft)
22.08.2023 09:40 24,7 °C 22,6 °C 62 % 70 % 1018,6 hPa 0,0 l/m² 1,6 km/h (1 Bft) NW 315 ° 1 min 492 W/m² 16,8 °C 22,6 °C 6,4 km/h (2 Bft)
22.08.2023 09:41 24,7 °C 22,6 °C 62 % 70 % 1018,6 hPa 0,0 l/m² 1,6 km/h (1 Bft) W-NW 292 ° 1 min 494 W/m² 16,8 °C 22,6 °C 3,2 km/h (1 Bft)
22.08.2023 09:42 24,7 °C 22,6 °C 62 % 69 % 1018,6 hPa 0,0 l/m² 1,6 km/h (1 Bft) W 270 ° 1 min 503 W/m² 16,6 °C 22,6 °C 4,8 km/h (1 Bft)
22.08.2023 09:43 24,7 °C 22,6 °C 62 % 69 % 1018,6 hPa 0,0 l/m² 1,6 km/h (1 Bft) W-NW 292 ° 1 min 503 W/m² 16,6 °C 22,6 °C 3,2 km/h (1 Bft)
22.08.2023 09:44 24,7 °C 22,5 °C 62 % 68 % 1018,6 hPa 0,0 l/m² 0,0 km/h (0 Bft) W-NW 292 ° 1 min 508 W/m² 16,3 °C 22,5 °C 3,2 km/h (1 Bft)
22.08.2023 09:45 24,7 °C 22,4 °C 62 % 68 % 1018,6 hPa 0,0 l/m² 3,2 km/h (1 Bft) NW 315 ° 1 min 513 W/m² 16,2 °C 22,4 °C 6,4 km/h (2 Bft)
22.08.2023 09:46 24,7 °C 22,3 °C 62 % 69 % 1018,6 hPa 0,0 l/m² 6,4 km/h (2 Bft) N-NW 337 ° 1 min 519 W/m² 16,3 °C 22,3 °C 8,0 km/h (2 Bft)
22.08.2023 09:47 24,7 °C 22,4 °C 62 % 70 % 1018,6 hPa 0,0 l/m² 4,8 km/h (1 Bft) NW 315 ° 1 min 526 W/m² 16,7 °C 22,4 °C 9,7 km/h (2 Bft)
22.08.2023 09:48 24,7 °C 22,6 °C 62 % 71 % 1018,6 hPa 0,0 l/m² 6,4 km/h (2 Bft) N-NW 337 ° 1 min 527 W/m² 17,1 °C 22,6 °C 9,7 km/h (2 Bft)
22.08.2023 09:49 24,7 °C 22,7 °C 62 % 69 % 1018,6 hPa 0,0 l/m² 4,8 km/h (1 Bft) N-NW 337 ° 1 min 527 W/m² 16,7 °C 22,7 °C 8,0 km/h (2 Bft)
22.08.2023 09:50 24,7 °C 22,7 °C 63 % 69 % 1018,6 hPa 0,0 l/m² 8,0 km/h (2 Bft) N-NW 337 ° 1 min 531 W/m² 16,7 °C 22,2 °C 9,7 km/h (2 Bft)
22.08.2023 09:51 24,7 °C 22,7 °C 62 % 70 % 1018,7 hPa 0,0 l/m² 6,4 km/h (2 Bft) NW 315 ° 1 min 529 W/m² 16,9 °C 22,7 °C 8,0 km/h (2 Bft)
22.08.2023 09:52 24,7 °C 22,7 °C 63 % 69 % 1018,6 hPa 0,0 l/m² 3,2 km/h (1 Bft) W-NW 292 ° 1 min 531 W/m² 16,7 °C 22,7 °C 6,4 km/h (2 Bft)
22.08.2023 09:53 24,7 °C 22,7 °C 62 % 69 % 1018,6 hPa 0,0 l/m² 4,8 km/h (1 Bft) N-NW 337 ° 1 min 531 W/m² 16,7 °C 22,7 °C 6,4 km/h (2 Bft)
22.08.2023 09:54 24,7 °C 22,7 °C 63 % 68 % 1018,6 hPa 0,0 l/m² 3,2 km/h (1 Bft) N-NW 337 ° 1 min 538 W/m² 16,5 °C 22,7 °C 4,8 km/h (1 Bft)
22.08.2023 09:55 24,7 °C 22,7 °C 63 % 68 % 1018,7 hPa 0,0 l/m² 3,2 km/h (1 Bft) N-NW 337 ° 1 min 543 W/m² 16,5 °C 22,7 °C 4,8 km/h (1 Bft)
22.08.2023 09:56 24,7 °C 22,8 °C 63 % 70 % 1018,7 hPa 0,0 l/m² 0,0 km/h (0 Bft) NW 315 ° 1 min 548 W/m² 17,0 °C 22,8 °C 1,6 km/h (1 Bft)
22.08.2023 09:57 24,7 °C 22,9 °C 63 % 70 % 1018,7 hPa 0,0 l/m² 0,0 km/h (0 Bft) W 270 ° 1 min 559 W/m² 17,1 °C 22,9 °C 1,6 km/h (1 Bft)
22.08.2023 09:58 24,7 °C 23,0 °C 63 % 71 % 1018,7 hPa 0,0 l/m² 1,6 km/h (1 Bft) SW 225 ° 1 min 587 W/m² 17,4 °C 23,0 °C 6,4 km/h (2 Bft)
22.08.2023 09:59 24,7 °C 23,2 °C 63 % 71 % 1018,7 hPa 0,0 l/m² 3,2 km/h (1 Bft) W 270 ° 1 min 598 W/m² 17,6 °C 23,2 °C 4,8 km/h (1 Bft)
22.08.2023 10:00 24,7 °C 23,4 °C 63 % 70 % 1018,7 hPa 0,0 l/m² 3,2 km/h (1 Bft) W 270 ° 1 min 601 W/m² 17,6 °C 23,4 °C 6,4 km/h (2 Bft)
22.08.2023 10:01 24,7 °C 23,6 °C 63 % 70 % 1018,7 hPa 0,0 l/m² 6,4 km/h (2 Bft) W 270 ° 1 min 601 W/m² 17,8 °C 23,6 °C 9,7 km/h (2 Bft)
22.08.2023 10:02 24,7 °C 23,4 °C 63 % 67 % 1018,7 hPa 0,0 l/m² 4,8 km/h (1 Bft) W 270 ° 1 min 390 W/m² 16,9 °C 23,4 °C 9,7 km/h (2 Bft)
22.08.2023 10:03 24,7 °C 23,4 °C 63 % 67 % 1018,7 hPa 0,0 l/m² 3,2 km/h (1 Bft) NW 315 ° 1 min 390 W/m² 16,9 °C 23,4 °C 6,4 km/h (2 Bft)
22.08.2023 10:04 24,7 °C 23,4 °C 63 % 69 % 1018,7 hPa 0,0 l/m² 1,6 km/h (1 Bft) NW 315 ° 1 min 390 W/m² 17,4 °C 23,4 °C 8,0 km/h (2 Bft)
22.08.2023 10:05 24,7 °C 23,4 °C 63 % 68 % 1018,7 hPa 0,0 l/m² 4,8 km/h (1 Bft) W 270 ° 1 min 573 W/m² 17,1 °C 23,4 °C 9,7 km/h (2 Bft)
22.08.2023 10:06 24,7 °C 23,3 °C 63 % 68 % 1018,7 hPa 0,0 l/m² 4,8 km/h (1 Bft) W 270 ° 1 min 582 W/m² 17,1 °C 23,3 °C 9,7 km/h (2 Bft)
22.08.2023 10:07 24,7 °C 23,3 °C 63 % 70 % 1018,6 hPa 0,0 l/m² 3,2 km/h (1 Bft) W 270 ° 1 min 538 W/m² 17,5 °C 23,3 °C 6,4 km/h (2 Bft)
22.08.2023 10:08 24,7 °C 23,1 °C 63 % 69 % 1018,6 hPa 0,0 l/m² 1,6 km/h (1 Bft) W 270 ° 1 min 538 W/m² 17,1 °C 23,1 °C 3,2 km/h (1 Bft)
22.08.2023 10:09 24,7 °C 23,1 °C 63 % 68 % 1018,6 hPa 0,0 l/m² 0,0 km/h (0 Bft) W 270 ° 1 min 538 W/m² 16,9 °C 23,1 °C 1,6 km/h (1 Bft)
22.08.2023 10:10 24,7 °C 23,2 °C 63 % 69 % 1018,5 hPa 0,0 l/m² 3,2 km/h (1 Bft) W 270 ° 1 min 575 W/m² 17,2 °C 23,2 °C 9,7 km/h (2 Bft)
22.08.2023 10:11 24,7 °C 23,3 °C 63 % 69 % 1018,6 hPa 0,0 l/m² 4,8 km/h (1 Bft) NW 315 ° 1 min 577 W/m² 17,3 °C 23,3 °C 8,0 km/h (2 Bft)
22.08.2023 10:12 24,7 °C 23,3 °C 63 % 69 % 1018,6 hPa 0,0 l/m² 3,2 km/h (1 Bft) W-SW 247 ° 1 min 585 W/m² 17,3 °C 23,3 °C 4,8 km/h (1 Bft)
22.08.2023 10:13 24,7 °C 23,2 °C 63 % 69 % 1018,6 hPa 0,0 l/m² 3,2 km/h (1 Bft) NW 315 ° 1 min 606 W/m² 17,2 °C 23,2 °C 6,4 km/h (2 Bft)
22.08.2023 10:14 24,7 °C 23,3 °C 63 % 69 % 1018,6 hPa 0,0 l/m² 1,6 km/h (1 Bft) NW 315 ° 1 min 631 W/m² 17,3 °C 23,3 °C 4,8 km/h (1 Bft)
22.08.2023 10:15 24,7 °C 23,4 °C 63 % 68 % 1018,6 hPa 0,0 l/m² 3,2 km/h (1 Bft) W-SW 247 ° 1 min 626 W/m² 17,1 °C 23,4 °C 6,4 km/h (2 Bft)
22.08.2023 10:16 24,7 °C 23,6 °C 63 % 69 % 1018,6 hPa 0,0 l/m² 1,6 km/h (1 Bft) N-NW 337 ° 1 min 675 W/m² 17,6 °C 23,6 °C 8,0 km/h (2 Bft)
22.08.2023 10:17 24,7 °C 23,8 °C 63 % 68 % 1018,6 hPa 0,0 l/m² 6,4 km/h (2 Bft) NW 315 ° 1 min 654 W/m² 17,5 °C 23,8 °C 8,0 km/h (2 Bft)
22.08.2023 10:18 24,7 °C 23,7 °C 63 % 67 % 1018,5 hPa 0,0 l/m² 4,8 km/h (1 Bft) N-NW 337 ° 1 min 503 W/m² 17,2 °C 23,7 °C 8,0 km/h (2 Bft)
22.08.2023 10:19 24,7 °C 23,7 °C 63 % 69 % 1018,6 hPa 0,0 l/m² 1,6 km/h (1 Bft) W-NW 292 ° 1 min 503 W/m² 17,7 °C 23,7 °C 6,4 km/h (2 Bft)
22.08.2023 10:20 24,7 °C 23,7 °C 63 % 68 % 1018,6 hPa 0,0 l/m² 3,2 km/h (1 Bft) W 270 ° 1 min 264 W/m² 17,4 °C 23,7 °C 6,4 km/h (2 Bft)
22.08.2023 10:21 24,7 °C 23,6 °C 63 % 67 % 1018,6 hPa 0,0 l/m² 1,6 km/h (1 Bft) W 270 ° 1 min 283 W/m² 17,1 °C 23,6 °C 4,8 km/h (1 Bft)
22.08.2023 10:22 24,7 °C 23,6 °C 63 % 68 % 1018,6 hPa 0,0 l/m² 3,2 km/h (1 Bft) N-NW 337 ° 1 min 439 W/m² 17,3 °C 23,6 °C 4,8 km/h (1 Bft)
22.08.2023 10:23 24,7 °C 23,6 °C 63 % 69 % 1018,6 hPa 0,0 l/m² 4,8 km/h (1 Bft) W-NW 292 ° 1 min 429 W/m² 17,6 °C 23,6 °C 11,3 km/h (2 Bft)
22.08.2023 10:24 24,7 °C 23,6 °C 63 % 67 % 1018,6 hPa 0,0 l/m² 8,0 km/h (2 Bft) W 270 ° 1 min 411 W/m² 17,1 °C 23,1 °C 11,3 km/h (2 Bft)
22.08.2023 10:25 24,7 °C 23,5 °C 63 % 68 % 1018,6 hPa 0,0 l/m² 4,8 km/h (1 Bft) W-NW 292 ° 1 min 397 W/m² 17,2 °C 23,5 °C 9,7 km/h (2 Bft)
22.08.2023 10:26 24,7 °C 23,4 °C 63 % 68 % 1018,6 hPa 0,0 l/m² 8,0 km/h (2 Bft) W-SW 247 ° 1 min 452 W/m² 17,1 °C 22,9 °C 11,3 km/h (2 Bft)
22.08.2023 10:27 24,7 °C 23,4 °C 63 % 68 % 1018,6 hPa 0,0 l/m² 6,4 km/h (2 Bft) W 270 ° 1 min 425 W/m² 17,1 °C 23,4 °C 9,7 km/h (2 Bft)
22.08.2023 10:28 24,7 °C 23,3 °C 63 % 68 % 1018,6 hPa 0,0 l/m² 8,0 km/h (2 Bft) W 270 ° 1 min 376 W/m² 17,1 °C 22,8 °C 11,3 km/h (2 Bft)
22.08.2023 10:29 24,7 °C 23,3 °C 63 % 67 % 1018,6 hPa 0,0 l/m² 6,4 km/h (2 Bft) NW 315 ° 1 min 330 W/m² 16,8 °C 23,3 °C 11,3 km/h (2 Bft)
22.08.2023 10:30 24,7 °C 23,3 °C 63 % 67 % 1018,5 hPa 0,0 l/m² 4,8 km/h (1 Bft) NW 315 ° 1 min 315 W/m² 16,8 °C 23,3 °C 6,4 km/h (2 Bft)
22.08.2023 10:31 24,7 °C 23,2 °C 63 % 68 % 1018,6 hPa 0,0 l/m² 4,8 km/h (1 Bft) W 270 ° 1 min 292 W/m² 17,0 °C 23,2 °C 11,3 km/h (2 Bft)
22.08.2023 10:32 24,7 °C 23,2 °C 63 % 67 % 1018,7 hPa 0,0 l/m² 8,0 km/h (2 Bft) W-SW 247 ° 1 min 306 W/m² 16,7 °C 22,7 °C 12,9 km/h (3 Bft)
22.08.2023 10:33 24,7 °C 23,1 °C 63 % 69 % 1018,7 hPa 0,0 l/m² 6,4 km/h (2 Bft) W 270 ° 1 min 329 W/m² 17,1 °C 23,1 °C 11,3 km/h (2 Bft)
22.08.2023 10:34 24,7 °C 23,1 °C 63 % 68 % 1018,5 hPa 0,0 l/m² 4,8 km/h (1 Bft) W-SW 247 ° 1 min 287 W/m² 16,9 °C 23,1 °C 9,7 km/h (2 Bft)
22.08.2023 10:35 24,7 °C 23,1 °C 63 % 68 % 1018,6 hPa 0,0 l/m² 4,8 km/h (1 Bft) W 270 ° 1 min 287 W/m² 16,9 °C 23,1 °C 12,9 km/h (3 Bft)
22.08.2023 10:36 24,7 °C 23,2 °C 63 % 68 % 1018,6 hPa 0,0 l/m² 4,8 km/h (1 Bft) W-NW 292 ° 1 min 431 W/m² 17,0 °C 23,2 °C 9,7 km/h (2 Bft)
22.08.2023 10:37 24,8 °C 23,2 °C 63 % 67 % 1018,6 hPa 0,0 l/m² 4,8 km/h (1 Bft) W-NW 292 ° 1 min 468 W/m² 16,7 °C 23,2 °C 8,0 km/h (2 Bft)
22.08.2023 10:38 24,7 °C 23,3 °C 63 % 68 % 1018,5 hPa 0,0 l/m² 3,2 km/h (1 Bft) W-NW 292 ° 1 min 417 W/m² 17,1 °C 23,3 °C 6,4 km/h (2 Bft)
22.08.2023 10:39 24,7 °C 23,4 °C 63 % 69 % 1018,6 hPa 0,0 l/m² 3,2 km/h (1 Bft) W-NW 292 ° 1 min 330 W/m² 17,4 °C 23,4 °C 9,7 km/h (2 Bft)
22.08.2023 10:40 24,7 °C 23,4 °C 63 % 68 % 1018,6 hPa 0,0 l/m² 6,4 km/h (2 Bft) NW 315 ° 1 min 362 W/m² 17,1 °C 23,4 °C 11,3 km/h (2 Bft)
22.08.2023 10:41 24,7 °C 23,4 °C 63 % 67 % 1018,6 hPa 0,0 l/m² 4,8 km/h (1 Bft) W-NW 292 ° 1 min 388 W/m² 16,9 °C 23,4 °C 11,3 km/h (2 Bft)
22.08.2023 10:42 24,7 °C 23,4 °C 63 % 69 % 1018,6 hPa 0,0 l/m² 4,8 km/h (1 Bft) W 270 ° 1 min 485 W/m² 17,4 °C 23,4 °C 11,3 km/h (2 Bft)
22.08.2023 10:43 24,8 °C 23,4 °C 63 % 67 % 1018,6 hPa 0,0 l/m² 4,8 km/h (1 Bft) NW 315 ° 1 min 443 W/m² 16,9 °C 23,4 °C 8,0 km/h (2 Bft)
22.08.2023 10:44 24,7 °C 23,5 °C 63 % 69 % 1018,6 hPa 0,0 l/m² 3,2 km/h (1 Bft) NW 315 ° 1 min 480 W/m² 17,5 °C 23,5 °C 6,4 km/h (2 Bft)
22.08.2023 10:45 24,8 °C 23,6 °C 63 % 68 % 1018,6 hPa 0,0 l/m² 3,2 km/h (1 Bft) NW 315 ° 1 min 473 W/m² 17,3 °C 23,6 °C 9,7 km/h (2 Bft)
22.08.2023 10:46 24,8 °C 23,6 °C 63 % 67 % 1018,6 hPa 0,0 l/m² 3,2 km/h (1 Bft) N-NW 337 ° 1 min 664 W/m² 17,1 °C 23,6 °C 4,8 km/h (1 Bft)
22.08.2023 10:47 24,7 °C 23,8 °C 63 % 70 % 1018,6 hPa 0,0 l/m² 1,6 km/h (1 Bft) NW 315 ° 1 min 687 W/m² 18,0 °C 23,8 °C 8,0 km/h (2 Bft)
22.08.2023 10:48 24,7 °C 24,0 °C 63 % 69 % 1018,6 hPa 0,0 l/m² 4,8 km/h (1 Bft) W-SW 247 ° 1 min 675 W/m² 18,0 °C 24,0 °C 8,0 km/h (2 Bft)
22.08.2023 10:49 24,8 °C 24,1 °C 63 % 66 % 1018,6 hPa 0,0 l/m² 4,8 km/h (1 Bft) W-NW 292 ° 1 min 666 W/m² 17,3 °C 24,1 °C 6,4 km/h (2 Bft)
22.08.2023 10:50 24,7 °C 24,2 °C 63 % 68 % 1018,6 hPa 0,0 l/m² 3,2 km/h (1 Bft) N-NW 337 ° 1 min 664 W/m² 17,9 °C 24,2 °C 4,8 km/h (1 Bft)
22.08.2023 10:51 24,8 °C 24,3 °C 63 % 66 % 1018,6 hPa 0,0 l/m² 1,6 km/h (1 Bft) W-NW 292 ° 1 min 664 W/m² 17,5 °C 24,3 °C 4,8 km/h (1 Bft)
22.08.2023 10:52 24,7 °C 24,3 °C 63 % 66 % 1018,6 hPa 0,0 l/m² 3,2 km/h (1 Bft) W-SW 247 ° 1 min 663 W/m² 17,5 °C 24,3 °C 6,4 km/h (2 Bft)
22.08.2023 10:53 24,8 °C 24,3 °C 63 % 68 % 1018,6 hPa 0,0 l/m² 1,6 km/h (1 Bft) W-SW 247 ° 1 min 668 W/m² 18,0 °C 24,3 °C 4,8 km/h (1 Bft)
22.08.2023 10:54 24,8 °C 24,4 °C 63 % 68 % 1018,6 hPa 0,0 l/m² 3,2 km/h (1 Bft) W 270 ° 1 min 675 W/m² 18,1 °C 24,4 °C 6,4 km/h (2 Bft)
22.08.2023 10:55 24,8 °C 24,6 °C 63 % 67 % 1018,7 hPa 0,0 l/m² 4,8 km/h (1 Bft) W 270 ° 1 min 675 W/m² 18,1 °C 24,6 °C 9,7 km/h (2 Bft)
22.08.2023 10:56 24,8 °C 24,5 °C 63 % 65 % 1018,6 hPa 0,0 l/m² 6,4 km/h (2 Bft) W 270 ° 1 min 668 W/m² 17,5 °C 24,5 °C 11,3 km/h (2 Bft)
22.08.2023 10:57 24,8 °C 24,5 °C 63 % 66 % 1018,6 hPa 0,0 l/m² 9,7 km/h (2 Bft) W-SW 247 ° 1 min 671 W/m² 17,7 °C 23,7 °C 14,5 km/h (3 Bft)
22.08.2023 10:58 24,8 °C 24,6 °C 63 % 67 % 1018,6 hPa 0,0 l/m² 8,0 km/h (2 Bft) W 270 ° 1 min 664 W/m² 18,1 °C 24,2 °C 14,5 km/h (3 Bft)
22.08.2023 10:59 24,7 °C 24,6 °C 63 % 66 % 1018,7 hPa 0,0 l/m² 6,4 km/h (2 Bft) W-NW 292 ° 1 min 679 W/m² 17,8 °C 24,6 °C 12,9 km/h (3 Bft)
22.08.2023 11:00 24,8 °C 24,7 °C 63 % 66 % 1018,5 hPa 0,0 l/m² 1,6 km/h (1 Bft) W-NW 292 ° 1 min 670 W/m² 17,9 °C 24,7 °C 4,8 km/h (1 Bft)
22.08.2023 11:01 24,7 °C 24,8 °C 63 % 67 % 1018,6 hPa 0,0 l/m² 3,2 km/h (1 Bft) W-NW 292 ° 1 min 693 W/m² 18,2 °C 24,8 °C 6,4 km/h (2 Bft)
22.08.2023 11:02 24,8 °C 24,8 °C 63 % 65 % 1018,6 hPa 0,0 l/m² 4,8 km/h (1 Bft) W-NW 292 ° 1 min 703 W/m² 17,8 °C 24,8 °C 9,7 km/h (2 Bft)
22.08.2023 11:03 24,8 °C 24,9 °C 63 % 65 % 1018,5 hPa 0,0 l/m² 6,4 km/h (2 Bft) NW 315 ° 1 min 729 W/m² 17,9 °C 24,9 °C 11,3 km/h (2 Bft)
22.08.2023 11:04 24,8 °C 24,8 °C 63 % 64 % 1018,6 hPa 0,0 l/m² 4,8 km/h (1 Bft) N 360 ° 1 min 751 W/m² 17,5 °C 24,8 °C 8,0 km/h (2 Bft)
22.08.2023 11:05 24,7 °C 24,9 °C 63 % 66 % 1018,6 hPa 0,0 l/m² 8,0 km/h (2 Bft) W 270 ° 1 min 784 W/m² 18,1 °C 24,5 °C 14,5 km/h (3 Bft)
22.08.2023 11:06 24,8 °C 24,9 °C 63 % 65 % 1018,6 hPa 0,0 l/m² 4,8 km/h (1 Bft) W 270 ° 1 min 784 W/m² 17,9 °C 24,9 °C 9,7 km/h (2 Bft)
22.08.2023 11:07 24,8 °C 24,9 °C 63 % 65 % 1018,5 hPa 0,0 l/m² 8,0 km/h (2 Bft) W-SW 247 ° 1 min 784 W/m² 17,9 °C 24,5 °C 12,9 km/h (3 Bft)
22.08.2023 11:08 24,7 °C 24,8 °C 63 % 65 % 1018,5 hPa 0,0 l/m² 8,0 km/h (2 Bft) W-NW 292 ° 1 min 784 W/m² 17,8 °C 24,4 °C 12,9 km/h (3 Bft)
22.08.2023 11:09 24,8 °C 24,8 °C 63 % 65 % 1018,6 hPa 0,0 l/m² 3,2 km/h (1 Bft) W 270 ° 1 min 784 W/m² 17,8 °C 24,8 °C 6,4 km/h (2 Bft)
22.08.2023 11:10 24,7 °C 24,9 °C 63 % 69 % 1018,5 hPa 0,0 l/m² 1,6 km/h (1 Bft) W 270 ° 1 min 338 W/m² 18,8 °C 24,9 °C 6,4 km/h (2 Bft)
22.08.2023 11:11 24,8 °C 24,8 °C 63 % 67 % 1018,6 hPa 0,0 l/m² 8,0 km/h (2 Bft) W 270 ° 1 min 301 W/m² 18,2 °C 24,4 °C 14,5 km/h (3 Bft)
22.08.2023 11:12 24,7 °C 24,8 °C 63 % 65 % 1018,6 hPa 0,0 l/m² 4,8 km/h (1 Bft) W-NW 292 ° 1 min 301 W/m² 17,8 °C 24,8 °C 8,0 km/h (2 Bft)
22.08.2023 11:13 24,8 °C 24,7 °C 63 % 66 % 1018,6 hPa 0,0 l/m² 3,2 km/h (1 Bft) W-NW 292 ° 1 min 308 W/m² 17,9 °C 24,7 °C 4,8 km/h (1 Bft)
22.08.2023 11:14 24,8 °C 24,8 °C 63 % 67 % 1018,6 hPa 0,0 l/m² 4,8 km/h (1 Bft) W-NW 292 ° 1 min 763 W/m² 18,2 °C 24,8 °C 8,0 km/h (2 Bft)
22.08.2023 11:15 24,8 °C 24,9 °C 63 % 69 % 1018,6 hPa 0,0 l/m² 1,6 km/h (1 Bft) W 270 ° 1 min 763 W/m² 18,8 °C 24,9 °C 6,4 km/h (2 Bft)
22.08.2023 11:16 24,8 °C 25,0 °C 63 % 66 % 1018,6 hPa 0,0 l/m² 1,6 km/h (1 Bft) N-NW 337 ° 1 min 371 W/m² 18,2 °C 25,0 °C 4,8 km/h (1 Bft)
22.08.2023 11:17 24,8 °C 24,9 °C 63 % 64 % 1018,6 hPa 0,0 l/m² 1,6 km/h (1 Bft) W-SW 247 ° 1 min 327 W/m² 17,6 °C 24,9 °C 6,4 km/h (2 Bft)
22.08.2023 11:18 24,8 °C 24,9 °C 63 % 65 % 1018,6 hPa 0,0 l/m² 8,0 km/h (2 Bft) W 270 ° 1 min 334 W/m² 17,9 °C 24,5 °C 17,7 km/h (3 Bft)
22.08.2023 11:19 24,8 °C 24,8 °C 63 % 64 % 1018,7 hPa 0,0 l/m² 9,7 km/h (2 Bft) W 270 ° 1 min 318 W/m² 17,5 °C 24,0 °C 16,1 km/h (3 Bft)
22.08.2023 11:20 24,7 °C 24,7 °C 63 % 65 % 1018,7 hPa 0,0 l/m² 6,4 km/h (2 Bft) NW 315 ° 1 min 318 W/m² 17,7 °C 24,7 °C 17,7 km/h (3 Bft)
22.08.2023 11:21 24,8 °C 24,7 °C 63 % 67 % 1018,6 hPa 0,0 l/m² 6,4 km/h (2 Bft) W-NW 292 ° 1 min 308 W/m² 18,1 °C 24,7 °C 12,9 km/h (3 Bft)
22.08.2023 11:22 24,8 °C 24,6 °C 63 % 66 % 1018,7 hPa 0,0 l/m² 6,4 km/h (2 Bft) W 270 ° 1 min 269 W/m² 17,8 °C 24,6 °C 12,9 km/h (3 Bft)
22.08.2023 11:23 24,8 °C 24,6 °C 63 % 65 % 1018,7 hPa 0,0 l/m² 6,4 km/h (2 Bft) W 270 ° 1 min 269 W/m² 17,6 °C 24,6 °C 12,9 km/h (3 Bft)
22.08.2023 11:24 24,8 °C 24,7 °C 63 % 65 % 1018,6 hPa 0,0 l/m² 11,3 km/h (2 Bft) W 270 ° 1 min 269 W/m² 17,7 °C 23,6 °C 17,7 km/h (3 Bft)
22.08.2023 11:25 24,8 °C 24,7 °C 63 % 65 % 1018,7 hPa 0,0 l/m² 8,0 km/h (2 Bft) W-NW 292 ° 1 min 269 W/m² 17,7 °C 24,3 °C 14,5 km/h (3 Bft)
22.08.2023 11:26 24,8 °C 24,8 °C 63 % 65 % 1018,7 hPa 0,0 l/m² 8,0 km/h (2 Bft) NW 315 ° 1 min 819 W/m² 17,8 °C 24,4 °C 14,5 km/h (3 Bft)
22.08.2023 11:27 24,7 °C 24,9 °C 63 % 65 % 1018,7 hPa 0,0 l/m² 4,8 km/h (1 Bft) NW 315 ° 1 min 779 W/m² 17,9 °C 24,9 °C 12,9 km/h (3 Bft)
22.08.2023 11:28 24,8 °C 25,1 °C 63 % 67 % 1018,6 hPa 0,0 l/m² 4,8 km/h (1 Bft) NW 315 ° 1 min 744 W/m² 18,5 °C 25,1 °C 8,0 km/h (2 Bft)
22.08.2023 11:29 24,8 °C 25,2 °C 63 % 65 % 1018,7 hPa 0,0 l/m² 9,7 km/h (2 Bft) W-SW 247 ° 1 min 833 W/m² 18,1 °C 24,4 °C 14,5 km/h (3 Bft)
22.08.2023 11:30 24,8 °C 25,2 °C 63 % 64 % 1018,7 hPa 0,0 l/m² 8,0 km/h (2 Bft) W 270 ° 1 min 833 W/m² 17,9 °C 24,8 °C 12,9 km/h (3 Bft)
22.08.2023 11:31 24,8 °C 25,2 °C 63 % 64 % 1018,6 hPa 0,0 l/m² 6,4 km/h (2 Bft) W 270 ° 1 min 833 W/m² 17,9 °C 25,2 °C 12,9 km/h (3 Bft)
22.08.2023 11:32 24,8 °C 25,1 °C 63 % 65 % 1018,7 hPa 0,0 l/m² 8,0 km/h (2 Bft) W 270 ° 1 min 833 W/m² 18,0 °C 24,7 °C 12,9 km/h (3 Bft)
22.08.2023 11:33 24,8 °C 25,1 °C 63 % 63 % 1018,7 hPa 0,0 l/m² 6,4 km/h (2 Bft) W-SW 247 ° 1 min 846 W/m² 17,5 °C 25,1 °C 11,3 km/h (2 Bft)
22.08.2023 11:34 24,8 °C 25,1 °C 63 % 65 % 1018,7 hPa 0,0 l/m² 8,0 km/h (2 Bft) SW 225 ° 1 min 809 W/m² 18,0 °C 24,7 °C 11,3 km/h (2 Bft)
22.08.2023 11:35 24,8 °C 25,1 °C 63 % 67 % 1018,6 hPa 0,0 l/m² 6,4 km/h (2 Bft) W-SW 247 ° 1 min 802 W/m² 18,5 °C 25,1 °C 12,9 km/h (3 Bft)
22.08.2023 11:36 24,8 °C 25,4 °C 63 % 66 % 1018,6 hPa 0,0 l/m² 3,2 km/h (1 Bft) NW 315 ° 1 min 826 W/m² 18,6 °C 25,4 °C 6,4 km/h (2 Bft)
22.08.2023 11:37 24,8 °C 25,6 °C 63 % 64 % 1018,6 hPa 0,0 l/m² 8,0 km/h (2 Bft) W 270 ° 1 min 810 W/m² 18,3 °C 25,2 °C 14,5 km/h (3 Bft)
22.08.2023 11:38 24,8 °C 25,6 °C 63 % 63 % 1018,6 hPa 0,0 l/m² 9,7 km/h (2 Bft) W-NW 292 ° 1 min 810 W/m² 18,0 °C 24,9 °C 16,1 km/h (3 Bft)
22.08.2023 11:39 24,8 °C 25,6 °C 63 % 63 % 1018,7 hPa 0,0 l/m² 6,4 km/h (2 Bft) W-SW 247 ° 1 min 805 W/m² 18,0 °C 25,6 °C 11,3 km/h (2 Bft)
22.08.2023 11:40 24,8 °C 25,6 °C 63 % 65 % 1018,7 hPa 0,0 l/m² 8,0 km/h (2 Bft) W-SW 247 ° 1 min 805 W/m² 18,5 °C 25,2 °C 12,9 km/h (3 Bft)
22.08.2023 11:41 24,8 °C 25,5 °C 63 % 64 % 1018,6 hPa 0,0 l/m² 6,4 km/h (2 Bft) W-SW 247 ° 1 min 805 W/m² 18,2 °C 25,5 °C 11,3 km/h (2 Bft)
22.08.2023 11:42 24,8 °C 25,6 °C 63 % 67 % 1018,6 hPa 0,0 l/m² 3,2 km/h (1 Bft) W 270 ° 1 min 805 W/m² 19,0 °C 25,6 °C 6,4 km/h (2 Bft)
22.08.2023 11:43 24,8 °C 25,8 °C 63 % 66 % 1018,6 hPa 0,0 l/m² 3,2 km/h (1 Bft) W-NW 292 ° 1 min 805 W/m² 19,0 °C 25,8 °C 4,8 km/h (1 Bft)
22.08.2023 11:44 24,8 °C 26,1 °C 63 % 65 % 1018,6 hPa 0,0 l/m² 3,2 km/h (1 Bft) NW 315 ° 1 min 807 W/m² 19,0 °C 26,1 °C 8,0 km/h (2 Bft)
22.08.2023 11:45 24,8 °C 26,2 °C 63 % 63 % 1018,6 hPa 0,0 l/m² 1,6 km/h (1 Bft) N-NW 337 ° 1 min 814 W/m² 18,6 °C 26,2 °C 3,2 km/h (1 Bft)
22.08.2023 11:46 24,8 °C 26,3 °C 63 % 64 % 1018,6 hPa 0,0 l/m² 1,6 km/h (1 Bft) W 270 ° 1 min 814 W/m² 18,9 °C 26,3 °C 4,8 km/h (1 Bft)
22.08.2023 11:47 24,8 °C 26,4 °C 63 % 62 % 1018,6 hPa 0,0 l/m² 3,2 km/h (1 Bft) W-NW 292 ° 1 min 814 W/m² 18,5 °C 26,4 °C 11,3 km/h (2 Bft)
22.08.2023 11:48 24,8 °C 26,3 °C 63 % 64 % 1018,6 hPa 0,0 l/m² 3,2 km/h (1 Bft) W-SW 247 ° 1 min 814 W/m² 18,9 °C 26,3 °C 6,4 km/h (2 Bft)
22.08.2023 11:49 24,8 °C 26,2 °C 63 % 62 % 1018,5 hPa 0,0 l/m² 6,4 km/h (2 Bft) W 270 ° 1 min 814 W/m² 18,3 °C 26,2 °C 11,3 km/h (2 Bft)
22.08.2023 11:50 24,8 °C 26,1 °C 63 % 63 % 1018,6 hPa 0,0 l/m² 8,0 km/h (2 Bft) W 270 ° 1 min 670 W/m² 18,5 °C 25,8 °C 11,3 km/h (2 Bft)
22.08.2023 11:51 24,8 °C 25,9 °C 63 % 64 % 1018,6 hPa 0,0 l/m² 8,0 km/h (2 Bft) W-SW 247 ° 1 min 670 W/m² 18,6 °C 25,5 °C 11,3 km/h (2 Bft)
22.08.2023 11:52 24,8 °C 25,7 °C 63 % 61 % 1018,5 hPa 0,0 l/m² 4,8 km/h (1 Bft) W 270 ° 1 min 492 W/m² 17,6 °C 25,7 °C 9,7 km/h (2 Bft)
22.08.2023 11:53 24,8 °C 25,4 °C 63 % 62 % 1018,6 hPa 0,0 l/m² 4,8 km/h (1 Bft) W 270 ° 1 min 492 W/m² 17,6 °C 25,4 °C 9,7 km/h (2 Bft)
22.08.2023 11:54 24,8 °C 25,2 °C 63 % 64 % 1018,6 hPa 0,0 l/m² 0,0 km/h (0 Bft) N 0 ° 1 min 492 W/m² 17,9 °C 25,2 °C 0,0 km/h (0 Bft)
22.08.2023 11:55 24,8 °C 25,1 °C 63 % 66 % 1018,6 hPa 0,0 l/m² 3,2 km/h (1 Bft) W-SW 247 ° 1 min 492 W/m² 18,3 °C 25,1 °C 12,9 km/h (3 Bft)
22.08.2023 11:56 24,8 °C 25,3 °C 63 % 65 % 1018,5 hPa 0,0 l/m² 4,8 km/h (1 Bft) W 270 ° 1 min 492 W/m² 18,2 °C 25,3 °C 11,3 km/h (2 Bft)
22.08.2023 11:57 24,8 °C 25,4 °C 63 % 64 % 1018,6 hPa 0,0 l/m² 1,6 km/h (1 Bft) W 270 ° 1 min 809 W/m² 18,1 °C 25,4 °C 9,7 km/h (2 Bft)
22.08.2023 11:58 24,8 °C 25,7 °C 63 % 64 % 1018,6 hPa 0,0 l/m² 8,0 km/h (2 Bft) W 270 ° 1 min 812 W/m² 18,4 °C 25,3 °C 12,9 km/h (3 Bft)
22.08.2023 11:59 24,8 °C 25,8 °C 63 % 63 % 1018,5 hPa 0,0 l/m² 3,2 km/h (1 Bft) W 270 ° 1 min 812 W/m² 18,2 °C 25,8 °C 6,4 km/h (2 Bft)
22.08.2023 12:00 24,8 °C 25,9 °C 63 % 63 % 1018,6 hPa 0,0 l/m² 4,8 km/h (1 Bft) W 270 ° 1 min 810 W/m² 18,3 °C 25,9 °C 11,3 km/h (2 Bft)
22.08.2023 12:01 24,8 °C 26,1 °C 63 % 64 % 1018,6 hPa 0,0 l/m² 1,6 km/h (1 Bft) W 270 ° 1 min 821 W/m² 18,7 °C 26,1 °C 6,4 km/h (2 Bft)
22.08.2023 12:02 24,8 °C 26,3 °C 63 % 64 % 1018,5 hPa 0,0 l/m² 8,0 km/h (2 Bft) W 270 ° 1 min 831 W/m² 18,9 °C 26,0 °C 14,5 km/h (3 Bft)
22.08.2023 12:03 24,8 °C 26,4 °C 63 % 62 % 1018,6 hPa 0,0 l/m² 6,4 km/h (2 Bft) W-NW 292 ° 1 min 844 W/m² 18,5 °C 26,4 °C 12,9 km/h (3 Bft)
22.08.2023 12:04 24,8 °C 26,6 °C 63 % 62 % 1018,5 hPa 0,0 l/m² 4,8 km/h (1 Bft) W-NW 292 ° 1 min 851 W/m² 18,7 °C 26,6 °C 11,3 km/h (2 Bft)
22.08.2023 12:05 24,8 °C 26,5 °C 63 % 61 % 1018,6 hPa 0,0 l/m² 6,4 km/h (2 Bft) W-NW 292 ° 1 min 875 W/m² 18,4 °C 26,5 °C 11,3 km/h (2 Bft)
22.08.2023 12:06 24,8 °C 26,5 °C 63 % 61 % 1018,5 hPa 0,0 l/m² 3,2 km/h (1 Bft) W-SW 247 ° 1 min 819 W/m² 18,4 °C 26,5 °C 8,0 km/h (2 Bft)
22.08.2023 12:07 24,8 °C 26,5 °C 63 % 62 % 1018,6 hPa 0,0 l/m² 6,4 km/h (2 Bft) W-NW 292 ° 1 min 916 W/m² 18,6 °C 26,5 °C 11,3 km/h (2 Bft)
22.08.2023 12:08 24,8 °C 26,6 °C 63 % 61 % 1018,5 hPa 0,0 l/m² 3,2 km/h (1 Bft) W-NW 292 ° 1 min 823 W/m² 18,4 °C 26,6 °C 9,7 km/h (2 Bft)
22.08.2023 12:09 24,8 °C 26,7 °C 63 % 61 % 1018,6 hPa 0,0 l/m² 1,6 km/h (1 Bft) W-NW 292 ° 1 min 953 W/m² 18,5 °C 26,7 °C 4,8 km/h (1 Bft)
22.08.2023 12:10 24,8 °C 26,7 °C 63 % 61 % 1018,6 hPa 0,0 l/m² 3,2 km/h (1 Bft) W-NW 292 ° 1 min 953 W/m² 18,5 °C 26,7 °C 8,0 km/h (2 Bft)
22.08.2023 12:11 24,8 °C 26,7 °C 63 % 62 % 1018,5 hPa 0,0 l/m² 1,6 km/h (1 Bft) W 270 ° 1 min 737 W/m² 18,8 °C 26,7 °C 4,8 km/h (1 Bft)
22.08.2023 12:12 24,8 °C 26,6 °C 63 % 61 % 1018,5 hPa 0,0 l/m² 3,2 km/h (1 Bft) W 270 ° 1 min 737 W/m² 18,4 °C 26,6 °C 8,0 km/h (2 Bft)
22.08.2023 12:13 24,8 °C 26,6 °C 63 % 62 % 1018,5 hPa 0,0 l/m² 3,2 km/h (1 Bft) N-NW 337 ° 1 min 524 W/m² 18,7 °C 26,6 °C 6,4 km/h (2 Bft)
22.08.2023 12:14 24,8 °C 26,7 °C 63 % 62 % 1018,5 hPa 0,0 l/m² 3,2 km/h (1 Bft) W 270 ° 1 min 907 W/m² 18,8 °C 26,7 °C 6,4 km/h (2 Bft)
22.08.2023 12:15 24,8 °C 26,7 °C 63 % 61 % 1018,4 hPa 0,0 l/m² 3,2 km/h (1 Bft) W-SW 247 ° 1 min 907 W/m² 18,5 °C 26,7 °C 6,4 km/h (2 Bft)
22.08.2023 12:16 24,8 °C 26,8 °C 63 % 64 % 1018,5 hPa 0,0 l/m² 3,2 km/h (1 Bft) W-SW 247 ° 1 min 907 W/m² 19,4 °C 26,8 °C 4,8 km/h (1 Bft)
22.08.2023 12:17 24,8 °C 26,9 °C 63 % 61 % 1018,6 hPa 0,0 l/m² 4,8 km/h (1 Bft) N-NW 337 ° 1 min 907 W/m² 18,7 °C 26,9 °C 8,0 km/h (2 Bft)
22.08.2023 12:18 24,8 °C 26,9 °C 64 % 63 % 1018,5 hPa 0,0 l/m² 4,8 km/h (1 Bft) NW 315 ° 1 min 902 W/m² 19,2 °C 26,9 °C 8,0 km/h (2 Bft)
22.08.2023 12:19 24,8 °C 27,1 °C 63 % 61 % 1018,6 hPa 0,0 l/m² 4,8 km/h (1 Bft) N-NW 337 ° 1 min 879 W/m² 18,9 °C 27,1 °C 9,7 km/h (2 Bft)
22.08.2023 12:20 24,8 °C 27,3 °C 63 % 62 % 1018,5 hPa 0,0 l/m² 6,4 km/h (2 Bft) NW 315 ° 1 min 875 W/m² 19,4 °C 27,3 °C 14,5 km/h (3 Bft)
22.08.2023 12:21 24,8 °C 27,4 °C 63 % 62 % 1018,6 hPa 0,0 l/m² 6,4 km/h (2 Bft) W 270 ° 1 min 872 W/m² 19,5 °C 27,4 °C 12,9 km/h (3 Bft)
22.08.2023 12:22 24,8 °C 27,4 °C 64 % 60 % 1018,5 hPa 0,0 l/m² 9,7 km/h (2 Bft) W 270 ° 1 min 875 W/m² 18,9 °C 26,9 °C 17,7 km/h (3 Bft)
22.08.2023 12:23 24,8 °C 27,4 °C 63 % 60 % 1018,5 hPa 0,0 l/m² 6,4 km/h (2 Bft) W-SW 247 ° 1 min 881 W/m² 18,9 °C 27,4 °C 11,3 km/h (2 Bft)
22.08.2023 12:24 24,8 °C 27,5 °C 63 % 61 % 1018,5 hPa 0,0 l/m² 4,8 km/h (1 Bft) W-NW 292 ° 1 min 882 W/m² 19,3 °C 27,5 °C 9,7 km/h (2 Bft)
22.08.2023 12:25 24,8 °C 27,6 °C 64 % 60 % 1018,5 hPa 0,0 l/m² 6,4 km/h (2 Bft) W-NW 292 ° 1 min 895 W/m² 19,1 °C 27,6 °C 11,3 km/h (2 Bft)
22.08.2023 12:26 24,8 °C 27,7 °C 63 % 61 % 1018,5 hPa 0,0 l/m² 6,4 km/h (2 Bft) W-NW 292 ° 1 min 889 W/m² 19,5 °C 27,7 °C 11,3 km/h (2 Bft)
22.08.2023 12:27 24,8 °C 27,6 °C 63 % 60 % 1018,5 hPa 0,0 l/m² 8,0 km/h (2 Bft) W 270 ° 1 min 902 W/m² 19,1 °C 27,3 °C 12,9 km/h (3 Bft)
22.08.2023 12:28 24,8 °C 27,6 °C 64 % 59 % 1018,6 hPa 0,0 l/m² 9,7 km/h (2 Bft) W 270 ° 1 min 854 W/m² 18,8 °C 27,1 °C 16,1 km/h (3 Bft)
22.08.2023 12:29 24,8 °C 27,6 °C 63 % 60 % 1018,5 hPa 0,0 l/m² 8,0 km/h (2 Bft) N-NW 337 ° 1 min 775 W/m² 19,1 °C 27,3 °C 9,7 km/h (2 Bft)
22.08.2023 12:30 24,8 °C 27,4 °C 64 % 58 % 1018,5 hPa 0,0 l/m² 9,7 km/h (2 Bft) N-NW 337 ° 1 min 418 W/m² 18,4 °C 26,9 °C 14,5 km/h (3 Bft)
22.08.2023 12:31 24,8 °C 27,3 °C 64 % 60 % 1018,5 hPa 0,0 l/m² 8,0 km/h (2 Bft) NW 315 ° 1 min 418 W/m² 18,8 °C 27,0 °C 12,9 km/h (3 Bft)
22.08.2023 12:32 24,8 °C 27,2 °C 64 % 62 % 1018,5 hPa 0,0 l/m² 4,8 km/h (1 Bft) W-NW 292 ° 1 min 418 W/m² 19,3 °C 27,2 °C 6,4 km/h (2 Bft)
22.08.2023 12:33 24,8 °C 27,2 °C 64 % 61 % 1018,5 hPa 0,0 l/m² 8,0 km/h (2 Bft) W 270 ° 1 min 418 W/m² 19,0 °C 26,9 °C 12,9 km/h (3 Bft)
22.08.2023 12:34 24,8 °C 27,2 °C 64 % 59 % 1018,5 hPa 0,0 l/m² 11,3 km/h (2 Bft) W-NW 292 ° 1 min 786 W/m² 18,5 °C 26,4 °C 19,3 km/h (3 Bft)
22.08.2023 12:35 24,8 °C 27,1 °C 63 % 60 % 1018,5 hPa 0,0 l/m² 8,0 km/h (2 Bft) NW 315 ° 1 min 786 W/m² 18,6 °C 26,8 °C 19,3 km/h (3 Bft)
22.08.2023 12:36 24,8 °C 27,1 °C 64 % 60 % 1018,5 hPa 0,0 l/m² 3,2 km/h (1 Bft) W 270 ° 1 min 519 W/m² 18,6 °C 27,1 °C 6,4 km/h (2 Bft)
22.08.2023 12:37 24,8 °C 27,2 °C 64 % 61 % 1018,5 hPa 0,0 l/m² 3,2 km/h (1 Bft) W-NW 292 ° 1 min 909 W/m² 19,0 °C 27,2 °C 11,3 km/h (2 Bft)
22.08.2023 12:38 24,8 °C 27,3 °C 63 % 59 % 1018,5 hPa 0,0 l/m² 6,4 km/h (2 Bft) W 270 ° 1 min 981 W/m² 18,6 °C 27,3 °C 11,3 km/h (2 Bft)
22.08.2023 12:39 24,8 °C 27,4 °C 63 % 61 % 1018,6 hPa 0,0 l/m² 8,0 km/h (2 Bft) NW 315 ° 1 min 981 W/m² 19,2 °C 27,1 °C 14,5 km/h (3 Bft)
22.08.2023 12:40 24,8 °C 27,5 °C 64 % 58 % 1018,5 hPa 0,0 l/m² 9,7 km/h (2 Bft) W 270 ° 1 min 981 W/m² 18,5 °C 27,0 °C 14,5 km/h (3 Bft)
22.08.2023 12:41 24,8 °C 27,7 °C 63 % 60 % 1018,5 hPa 0,0 l/m² 4,8 km/h (1 Bft) W 270 ° 1 min 981 W/m² 19,2 °C 27,7 °C 9,7 km/h (2 Bft)
22.08.2023 12:42 24,8 °C 27,8 °C 64 % 58 % 1018,6 hPa 0,0 l/m² 9,7 km/h (2 Bft) W 270 ° 1 min 981 W/m² 18,8 °C 27,3 °C 16,1 km/h (3 Bft)
22.08.2023 12:43 24,8 °C 27,7 °C 64 % 57 % 1018,6 hPa 0,0 l/m² 8,0 km/h (2 Bft) W-NW 292 ° 1 min 981 W/m² 18,4 °C 27,4 °C 16,1 km/h (3 Bft)
22.08.2023 12:44 24,8 °C 27,5 °C 63 % 58 % 1018,6 hPa 0,0 l/m² 3,2 km/h (1 Bft) W-NW 292 ° 1 min 860 W/m² 18,5 °C 27,5 °C 6,4 km/h (2 Bft)
22.08.2023 12:45 24,8 °C 27,6 °C 63 % 62 % 1018,6 hPa 0,0 l/m² 6,4 km/h (2 Bft) W-SW 247 ° 1 min 884 W/m² 19,6 °C 27,6 °C 12,9 km/h (3 Bft)
22.08.2023 12:46 24,8 °C 27,6 °C 64 % 60 % 1018,5 hPa 0,0 l/m² 6,4 km/h (2 Bft) W-NW 292 ° 1 min 884 W/m² 19,1 °C 27,6 °C 12,9 km/h (3 Bft)
22.08.2023 12:47 24,8 °C 27,6 °C 64 % 58 % 1018,5 hPa 0,0 l/m² 11,3 km/h (2 Bft) W-NW 292 ° 1 min 884 W/m² 18,6 °C 26,9 °C 16,1 km/h (3 Bft)
22.08.2023 12:48 24,8 °C 27,7 °C 64 % 60 % 1018,5 hPa 0,0 l/m² 9,7 km/h (2 Bft) N-NW 337 ° 1 min 888 W/m² 19,2 °C 27,2 °C 12,9 km/h (3 Bft)
22.08.2023 12:49 24,8 °C 27,8 °C 64 % 65 % 1018,5 hPa 0,0 l/m² 8,0 km/h (2 Bft) NW 315 ° 1 min 888 W/m² 20,6 °C 27,5 °C 16,1 km/h (3 Bft)
22.08.2023 12:50 24,8 °C 27,9 °C 64 % 60 % 1018,6 hPa 0,0 l/m² 8,0 km/h (2 Bft) W 270 ° 1 min 888 W/m² 19,4 °C 27,6 °C 16,1 km/h (3 Bft)
22.08.2023 12:51 24,8 °C 27,9 °C 64 % 57 % 1018,6 hPa 0,0 l/m² 6,4 km/h (2 Bft) W-NW 292 ° 1 min 888 W/m² 18,6 °C 27,9 °C 12,9 km/h (3 Bft)
22.08.2023 12:52 24,8 °C 27,8 °C 64 % 58 % 1018,6 hPa 0,0 l/m² 8,0 km/h (2 Bft) N-NW 337 ° 1 min 888 W/m² 18,8 °C 27,5 °C 12,9 km/h (3 Bft)
22.08.2023 12:53 24,8 °C 27,7 °C 64 % 58 % 1018,5 hPa 0,0 l/m² 4,8 km/h (1 Bft) N-NW 337 ° 1 min 888 W/m² 18,7 °C 27,7 °C 12,9 km/h (3 Bft)
22.08.2023 12:54 24,8 °C 27,6 °C 64 % 60 % 1018,6 hPa 0,0 l/m² 8,0 km/h (2 Bft) W-NW 292 ° 1 min 888 W/m² 19,1 °C 27,3 °C 14,5 km/h (3 Bft)
22.08.2023 12:55 24,8 °C 27,6 °C 64 % 58 % 1018,5 hPa 0,0 l/m² 9,7 km/h (2 Bft) W 270 ° 1 min 1013 W/m² 18,6 °C 27,1 °C 12,9 km/h (3 Bft)
22.08.2023 12:56 24,8 °C 27,6 °C 64 % 60 % 1018,6 hPa 0,0 l/m² 6,4 km/h (2 Bft) W 270 ° 1 min 1013 W/m² 19,1 °C 27,6 °C 16,1 km/h (3 Bft)
22.08.2023 12:57 24,8 °C 27,7 °C 64 % 56 % 1018,6 hPa 0,0 l/m² 3,2 km/h (1 Bft) W-NW 292 ° 1 min 1013 W/m² 18,1 °C 27,7 °C 4,8 km/h (1 Bft)
22.08.2023 12:58 24,8 °C 27,7 °C 64 % 55 % 1018,6 hPa 0,0 l/m² 12,9 km/h (3 Bft) W 270 ° 1 min 1013 W/m² 17,8 °C 26,8 °C 19,3 km/h (3 Bft)
22.08.2023 12:59 24,8 °C 27,5 °C 64 % 55 % 1018,6 hPa 0,0 l/m² 12,9 km/h (3 Bft) W 270 ° 1 min 1013 W/m² 17,6 °C 26,6 °C 17,7 km/h (3 Bft)
22.08.2023 13:00 24,8 °C 27,3 °C 64 % 58 % 1018,6 hPa 0,0 l/m² 6,4 km/h (2 Bft) W 270 ° 1 min 392 W/m² 18,3 °C 27,3 °C 14,5 km/h (3 Bft)
22.08.2023 13:01 24,8 °C 27,3 °C 64 % 58 % 1018,6 hPa 0,0 l/m² 6,4 km/h (2 Bft) W-NW 292 ° 1 min 459 W/m² 18,3 °C 27,3 °C 14,5 km/h (3 Bft)
22.08.2023 13:02 24,8 °C 27,2 °C 63 % 58 % 1018,6 hPa 0,0 l/m² 4,8 km/h (1 Bft) W-NW 292 ° 1 min 459 W/m² 18,2 °C 27,2 °C 8,0 km/h (2 Bft)
22.08.2023 13:03 24,8 °C 27,1 °C 64 % 59 % 1018,6 hPa 0,0 l/m² 6,4 km/h (2 Bft) NW 315 ° 1 min 858 W/m² 18,4 °C 27,1 °C 11,3 km/h (2 Bft)
22.08.2023 13:04 24,8 °C 27,1 °C 64 % 57 % 1018,6 hPa 0,0 l/m² 8,0 km/h (2 Bft) W-NW 292 ° 1 min 858 W/m² 17,8 °C 26,8 °C 16,1 km/h (3 Bft)
22.08.2023 13:05 24,8 °C 27,1 °C 64 % 57 % 1018,6 hPa 0,0 l/m² 9,7 km/h (2 Bft) W-NW 292 ° 1 min 492 W/m² 17,8 °C 26,5 °C 16,1 km/h (3 Bft)
22.08.2023 13:06 24,8 °C 27,1 °C 64 % 58 % 1018,6 hPa 0,0 l/m² 6,4 km/h (2 Bft) W 270 ° 1 min 531 W/m² 18,1 °C 27,1 °C 14,5 km/h (3 Bft)
22.08.2023 13:07 24,8 °C 27,0 °C 64 % 60 % 1018,6 hPa 0,0 l/m² 9,7 km/h (2 Bft) W-NW 292 ° 1 min 531 W/m² 18,6 °C 26,4 °C 14,5 km/h (3 Bft)
22.08.2023 13:08 24,8 °C 26,9 °C 64 % 58 % 1018,6 hPa 0,0 l/m² 8,0 km/h (2 Bft) W 270 ° 1 min 605 W/m² 17,9 °C 26,6 °C 12,9 km/h (3 Bft)
22.08.2023 13:09 24,8 °C 26,9 °C 64 % 59 % 1018,6 hPa 0,0 l/m² 8,0 km/h (2 Bft) W 270 ° 1 min 555 W/m² 18,2 °C 26,6 °C 12,9 km/h (3 Bft)
22.08.2023 13:10 24,8 °C 26,9 °C 64 % 58 % 1018,6 hPa 0,0 l/m² 8,0 km/h (2 Bft) N-NW 337 ° 1 min 527 W/m² 17,9 °C 26,6 °C 14,5 km/h (3 Bft)
22.08.2023 13:11 24,8 °C 26,9 °C 64 % 60 % 1018,6 hPa 0,0 l/m² 6,4 km/h (2 Bft) NW 315 ° 1 min 527 W/m² 18,5 °C 26,9 °C 12,9 km/h (3 Bft)
22.08.2023 13:12 24,8 °C 27,1 °C 64 % 59 % 1018,5 hPa 0,0 l/m² 6,4 km/h (2 Bft) W 270 ° 1 min 499 W/m² 18,4 °C 27,1 °C 12,9 km/h (3 Bft)
22.08.2023 13:13 24,8 °C 27,1 °C 64 % 59 % 1018,6 hPa 0,0 l/m² 4,8 km/h (1 Bft) NW 315 ° 1 min 499 W/m² 18,4 °C 27,1 °C 9,7 km/h (2 Bft)
22.08.2023 13:14 24,8 °C 27,1 °C 64 % 59 % 1018,6 hPa 0,0 l/m² 9,7 km/h (2 Bft) W 270 ° 1 min 359 W/m² 18,4 °C 26,5 °C 16,1 km/h (3 Bft)
22.08.2023 13:15 24,8 °C 26,9 °C 64 % 59 % 1018,6 hPa 0,0 l/m² 8,0 km/h (2 Bft) W-NW 292 ° 1 min 359 W/m² 18,2 °C 26,6 °C 12,9 km/h (3 Bft)
22.08.2023 13:16 24,8 °C 26,9 °C 64 % 60 % 1018,6 hPa 0,0 l/m² 6,4 km/h (2 Bft) W-NW 292 ° 1 min 383 W/m² 18,5 °C 26,9 °C 12,9 km/h (3 Bft)
22.08.2023 13:17 24,8 °C 26,9 °C 64 % 59 % 1018,6 hPa 0,0 l/m² 9,7 km/h (2 Bft) NW 315 ° 1 min 403 W/m² 18,2 °C 26,3 °C 12,9 km/h (3 Bft)
22.08.2023 13:18 24,8 °C 26,8 °C 64 % 58 % 1018,5 hPa 0,0 l/m² 9,7 km/h (2 Bft) NW 315 ° 1 min 366 W/m² 17,8 °C 26,2 °C 14,5 km/h (3 Bft)
22.08.2023 13:19 24,8 °C 26,7 °C 64 % 59 % 1018,6 hPa 0,0 l/m² 4,8 km/h (1 Bft) N-NW 337 ° 1 min 364 W/m² 18,0 °C 26,7 °C 9,7 km/h (2 Bft)
22.08.2023 13:20 24,8 °C 26,7 °C 64 % 60 % 1018,5 hPa 0,0 l/m² 4,8 km/h (1 Bft) N-NW 337 ° 1 min 376 W/m² 18,3 °C 26,7 °C 12,9 km/h (3 Bft)
22.08.2023 13:21 24,8 °C 26,7 °C 64 % 61 % 1018,6 hPa 0,0 l/m² 6,4 km/h (2 Bft) W-NW 292 ° 1 min 383 W/m² 18,5 °C 26,7 °C 14,5 km/h (3 Bft)
22.08.2023 13:22 24,9 °C 26,7 °C 64 % 59 % 1018,7 hPa 0,0 l/m² 4,8 km/h (1 Bft) NW 315 ° 1 min 396 W/m² 18,0 °C 26,7 °C 6,4 km/h (2 Bft)
22.08.2023 13:23 24,8 °C 26,5 °C 64 % 58 % 1018,7 hPa 0,0 l/m² 4,8 km/h (1 Bft) W-NW 292 ° 1 min 439 W/m² 17,5 °C 26,5 °C 6,4 km/h (2 Bft)
22.08.2023 13:24 24,8 °C 26,4 °C 64 % 60 % 1018,7 hPa 0,0 l/m² 6,4 km/h (2 Bft) NW 315 ° 1 min 446 W/m² 18,0 °C 26,4 °C 9,7 km/h (2 Bft)
22.08.2023 13:25 24,8 °C 26,4 °C 64 % 61 % 1018,6 hPa 0,0 l/m² 8,0 km/h (2 Bft) NW 315 ° 1 min 446 W/m² 18,3 °C 26,1 °C 12,9 km/h (3 Bft)
22.08.2023 13:26 24,8 °C 26,5 °C 64 % 61 % 1018,6 hPa 0,0 l/m² 8,0 km/h (2 Bft) W-NW 292 ° 1 min 656 W/m² 18,4 °C 26,2 °C 11,3 km/h (2 Bft)
22.08.2023 13:27 24,8 °C 26,7 °C 64 % 60 % 1018,7 hPa 0,0 l/m² 8,0 km/h (2 Bft) W-NW 292 ° 1 min 656 W/m² 18,3 °C 26,4 °C 16,1 km/h (3 Bft)
22.08.2023 13:28 24,8 °C 26,7 °C 64 % 60 % 1018,7 hPa 0,0 l/m² 12,9 km/h (3 Bft) NW 315 ° 1 min 703 W/m² 18,3 °C 25,6 °C 17,7 km/h (3 Bft)
22.08.2023 13:29 24,8 °C 26,7 °C 64 % 59 % 1018,7 hPa 0,0 l/m² 11,3 km/h (2 Bft) NW 315 ° 1 min 541 W/m² 18,0 °C 25,8 °C 14,5 km/h (3 Bft)
22.08.2023 13:30 24,9 °C 26,7 °C 64 % 60 % 1018,8 hPa 0,0 l/m² 11,3 km/h (2 Bft) W-NW 292 ° 1 min 541 W/m² 18,3 °C 25,8 °C 16,1 km/h (3 Bft)
22.08.2023 13:31 24,8 °C 26,7 °C 64 % 59 % 1018,8 hPa 0,0 l/m² 4,8 km/h (1 Bft) N-NW 337 ° 1 min 541 W/m² 18,0 °C 26,7 °C 8,0 km/h (2 Bft)
22.08.2023 13:32 24,8 °C 26,7 °C 64 % 60 % 1018,7 hPa 0,0 l/m² 8,0 km/h (2 Bft) N-NW 337 ° 1 min 461 W/m² 18,3 °C 26,4 °C 16,1 km/h (3 Bft)
22.08.2023 13:33 24,9 °C 26,7 °C 64 % 60 % 1018,7 hPa 0,0 l/m² 9,7 km/h (2 Bft) N-NW 337 ° 1 min 548 W/m² 18,3 °C 26,1 °C 17,7 km/h (3 Bft)
22.08.2023 13:34 24,9 °C 26,7 °C 64 % 61 % 1018,7 hPa 0,0 l/m² 3,2 km/h (1 Bft) NW 315 ° 1 min 599 W/m² 18,5 °C 26,7 °C 8,0 km/h (2 Bft)
22.08.2023 13:35 24,8 °C 26,8 °C 64 % 60 % 1018,8 hPa 0,0 l/m² 4,8 km/h (1 Bft) W-NW 292 ° 1 min 399 W/m² 18,4 °C 26,8 °C 9,7 km/h (2 Bft)
22.08.2023 13:36 24,9 °C 26,8 °C 64 % 61 % 1018,8 hPa 0,0 l/m² 3,2 km/h (1 Bft) W 270 ° 1 min 418 W/m² 18,6 °C 26,8 °C 6,4 km/h (2 Bft)
22.08.2023 13:37 24,9 °C 26,8 °C 64 % 59 % 1018,7 hPa 0,0 l/m² 8,0 km/h (2 Bft) W-NW 292 ° 1 min 378 W/m² 18,1 °C 26,5 °C 12,9 km/h (3 Bft)
22.08.2023 13:38 24,9 °C 26,7 °C 64 % 58 % 1018,7 hPa 0,0 l/m² 8,0 km/h (2 Bft) W 270 ° 1 min 429 W/m² 17,7 °C 26,4 °C 12,9 km/h (3 Bft)
22.08.2023 13:39 24,8 °C 26,7 °C 64 % 59 % 1018,7 hPa 0,0 l/m² 4,8 km/h (1 Bft) W 270 ° 1 min 429 W/m² 18,0 °C 26,7 °C 8,0 km/h (2 Bft)
22.08.2023 13:40 24,9 °C 26,7 °C 64 % 61 % 1018,7 hPa 0,0 l/m² 3,2 km/h (1 Bft) W 270 ° 1 min 429 W/m² 18,5 °C 26,7 °C 6,4 km/h (2 Bft)
22.08.2023 13:41 24,8 °C 26,7 °C 64 % 59 % 1018,8 hPa 0,0 l/m² 6,4 km/h (2 Bft) W 270 ° 1 min 429 W/m² 18,0 °C 26,7 °C 11,3 km/h (2 Bft)
22.08.2023 13:42 24,8 °C 26,6 °C 64 % 60 % 1018,8 hPa 0,0 l/m² 4,8 km/h (1 Bft) W 270 ° 1 min 413 W/m² 18,2 °C 26,6 °C 11,3 km/h (2 Bft)
22.08.2023 13:43 24,8 °C 26,5 °C 64 % 60 % 1018,7 hPa 0,0 l/m² 3,2 km/h (1 Bft) W-NW 292 ° 1 min 413 W/m² 18,1 °C 26,5 °C 6,4 km/h (2 Bft)
22.08.2023 13:44 24,8 °C 26,5 °C 64 % 60 % 1018,7 hPa 0,0 l/m² 1,6 km/h (1 Bft) W-NW 292 ° 1 min 413 W/m² 18,1 °C 26,5 °C 3,2 km/h (1 Bft)
22.08.2023 13:45 24,8 °C 26,6 °C 64 % 61 % 1018,7 hPa 0,0 l/m² 3,2 km/h (1 Bft) W-SW 247 ° 1 min 413 W/m² 18,4 °C 26,6 °C 4,8 km/h (1 Bft)
22.08.2023 13:46 24,9 °C 26,9 °C 64 % 62 % 1018,7 hPa 0,0 l/m² 9,7 km/h (2 Bft) W-NW 292 ° 1 min 657 W/m² 19,0 °C 26,3 °C 17,7 km/h (3 Bft)
22.08.2023 13:47 24,9 °C 26,8 °C 64 % 58 % 1018,8 hPa 0,0 l/m² 4,8 km/h (1 Bft) W-NW 292 ° 1 min 657 W/m² 17,8 °C 26,8 °C 8,0 km/h (2 Bft)
22.08.2023 13:48 24,8 °C 26,8 °C 64 % 59 % 1018,8 hPa 0,0 l/m² 3,2 km/h (1 Bft) NW 315 ° 1 min 657 W/m² 18,1 °C 26,8 °C 6,4 km/h (2 Bft)
22.08.2023 13:49 24,8 °C 26,8 °C 64 % 61 % 1018,7 hPa 0,0 l/m² 4,8 km/h (1 Bft) W-NW 292 ° 1 min 831 W/m² 18,6 °C 26,8 °C 8,0 km/h (2 Bft)
22.08.2023 13:50 24,9 °C 26,9 °C 64 % 58 % 1018,7 hPa 0,0 l/m² 3,2 km/h (1 Bft) N-NW 337 ° 1 min 856 W/m² 17,9 °C 26,9 °C 6,4 km/h (2 Bft)
22.08.2023 13:51 24,9 °C 26,9 °C 64 % 58 % 1018,8 hPa 0,0 l/m² 4,8 km/h (1 Bft) W-NW 292 ° 1 min 856 W/m² 17,9 °C 26,9 °C 9,7 km/h (2 Bft)
22.08.2023 13:52 24,8 °C 26,8 °C 64 % 61 % 1018,7 hPa 0,0 l/m² 3,2 km/h (1 Bft) W-SW 247 ° 1 min 856 W/m² 18,6 °C 26,8 °C 6,4 km/h (2 Bft)
22.08.2023 13:53 24,8 °C 27,1 °C 64 % 60 % 1018,7 hPa 0,0 l/m² 0,0 km/h (0 Bft) SW 225 ° 1 min 652 W/m² 18,6 °C 27,1 °C 1,6 km/h (1 Bft)
22.08.2023 13:54 24,9 °C 27,3 °C 64 % 63 % 1018,7 hPa 0,0 l/m² 3,2 km/h (1 Bft) NW 315 ° 1 min 652 W/m² 19,6 °C 27,3 °C 8,0 km/h (2 Bft)
22.08.2023 13:55 24,9 °C 27,4 °C 64 % 59 % 1018,7 hPa 0,0 l/m² 12,9 km/h (3 Bft) N-NW 337 ° 1 min 898 W/m² 18,7 °C 26,4 °C 20,9 km/h (4 Bft)
22.08.2023 13:56 24,8 °C 27,4 °C 64 % 60 % 1018,6 hPa 0,0 l/m² 14,5 km/h (3 Bft) W-NW 292 ° 1 min 858 W/m² 18,9 °C 26,3 °C 22,5 km/h (4 Bft)
22.08.2023 13:57 24,9 °C 27,7 °C 64 % 59 % 1018,7 hPa 0,0 l/m² 4,8 km/h (1 Bft) W 270 ° 1 min 840 W/m² 18,9 °C 27,7 °C 22,5 km/h (4 Bft)
22.08.2023 13:58 24,9 °C 27,7 °C 64 % 59 % 1018,8 hPa 0,0 l/m² 6,4 km/h (2 Bft) W-NW 292 ° 1 min 840 W/m² 18,9 °C 27,7 °C 9,7 km/h (2 Bft)
22.08.2023 13:59 24,9 °C 27,8 °C 64 % 58 % 1018,7 hPa 0,0 l/m² 8,0 km/h (2 Bft) NW 315 ° 1 min 844 W/m² 18,8 °C 27,5 °C 16,1 km/h (3 Bft)
22.08.2023 14:00 24,9 °C 27,8 °C 64 % 58 % 1018,7 hPa 0,0 l/m² 12,9 km/h (3 Bft) NW 315 ° 1 min 860 W/m² 18,8 °C 26,9 °C 20,9 km/h (4 Bft)
22.08.2023 14:01 24,9 °C 27,7 °C 64 % 57 % 1018,8 hPa 0,0 l/m² 9,7 km/h (2 Bft) NW 315 ° 1 min 881 W/m² 18,4 °C 27,2 °C 16,1 km/h (3 Bft)
22.08.2023 14:02 24,9 °C 27,7 °C 64 % 59 % 1018,7 hPa 0,0 l/m² 6,4 km/h (2 Bft) N 360 ° 1 min 881 W/m² 18,9 °C 27,7 °C 14,5 km/h (3 Bft)
22.08.2023 14:03 24,9 °C 27,6 °C 64 % 58 % 1018,7 hPa 0,0 l/m² 4,8 km/h (1 Bft) N 360 ° 1 min 881 W/m² 18,6 °C 27,6 °C 8,0 km/h (2 Bft)
22.08.2023 14:04 24,9 °C 27,6 °C 64 % 58 % 1018,7 hPa 0,0 l/m² 8,0 km/h (2 Bft) NW 315 ° 1 min 575 W/m² 18,6 °C 27,3 °C 12,9 km/h (3 Bft)
22.08.2023 14:05 24,9 °C 27,5 °C 64 % 58 % 1018,7 hPa 0,0 l/m² 12,9 km/h (3 Bft) N 360 ° 1 min 540 W/m² 18,5 °C 26,6 °C 17,7 km/h (3 Bft)
22.08.2023 14:06 24,9 °C 27,5 °C 64 % 59 % 1018,7 hPa 0,0 l/m² 11,3 km/h (2 Bft) N-NW 337 ° 1 min 608 W/m² 18,8 °C 26,8 °C 16,1 km/h (3 Bft)
22.08.2023 14:07 24,9 °C 27,5 °C 64 % 58 % 1018,7 hPa 0,0 l/m² 8,0 km/h (2 Bft) NW 315 ° 1 min 608 W/m² 18,5 °C 27,2 °C 14,5 km/h (3 Bft)
22.08.2023 14:08 24,9 °C 27,4 °C 64 % 57 % 1018,7 hPa 0,0 l/m² 11,3 km/h (2 Bft) N-NW 337 ° 1 min 608 W/m² 18,1 °C 26,6 °C 16,1 km/h (3 Bft)
22.08.2023 14:09 24,9 °C 27,2 °C 64 % 57 % 1018,7 hPa 0,0 l/m² 8,0 km/h (2 Bft) N-NW 337 ° 1 min 608 W/m² 17,9 °C 26,9 °C 12,9 km/h (3 Bft)
22.08.2023 14:10 24,9 °C 27,1 °C 64 % 57 % 1018,7 hPa 0,0 l/m² 8,0 km/h (2 Bft) N-NW 337 ° 1 min 914 W/m² 17,8 °C 26,8 °C 12,9 km/h (3 Bft)
22.08.2023 14:11 24,9 °C 27,1 °C 64 % 58 % 1018,6 hPa 0,0 l/m² 6,4 km/h (2 Bft) NW 315 ° 1 min 914 W/m² 18,1 °C 27,1 °C 12,9 km/h (3 Bft)
22.08.2023 14:12 24,9 °C 27,1 °C 64 % 59 % 1018,7 hPa 0,0 l/m² 6,4 km/h (2 Bft) NW 315 ° 1 min 914 W/m² 18,4 °C 27,1 °C 8,0 km/h (2 Bft)
22.08.2023 14:13 24,9 °C 27,2 °C 64 % 59 % 1018,6 hPa 0,0 l/m² 6,4 km/h (2 Bft) W 270 ° 1 min 914 W/m² 18,5 °C 27,2 °C 14,5 km/h (3 Bft)
22.08.2023 14:14 24,9 °C 27,3 °C 64 % 60 % 1018,7 hPa 0,0 l/m² 4,8 km/h (1 Bft) W 270 ° 1 min 914 W/m² 18,8 °C 27,3 °C 11,3 km/h (2 Bft)
22.08.2023 14:15 24,9 °C 27,3 °C 64 % 59 % 1018,6 hPa 0,0 l/m² 4,8 km/h (1 Bft) W-SW 247 ° 1 min 914 W/m² 18,6 °C 27,3 °C 9,7 km/h (2 Bft)
22.08.2023 14:16 24,9 °C 27,4 °C 64 % 59 % 1018,5 hPa 0,0 l/m² 6,4 km/h (2 Bft) NW 315 ° 1 min 557 W/m² 18,7 °C 27,4 °C 11,3 km/h (2 Bft)
22.08.2023 14:17 24,9 °C 27,4 °C 64 % 58 % 1018,7 hPa 0,0 l/m² 4,8 km/h (1 Bft) NW 315 ° 1 min 557 W/m² 18,4 °C 27,4 °C 9,7 km/h (2 Bft)
22.08.2023 14:18 24,9 °C 27,4 °C 64 % 57 % 1018,6 hPa 0,0 l/m² 3,2 km/h (1 Bft) W-NW 292 ° 1 min 557 W/m² 18,1 °C 27,4 °C 11,3 km/h (2 Bft)
22.08.2023 14:19 24,9 °C 27,4 °C 64 % 57 % 1018,6 hPa 0,0 l/m² 8,0 km/h (2 Bft) W-NW 292 ° 1 min 557 W/m² 18,1 °C 27,1 °C 14,5 km/h (3 Bft)
22.08.2023 14:20 24,9 °C 27,3 °C 64 % 59 % 1018,6 hPa 0,0 l/m² 4,8 km/h (1 Bft) W 270 ° 1 min 758 W/m² 18,6 °C 27,3 °C 11,3 km/h (2 Bft)
22.08.2023 14:21 24,9 °C 27,4 °C 64 % 57 % 1018,6 hPa 0,0 l/m² 4,8 km/h (1 Bft) N-NW 337 ° 1 min 758 W/m² 18,1 °C 27,4 °C 6,4 km/h (2 Bft)
22.08.2023 14:22 24,9 °C 27,3 °C 64 % 55 % 1018,6 hPa 0,0 l/m² 0,0 km/h (0 Bft) N-NW 337 ° 1 min 937 W/m² 17,4 °C 27,3 °C 3,2 km/h (1 Bft)
22.08.2023 14:23 24,9 °C 27,3 °C 64 % 56 % 1018,7 hPa 0,0 l/m² 1,6 km/h (1 Bft) N-NW 337 ° 1 min 916 W/m² 17,7 °C 27,3 °C 4,8 km/h (1 Bft)
22.08.2023 14:24 24,9 °C 27,4 °C 64 % 58 % 1018,6 hPa 0,0 l/m² 3,2 km/h (1 Bft) N-NW 337 ° 1 min 916 W/m² 18,4 °C 27,4 °C 4,8 km/h (1 Bft)
22.08.2023 14:25 24,9 °C 27,6 °C 64 % 59 % 1018,6 hPa 0,0 l/m² 4,8 km/h (1 Bft) W 270 ° 1 min 916 W/m² 18,8 °C 27,6 °C 9,7 km/h (2 Bft)
22.08.2023 14:26 24,9 °C 27,6 °C 64 % 58 % 1018,6 hPa 0,0 l/m² 1,6 km/h (1 Bft) W 270 ° 1 min 548 W/m² 18,6 °C 27,6 °C 6,4 km/h (2 Bft)
22.08.2023 14:27 24,9 °C 27,7 °C 64 % 57 % 1018,6 hPa 0,0 l/m² 6,4 km/h (2 Bft) W 270 ° 1 min 483 W/m² 18,4 °C 27,7 °C 16,1 km/h (3 Bft)
22.08.2023 14:28 24,9 °C 27,7 °C 64 % 58 % 1018,6 hPa 0,0 l/m² 8,0 km/h (2 Bft) NW 315 ° 1 min 483 W/m² 18,7 °C 27,4 °C 14,5 km/h (3 Bft)
22.08.2023 14:29 24,9 °C 27,8 °C 64 % 58 % 1018,6 hPa 0,0 l/m² 4,8 km/h (1 Bft) NW 315 ° 1 min 483 W/m² 18,8 °C 27,8 °C 9,7 km/h (2 Bft)
22.08.2023 14:30 24,9 °C 27,7 °C 64 % 57 % 1018,6 hPa 0,0 l/m² 8,0 km/h (2 Bft) N-NW 337 ° 1 min 483 W/m² 18,4 °C 27,4 °C 14,5 km/h (3 Bft)
22.08.2023 14:31 24,9 °C 27,4 °C 64 % 58 % 1018,6 hPa 0,0 l/m² 8,0 km/h (2 Bft) N-NW 337 ° 1 min 346 W/m² 18,4 °C 27,1 °C 12,9 km/h (3 Bft)
22.08.2023 14:32 24,9 °C 27,3 °C 64 % 57 % 1018,6 hPa 0,0 l/m² 4,8 km/h (1 Bft) NW 315 ° 1 min 417 W/m² 18,0 °C 27,3 °C 6,4 km/h (2 Bft)
22.08.2023 14:33 24,9 °C 27,2 °C 64 % 58 % 1018,6 hPa 0,0 l/m² 3,2 km/h (1 Bft) W-NW 292 ° 1 min 406 W/m² 18,2 °C 27,2 °C 4,8 km/h (1 Bft)
22.08.2023 14:34 24,9 °C 27,2 °C 64 % 58 % 1018,6 hPa 0,0 l/m² 1,6 km/h (1 Bft) W 270 ° 1 min 380 W/m² 18,2 °C 27,2 °C 4,8 km/h (1 Bft)
22.08.2023 14:35 24,9 °C 27,3 °C 64 % 59 % 1018,7 hPa 0,0 l/m² 3,2 km/h (1 Bft) W 270 ° 1 min 385 W/m² 18,6 °C 27,3 °C 6,4 km/h (2 Bft)
22.08.2023 14:36 24,9 °C 27,2 °C 64 % 58 % 1018,6 hPa 0,0 l/m² 1,6 km/h (1 Bft) W 270 ° 1 min 383 W/m² 18,2 °C 27,2 °C 3,2 km/h (1 Bft)
22.08.2023 14:37 24,9 °C 27,3 °C 64 % 58 % 1018,6 hPa 0,0 l/m² 3,2 km/h (1 Bft) W-NW 292 ° 1 min 360 W/m² 18,3 °C 27,3 °C 4,8 km/h (1 Bft)
22.08.2023 14:38 24,9 °C 27,3 °C 64 % 61 % 1018,6 hPa 0,0 l/m² 4,8 km/h (1 Bft) W-NW 292 ° 1 min 380 W/m² 19,1 °C 27,3 °C 8,0 km/h (2 Bft)
22.08.2023 14:39 24,9 °C 27,3 °C 64 % 60 % 1018,5 hPa 0,0 l/m² 6,4 km/h (2 Bft) NW 315 ° 1 min 923 W/m² 18,8 °C 27,3 °C 9,7 km/h (2 Bft)
22.08.2023 14:40 24,9 °C 27,6 °C 64 % 58 % 1018,6 hPa 0,0 l/m² 3,2 km/h (1 Bft) W-SW 247 ° 1 min 923 W/m² 18,6 °C 27,6 °C 6,4 km/h (2 Bft)
22.08.2023 14:41 24,9 °C 27,7 °C 64 % 57 % 1018,5 hPa 0,0 l/m² 4,8 km/h (1 Bft) NW 315 ° 1 min 923 W/m² 18,4 °C 27,7 °C 8,0 km/h (2 Bft)
22.08.2023 14:42 24,9 °C 27,6 °C 64 % 57 % 1018,5 hPa 0,0 l/m² 1,6 km/h (1 Bft) W-NW 292 ° 1 min 923 W/m² 18,3 °C 27,6 °C 4,8 km/h (1 Bft)
22.08.2023 14:43 24,9 °C 27,4 °C 64 % 56 % 1018,6 hPa 0,0 l/m² 6,4 km/h (2 Bft) N-NW 337 ° 1 min 923 W/m² 17,8 °C 27,4 °C 12,9 km/h (3 Bft)
22.08.2023 14:44 24,9 °C 27,4 °C 64 % 57 % 1018,5 hPa 0,0 l/m² 4,8 km/h (1 Bft) N-NW 337 ° 1 min 717 W/m² 18,1 °C 27,4 °C 6,4 km/h (2 Bft)
22.08.2023 14:45 24,9 °C 27,4 °C 64 % 58 % 1018,6 hPa 0,0 l/m² 4,8 km/h (1 Bft) W-NW 292 ° 1 min 717 W/m² 18,4 °C 27,4 °C 6,4 km/h (2 Bft)
22.08.2023 14:46 24,9 °C 27,3 °C 64 % 58 % 1018,6 hPa 0,0 l/m² 1,6 km/h (1 Bft) W-NW 292 ° 1 min 717 W/m² 18,3 °C 27,3 °C 3,2 km/h (1 Bft)
22.08.2023 14:47 24,9 °C 27,4 °C 64 % 57 % 1018,6 hPa 0,0 l/m² 0,0 km/h (0 Bft) W-NW 292 ° 1 min 717 W/m² 18,1 °C 27,4 °C 1,6 km/h (1 Bft)
22.08.2023 14:48 24,9 °C 27,4 °C 64 % 56 % 1018,6 hPa 0,0 l/m² 0,0 km/h (0 Bft) NW 315 ° 1 min 882 W/m² 17,8 °C 27,4 °C 1,6 km/h (1 Bft)
22.08.2023 14:49 24,9 °C 27,6 °C 64 % 59 % 1018,7 hPa 0,0 l/m² 1,6 km/h (1 Bft) SW 225 ° 1 min 833 W/m² 18,8 °C 27,6 °C 3,2 km/h (1 Bft)
22.08.2023 14:50 24,9 °C 27,8 °C 64 % 60 % 1018,6 hPa 0,0 l/m² 1,6 km/h (1 Bft) W-NW 292 ° 1 min 833 W/m² 19,3 °C 27,8 °C 4,8 km/h (1 Bft)
22.08.2023 14:51 24,9 °C 27,9 °C 64 % 59 % 1018,6 hPa 0,0 l/m² 0,0 km/h (0 Bft) W-NW 292 ° 1 min 833 W/m² 19,1 °C 27,9 °C 1,6 km/h (1 Bft)
22.08.2023 14:52 24,9 °C 28,1 °C 64 % 59 % 1018,6 hPa 0,0 l/m² 1,6 km/h (1 Bft) W-SW 247 ° 1 min 374 W/m² 19,3 °C 28,1 °C 6,4 km/h (2 Bft)
22.08.2023 14:53 24,9 °C 28,1 °C 64 % 59 % 1018,6 hPa 0,0 l/m² 1,6 km/h (1 Bft) W-SW 247 ° 1 min 429 W/m² 19,3 °C 28,1 °C 4,8 km/h (1 Bft)
22.08.2023 14:54 24,9 °C 28,1 °C 64 % 58 % 1018,5 hPa 0,0 l/m² 6,4 km/h (2 Bft) N 360 ° 1 min 429 W/m² 19,0 °C 28,1 °C 14,5 km/h (3 Bft)
22.08.2023 14:55 24,9 °C 28,0 °C 64 % 55 % 1018,5 hPa 0,0 l/m² 11,3 km/h (2 Bft) N 360 ° 1 min 585 W/m² 18,1 °C 27,3 °C 16,1 km/h (3 Bft)
22.08.2023 14:56 24,9 °C 27,8 °C 64 % 56 % 1018,5 hPa 0,0 l/m² 4,8 km/h (1 Bft) N-NW 337 ° 1 min 613 W/m² 18,2 °C 27,8 °C 6,4 km/h (2 Bft)
22.08.2023 14:57 24,9 °C 27,9 °C 64 % 58 % 1018,5 hPa 0,0 l/m² 3,2 km/h (1 Bft) W-NW 292 ° 1 min 613 W/m² 18,9 °C 27,9 °C 4,8 km/h (1 Bft)
22.08.2023 14:58 24,9 °C 28,1 °C 64 % 58 % 1018,4 hPa 0,0 l/m² 4,8 km/h (1 Bft) N-NW 337 ° 1 min 613 W/m² 19,0 °C 28,1 °C 9,7 km/h (2 Bft)
22.08.2023 14:59 24,9 °C 28,1 °C 64 % 56 % 1018,4 hPa 0,0 l/m² 4,8 km/h (1 Bft) NW 315 ° 1 min 719 W/m² 18,5 °C 28,1 °C 9,7 km/h (2 Bft)
22.08.2023 15:00 24,9 °C 27,9 °C 64 % 55 % 1018,4 hPa 0,0 l/m² 3,2 km/h (1 Bft) NW 315 ° 1 min 719 W/m² 18,0 °C 27,9 °C 4,8 km/h (1 Bft)
22.08.2023 15:01 24,9 °C 27,8 °C 64 % 56 % 1018,3 hPa 0,0 l/m² 1,6 km/h (1 Bft) N 360 ° 1 min 584 W/m² 18,2 °C 27,8 °C 4,8 km/h (1 Bft)
22.08.2023 15:02 24,9 °C 27,7 °C 64 % 56 % 1018,4 hPa 0,0 l/m² 3,2 km/h (1 Bft) O-NO 67 ° 1 min 584 W/m² 18,1 °C 27,7 °C 4,8 km/h (1 Bft)
22.08.2023 15:03 24,9 °C 27,7 °C 64 % 57 % 1018,4 hPa 0,0 l/m² 0,0 km/h (0 Bft) NO 45 ° 1 min 503 W/m² 18,4 °C 27,7 °C 1,6 km/h (1 Bft)
22.08.2023 15:04 24,9 °C 27,6 °C 64 % 55 % 1018,3 hPa 0,0 l/m² 0,0 km/h (0 Bft) N 0 ° 1 min 490 W/m² 17,7 °C 27,6 °C 0,0 km/h (0 Bft)
22.08.2023 15:05 24,9 °C 27,7 °C 64 % 57 % 1018,3 hPa 0,0 l/m² 4,8 km/h (1 Bft) W-NW 292 ° 1 min 492 W/m² 18,4 °C 27,7 °C 8,0 km/h (2 Bft)
22.08.2023 15:06 25,0 °C 27,8 °C 64 % 56 % 1018,2 hPa 0,0 l/m² 4,8 km/h (1 Bft) NW 315 ° 1 min 568 W/m² 18,2 °C 27,8 °C 8,0 km/h (2 Bft)
22.08.2023 15:07 24,9 °C 27,8 °C 64 % 56 % 1018,4 hPa 0,0 l/m² 6,4 km/h (2 Bft) NW 315 ° 1 min 568 W/m² 18,2 °C 27,8 °C 14,5 km/h (3 Bft)
22.08.2023 15:08 24,9 °C 27,9 °C 64 % 56 % 1018,3 hPa 0,0 l/m² 8,0 km/h (2 Bft) W-NW 292 ° 1 min 434 W/m² 18,3 °C 27,6 °C 12,9 km/h (3 Bft)
22.08.2023 15:09 24,9 °C 27,9 °C 64 % 56 % 1018,3 hPa 0,0 l/m² 3,2 km/h (1 Bft) W-NW 292 ° 1 min 388 W/m² 18,3 °C 27,9 °C 6,4 km/h (2 Bft)
22.08.2023 15:10 24,9 °C 27,9 °C 64 % 58 % 1018,3 hPa 0,0 l/m² 3,2 km/h (1 Bft) W 270 ° 1 min 369 W/m² 18,9 °C 27,9 °C 4,8 km/h (1 Bft)
22.08.2023 15:11 24,9 °C 27,8 °C 64 % 57 % 1018,3 hPa 0,0 l/m² 6,4 km/h (2 Bft) W 270 ° 1 min 359 W/m² 18,5 °C 27,8 °C 12,9 km/h (3 Bft)
22.08.2023 15:12 24,9 °C 27,8 °C 64 % 57 % 1018,2 hPa 0,0 l/m² 6,4 km/h (2 Bft) W 270 ° 1 min 341 W/m² 18,5 °C 27,8 °C 12,9 km/h (3 Bft)
22.08.2023 15:13 24,9 °C 27,8 °C 64 % 56 % 1018,3 hPa 0,0 l/m² 8,0 km/h (2 Bft) W 270 ° 1 min 320 W/m² 18,2 °C 27,5 °C 16,1 km/h (3 Bft)
22.08.2023 15:14 24,9 °C 27,8 °C 64 % 56 % 1018,3 hPa 0,0 l/m² 8,0 km/h (2 Bft) W-NW 292 ° 1 min 309 W/m² 18,2 °C 27,5 °C 12,9 km/h (3 Bft)
22.08.2023 15:15 24,9 °C 27,7 °C 64 % 56 % 1018,3 hPa 0,0 l/m² 8,0 km/h (2 Bft) W-NW 292 ° 1 min 295 W/m² 18,1 °C 27,4 °C 12,9 km/h (3 Bft)
22.08.2023 15:16 24,9 °C 27,6 °C 64 % 56 % 1018,3 hPa 0,0 l/m² 4,8 km/h (1 Bft) W-NW 292 ° 1 min 294 W/m² 18,0 °C 27,6 °C 11,3 km/h (2 Bft)
22.08.2023 15:17 24,9 °C 27,5 °C 64 % 57 % 1018,4 hPa 0,0 l/m² 3,2 km/h (1 Bft) NW 315 ° 1 min 283 W/m² 18,2 °C 27,5 °C 6,4 km/h (2 Bft)
22.08.2023 15:18 25,0 °C 27,4 °C 64 % 56 % 1018,4 hPa 0,0 l/m² 4,8 km/h (1 Bft) NW 315 ° 1 min 274 W/m² 17,8 °C 27,4 °C 9,7 km/h (2 Bft)
22.08.2023 15:19 24,9 °C 27,3 °C 64 % 56 % 1018,3 hPa 0,0 l/m² 6,4 km/h (2 Bft) W-NW 292 ° 1 min 267 W/m² 17,7 °C 27,3 °C 8,0 km/h (2 Bft)
22.08.2023 15:20 24,9 °C 27,2 °C 64 % 56 % 1018,4 hPa 0,0 l/m² 6,4 km/h (2 Bft) NW 315 ° 1 min 262 W/m² 17,6 °C 27,2 °C 8,0 km/h (2 Bft)
22.08.2023 15:21 24,9 °C 27,2 °C 64 % 57 % 1018,4 hPa 0,0 l/m² 4,8 km/h (1 Bft) NW 315 ° 1 min 258 W/m² 17,9 °C 27,2 °C 12,9 km/h (3 Bft)
22.08.2023 15:22 24,9 °C 27,1 °C 64 % 58 % 1018,3 hPa 0,0 l/m² 3,2 km/h (1 Bft) NW 315 ° 1 min 258 W/m² 18,1 °C 27,1 °C 6,4 km/h (2 Bft)
22.08.2023 15:23 25,0 °C 27,2 °C 64 % 58 % 1018,3 hPa 0,0 l/m² 4,8 km/h (1 Bft) W-SW 247 ° 1 min 260 W/m² 18,2 °C 27,2 °C 9,7 km/h (2 Bft)
22.08.2023 15:24 24,9 °C 27,3 °C 64 % 58 % 1018,3 hPa 0,0 l/m² 6,4 km/h (2 Bft) W 270 ° 1 min 262 W/m² 18,3 °C 27,3 °C 11,3 km/h (2 Bft)
22.08.2023 15:25 24,9 °C 27,3 °C 64 % 58 % 1018,2 hPa 0,0 l/m² 4,8 km/h (1 Bft) N-NW 337 ° 1 min 262 W/m² 18,3 °C 27,3 °C 9,7 km/h (2 Bft)
22.08.2023 15:26 25,0 °C 27,3 °C 64 % 58 % 1018,3 hPa 0,0 l/m² 6,4 km/h (2 Bft) NW 315 ° 1 min 269 W/m² 18,3 °C 27,3 °C 12,9 km/h (3 Bft)
22.08.2023 15:27 25,0 °C 27,3 °C 64 % 57 % 1018,4 hPa 0,0 l/m² 8,0 km/h (2 Bft) W-NW 292 ° 1 min 272 W/m² 18,0 °C 27,0 °C 16,1 km/h (3 Bft)
22.08.2023 15:28 25,0 °C 27,2 °C 64 % 58 % 1018,3 hPa 0,0 l/m² 9,7 km/h (2 Bft) NW 315 ° 1 min 278 W/m² 18,2 °C 26,6 °C 17,7 km/h (3 Bft)
22.08.2023 15:29 25,0 °C 27,1 °C 64 % 57 % 1018,3 hPa 0,0 l/m² 6,4 km/h (2 Bft) NW 315 ° 1 min 283 W/m² 17,8 °C 27,1 °C 14,5 km/h (3 Bft)
22.08.2023 15:30 25,0 °C 27,1 °C 64 % 58 % 1018,3 hPa 0,0 l/m² 9,7 km/h (2 Bft) N-NW 337 ° 1 min 295 W/m² 18,1 °C 26,5 °C 16,1 km/h (3 Bft)
22.08.2023 15:31 24,9 °C 27,1 °C 64 % 58 % 1018,3 hPa 0,0 l/m² 8,0 km/h (2 Bft) N-NW 337 ° 1 min 302 W/m² 18,1 °C 26,8 °C 14,5 km/h (3 Bft)
22.08.2023 15:32 24,9 °C 27,1 °C 64 % 58 % 1018,3 hPa 0,0 l/m² 6,4 km/h (2 Bft) NW 315 ° 1 min 311 W/m² 18,1 °C 27,1 °C 9,7 km/h (2 Bft)
22.08.2023 15:33 24,9 °C 27,1 °C 64 % 59 % 1018,3 hPa 0,0 l/m² 9,7 km/h (2 Bft) NW 315 ° 1 min 311 W/m² 18,4 °C 26,5 °C 16,1 km/h (3 Bft)
22.08.2023 15:34 24,9 °C 27,1 °C 64 % 57 % 1018,4 hPa 0,0 l/m² 11,3 km/h (2 Bft) NW 315 ° 1 min 309 W/m² 17,8 °C 26,3 °C 14,5 km/h (3 Bft)
22.08.2023 15:35 24,9 °C 27,1 °C 64 % 59 % 1018,4 hPa 0,0 l/m² 6,4 km/h (2 Bft) NW 315 ° 1 min 315 W/m² 18,4 °C 27,1 °C 12,9 km/h (3 Bft)
22.08.2023 15:36 24,9 °C 27,2 °C 64 % 60 % 1018,4 hPa 0,0 l/m² 6,4 km/h (2 Bft) NW 315 ° 1 min 322 W/m² 18,7 °C 27,2 °C 12,9 km/h (3 Bft)
22.08.2023 15:37 25,0 °C 27,2 °C 64 % 58 % 1018,4 hPa 0,0 l/m² 6,4 km/h (2 Bft) W-NW 292 ° 1 min 339 W/m² 18,2 °C 27,2 °C 12,9 km/h (3 Bft)
22.08.2023 15:38 25,0 °C 27,3 °C 64 % 58 % 1018,3 hPa 0,0 l/m² 4,8 km/h (1 Bft) NW 315 ° 1 min 411 W/m² 18,3 °C 27,3 °C 8,0 km/h (2 Bft)
22.08.2023 15:39 25,0 °C 27,3 °C 64 % 60 % 1018,3 hPa 0,0 l/m² 4,8 km/h (1 Bft) NW 315 ° 1 min 483 W/m² 18,8 °C 27,3 °C 12,9 km/h (3 Bft)
22.08.2023 15:40 25,0 °C 27,4 °C 64 % 58 % 1018,4 hPa 0,0 l/m² 4,8 km/h (1 Bft) N-NW 337 ° 1 min 406 W/m² 18,4 °C 27,4 °C 6,4 km/h (2 Bft)
22.08.2023 15:41 24,9 °C 27,4 °C 64 % 57 % 1018,4 hPa 0,0 l/m² 6,4 km/h (2 Bft) NW 315 ° 1 min 439 W/m² 18,1 °C 27,4 °C 11,3 km/h (2 Bft)
22.08.2023 15:42 25,0 °C 27,4 °C 64 % 59 % 1018,4 hPa 0,0 l/m² 6,4 km/h (2 Bft) NW 315 ° 1 min 374 W/m² 18,7 °C 27,4 °C 8,0 km/h (2 Bft)
22.08.2023 15:43 25,0 °C 27,4 °C 64 % 58 % 1018,3 hPa 0,0 l/m² 8,0 km/h (2 Bft) N-NW 337 ° 1 min 357 W/m² 18,4 °C 27,1 °C 11,3 km/h (2 Bft)
22.08.2023 15:44 24,9 °C 27,4 °C 64 % 58 % 1018,3 hPa 0,0 l/m² 9,7 km/h (2 Bft) N-NW 337 ° 1 min 338 W/m² 18,4 °C 26,9 °C 14,5 km/h (3 Bft)
22.08.2023 15:45 25,0 °C 27,3 °C 64 % 57 % 1018,3 hPa 0,0 l/m² 11,3 km/h (2 Bft) N-NW 337 ° 1 min 334 W/m² 18,0 °C 26,5 °C 14,5 km/h (3 Bft)
22.08.2023 15:46 25,0 °C 27,2 °C 64 % 57 % 1018,3 hPa 0,0 l/m² 6,4 km/h (2 Bft) N-NW 337 ° 1 min 427 W/m² 17,9 °C 27,2 °C 12,9 km/h (3 Bft)
22.08.2023 15:47 24,9 °C 27,2 °C 64 % 58 % 1018,4 hPa 0,0 l/m² 8,0 km/h (2 Bft) N-NW 337 ° 1 min 418 W/m² 18,2 °C 26,9 °C 14,5 km/h (3 Bft)
22.08.2023 15:48 25,0 °C 27,2 °C 64 % 58 % 1018,4 hPa 0,0 l/m² 9,7 km/h (2 Bft) NW 315 ° 1 min 418 W/m² 18,2 °C 26,6 °C 16,1 km/h (3 Bft)
22.08.2023 15:49 25,0 °C 27,3 °C 64 % 58 % 1018,4 hPa 0,0 l/m² 6,4 km/h (2 Bft) NW 315 ° 1 min 418 W/m² 18,3 °C 27,3 °C 11,3 km/h (2 Bft)
22.08.2023 15:50 24,9 °C 27,3 °C 64 % 57 % 1018,3 hPa 0,0 l/m² 12,9 km/h (3 Bft) N-NW 337 ° 1 min 357 W/m² 18,0 °C 26,3 °C 16,1 km/h (3 Bft)
22.08.2023 15:51 24,9 °C 27,3 °C 64 % 57 % 1018,3 hPa 0,0 l/m² 8,0 km/h (2 Bft) NW 315 ° 1 min 323 W/m² 18,0 °C 27,0 °C 11,3 km/h (2 Bft)
22.08.2023 15:52 24,9 °C 27,4 °C 64 % 58 % 1018,3 hPa 0,0 l/m² 3,2 km/h (1 Bft) W-NW 292 ° 1 min 302 W/m² 18,4 °C 27,4 °C 6,4 km/h (2 Bft)
22.08.2023 15:53 24,9 °C 27,4 °C 64 % 59 % 1018,3 hPa 0,0 l/m² 4,8 km/h (1 Bft) NW 315 ° 1 min 288 W/m² 18,7 °C 27,4 °C 9,7 km/h (2 Bft)
22.08.2023 15:54 24,9 °C 27,4 °C 64 % 57 % 1018,3 hPa 0,0 l/m² 9,7 km/h (2 Bft) W-NW 292 ° 1 min 290 W/m² 18,1 °C 26,9 °C 16,1 km/h (3 Bft)
22.08.2023 15:55 25,0 °C 27,3 °C 64 % 56 % 1018,3 hPa 0,0 l/m² 6,4 km/h (2 Bft) W 270 ° 1 min 311 W/m² 17,7 °C 27,3 °C 14,5 km/h (3 Bft)
22.08.2023 15:56 25,0 °C 27,3 °C 64 % 56 % 1018,3 hPa 0,0 l/m² 9,7 km/h (2 Bft) W 270 ° 1 min 334 W/m² 17,7 °C 26,7 °C 14,5 km/h (3 Bft)
22.08.2023 15:57 24,9 °C 27,2 °C 64 % 56 % 1018,4 hPa 0,0 l/m² 6,4 km/h (2 Bft) W 270 ° 1 min 329 W/m² 17,6 °C 27,2 °C 12,9 km/h (3 Bft)
22.08.2023 15:58 25,0 °C 27,2 °C 64 % 57 % 1018,4 hPa 0,0 l/m² 1,6 km/h (1 Bft) W-NW 292 ° 1 min 332 W/m² 17,9 °C 27,2 °C 9,7 km/h (2 Bft)
22.08.2023 15:59 24,9 °C 27,2 °C 64 % 58 % 1018,5 hPa 0,0 l/m² 8,0 km/h (2 Bft) N-NW 337 ° 1 min 322 W/m² 18,2 °C 26,9 °C 14,5 km/h (3 Bft)
22.08.2023 16:00 25,0 °C 27,2 °C 64 % 59 % 1018,5 hPa 0,0 l/m² 9,7 km/h (2 Bft) NW 315 ° 1 min 311 W/m² 18,5 °C 26,6 °C 16,1 km/h (3 Bft)
22.08.2023 16:01 25,0 °C 27,2 °C 64 % 57 % 1018,4 hPa 0,0 l/m² 6,4 km/h (2 Bft) NW 315 ° 1 min 334 W/m² 17,9 °C 27,2 °C 12,9 km/h (3 Bft)
22.08.2023 16:02 25,0 °C 27,2 °C 64 % 61 % 1018,4 hPa 0,0 l/m² 3,2 km/h (1 Bft) NW 315 ° 1 min 383 W/m² 19,0 °C 27,2 °C 4,8 km/h (1 Bft)
22.08.2023 16:03 24,9 °C 27,2 °C 64 % 60 % 1018,4 hPa 0,0 l/m² 4,8 km/h (1 Bft) W-NW 292 ° 1 min 352 W/m² 18,7 °C 27,2 °C 11,3 km/h (2 Bft)
22.08.2023 16:04 25,0 °C 27,3 °C 64 % 61 % 1018,3 hPa 0,0 l/m² 8,0 km/h (2 Bft) W 270 ° 1 min 352 W/m² 19,1 °C 27,0 °C 11,3 km/h (2 Bft)
22.08.2023 16:05 25,0 °C 27,3 °C 64 % 58 % 1018,4 hPa 0,0 l/m² 4,8 km/h (1 Bft) N-NW 337 ° 1 min 650 W/m² 18,3 °C 27,3 °C 9,7 km/h (2 Bft)
22.08.2023 16:06 25,0 °C 27,3 °C 64 % 58 % 1018,3 hPa 0,0 l/m² 8,0 km/h (2 Bft) N-NW 337 ° 1 min 612 W/m² 18,3 °C 27,0 °C 9,7 km/h (2 Bft)
22.08.2023 16:07 25,0 °C 27,4 °C 64 % 57 % 1018,4 hPa 0,0 l/m² 8,0 km/h (2 Bft) NW 315 ° 1 min 490 W/m² 18,1 °C 27,1 °C 16,1 km/h (3 Bft)
22.08.2023 16:08 24,9 °C 27,3 °C 64 % 57 % 1018,5 hPa 0,0 l/m² 8,0 km/h (2 Bft) NW 315 ° 1 min 490 W/m² 18,0 °C 27,0 °C 19,3 km/h (3 Bft)
22.08.2023 16:09 24,9 °C 27,3 °C 64 % 58 % 1018,5 hPa 0,0 l/m² 11,3 km/h (2 Bft) NW 315 ° 1 min 341 W/m² 18,3 °C 26,5 °C 19,3 km/h (3 Bft)
22.08.2023 16:10 24,9 °C 27,3 °C 64 % 58 % 1018,5 hPa 0,0 l/m² 4,8 km/h (1 Bft) NW 315 ° 1 min 345 W/m² 18,3 °C 27,3 °C 8,0 km/h (2 Bft)
22.08.2023 16:11 25,0 °C 27,3 °C 64 % 58 % 1018,5 hPa 0,0 l/m² 8,0 km/h (2 Bft) N-NW 337 ° 1 min 366 W/m² 18,3 °C 27,0 °C 12,9 km/h (3 Bft)
22.08.2023 16:12 25,0 °C 27,2 °C 64 % 58 % 1018,4 hPa 0,0 l/m² 11,3 km/h (2 Bft) N-NW 337 ° 1 min 427 W/m² 18,2 °C 26,4 °C 17,7 km/h (3 Bft)
22.08.2023 16:13 24,9 °C 27,2 °C 64 % 57 % 1018,4 hPa 0,0 l/m² 11,3 km/h (2 Bft) N-NW 337 ° 1 min 348 W/m² 17,9 °C 26,4 °C 17,7 km/h (3 Bft)
22.08.2023 16:14 24,9 °C 27,1 °C 64 % 57 % 1018,5 hPa 0,0 l/m² 8,0 km/h (2 Bft) N-NW 337 ° 1 min 320 W/m² 17,8 °C 26,8 °C 16,1 km/h (3 Bft)
22.08.2023 16:15 25,0 °C 27,1 °C 64 % 59 % 1018,5 hPa 0,0 l/m² 8,0 km/h (2 Bft) N-NW 337 ° 1 min 302 W/m² 18,4 °C 26,8 °C 14,5 km/h (3 Bft)
22.08.2023 16:16 25,0 °C 27,1 °C 64 % 61 % 1018,5 hPa 0,0 l/m² 3,2 km/h (1 Bft) W-NW 292 ° 1 min 295 W/m² 18,9 °C 27,1 °C 6,4 km/h (2 Bft)
22.08.2023 16:17 24,9 °C 27,2 °C 64 % 60 % 1018,5 hPa 0,0 l/m² 4,8 km/h (1 Bft) NW 315 ° 1 min 288 W/m² 18,7 °C 27,2 °C 11,3 km/h (2 Bft)
22.08.2023 16:18 24,9 °C 27,2 °C 64 % 59 % 1018,5 hPa 0,0 l/m² 4,8 km/h (1 Bft) N-NW 337 ° 1 min 283 W/m² 18,5 °C 27,2 °C 8,0 km/h (2 Bft)
22.08.2023 16:19 25,0 °C 27,2 °C 64 % 61 % 1018,3 hPa 0,0 l/m² 3,2 km/h (1 Bft) W-NW 292 ° 1 min 279 W/m² 19,0 °C 27,2 °C 4,8 km/h (1 Bft)
22.08.2023 16:20 24,9 °C 27,2 °C 64 % 59 % 1018,4 hPa 0,0 l/m² 6,4 km/h (2 Bft) N-NW 337 ° 1 min 278 W/m² 18,5 °C 27,2 °C 12,9 km/h (3 Bft)
22.08.2023 16:21 25,0 °C 27,1 °C 64 % 58 % 1018,4 hPa 0,0 l/m² 6,4 km/h (2 Bft) NW 315 ° 1 min 279 W/m² 18,1 °C 27,1 °C 9,7 km/h (2 Bft)
22.08.2023 16:22 24,9 °C 27,1 °C 64 % 59 % 1018,4 hPa 0,0 l/m² 3,2 km/h (1 Bft) N-NW 337 ° 1 min 283 W/m² 18,4 °C 27,1 °C 6,4 km/h (2 Bft)
22.08.2023 16:23 24,9 °C 27,1 °C 64 % 60 % 1018,5 hPa 0,0 l/m² 4,8 km/h (1 Bft) NW 315 ° 1 min 287 W/m² 18,6 °C 27,1 °C 9,7 km/h (2 Bft)
22.08.2023 16:24 24,9 °C 27,1 °C 64 % 60 % 1018,6 hPa 0,0 l/m² 1,6 km/h (1 Bft) NW 315 ° 1 min 290 W/m² 18,6 °C 27,1 °C 4,8 km/h (1 Bft)
22.08.2023 16:25 24,9 °C 27,1 °C 64 % 60 % 1018,5 hPa 0,0 l/m² 4,8 km/h (1 Bft) N-NW 337 ° 1 min 287 W/m² 18,6 °C 27,1 °C 11,3 km/h (2 Bft)
22.08.2023 16:26 24,9 °C 27,1 °C 64 % 59 % 1018,5 hPa 0,0 l/m² 4,8 km/h (1 Bft) NW 315 ° 1 min 260 W/m² 18,4 °C 27,1 °C 6,4 km/h (2 Bft)
22.08.2023 16:27 24,9 °C 26,9 °C 64 % 57 % 1018,5 hPa 0,0 l/m² 3,2 km/h (1 Bft) NW 315 ° 1 min 246 W/m² 17,6 °C 26,9 °C 6,4 km/h (2 Bft)
22.08.2023 16:28 24,9 °C 26,9 °C 64 % 58 % 1018,5 hPa 0,0 l/m² 4,8 km/h (1 Bft) N 360 ° 1 min 236 W/m² 17,9 °C 26,9 °C 8,0 km/h (2 Bft)
22.08.2023 16:29 24,9 °C 26,8 °C 64 % 58 % 1018,4 hPa 0,0 l/m² 4,8 km/h (1 Bft) N-NW 337 ° 1 min 229 W/m² 17,8 °C 26,8 °C 6,4 km/h (2 Bft)
22.08.2023 16:30 25,0 °C 26,8 °C 64 % 59 % 1018,5 hPa 0,0 l/m² 3,2 km/h (1 Bft) N-NO 22 ° 1 min 225 W/m² 18,1 °C 26,8 °C 6,4 km/h (2 Bft)
22.08.2023 16:31 24,9 °C 26,8 °C 64 % 59 % 1018,4 hPa 0,0 l/m² 0,0 km/h (0 Bft) N 360 ° 1 min 227 W/m² 18,1 °C 26,8 °C 4,8 km/h (1 Bft)
22.08.2023 16:32 24,9 °C 26,8 °C 64 % 59 % 1018,4 hPa 0,0 l/m² 4,8 km/h (1 Bft) NW 315 ° 1 min 230 W/m² 18,1 °C 26,8 °C 8,0 km/h (2 Bft)
22.08.2023 16:33 24,9 °C 26,8 °C 64 % 60 % 1018,5 hPa 0,0 l/m² 4,8 km/h (1 Bft) N 360 ° 1 min 236 W/m² 18,4 °C 26,8 °C 8,0 km/h (2 Bft)
22.08.2023 16:34 24,9 °C 26,8 °C 64 % 59 % 1018,5 hPa 0,0 l/m² 3,2 km/h (1 Bft) N-NW 337 ° 1 min 241 W/m² 18,1 °C 26,8 °C 6,4 km/h (2 Bft)
22.08.2023 16:35 24,9 °C 26,8 °C 64 % 61 % 1018,4 hPa 0,0 l/m² 4,8 km/h (1 Bft) N-NW 337 ° 1 min 246 W/m² 18,6 °C 26,8 °C 8,0 km/h (2 Bft)
22.08.2023 16:36 25,0 °C 26,8 °C 64 % 60 % 1018,5 hPa 0,0 l/m² 3,2 km/h (1 Bft) N 360 ° 1 min 262 W/m² 18,4 °C 26,8 °C 4,8 km/h (1 Bft)
22.08.2023 16:37 25,0 °C 26,8 °C 64 % 60 % 1018,6 hPa 0,0 l/m² 9,7 km/h (2 Bft) N-NW 337 ° 1 min 274 W/m² 18,4 °C 26,2 °C 14,5 km/h (3 Bft)
22.08.2023 16:38 24,9 °C 26,8 °C 64 % 59 % 1018,6 hPa 0,0 l/m² 11,3 km/h (2 Bft) N 360 ° 1 min 320 W/m² 18,1 °C 26,0 °C 14,5 km/h (3 Bft)
22.08.2023 16:39 24,9 °C 26,8 °C 64 % 59 % 1018,5 hPa 0,0 l/m² 6,4 km/h (2 Bft) N-NW 337 ° 1 min 320 W/m² 18,1 °C 26,8 °C 9,7 km/h (2 Bft)
22.08.2023 16:40 24,9 °C 26,8 °C 64 % 59 % 1018,5 hPa 0,0 l/m² 8,0 km/h (2 Bft) N-NW 337 ° 1 min 320 W/m² 18,1 °C 26,5 °C 9,7 km/h (2 Bft)
22.08.2023 16:41 24,9 °C 26,8 °C 64 % 59 % 1018,5 hPa 0,0 l/m² 6,4 km/h (2 Bft) NW 315 ° 1 min 371 W/m² 18,1 °C 26,8 °C 8,0 km/h (2 Bft)
22.08.2023 16:42 25,0 °C 26,9 °C 64 % 58 % 1018,5 hPa 0,0 l/m² 6,4 km/h (2 Bft) NW 315 ° 1 min 371 W/m² 17,9 °C 26,9 °C 12,9 km/h (3 Bft)
22.08.2023 16:43 25,0 °C 26,9 °C 64 % 57 % 1018,5 hPa 0,0 l/m² 4,8 km/h (1 Bft) N-NW 337 ° 1 min 276 W/m² 17,6 °C 26,9 °C 9,7 km/h (2 Bft)
22.08.2023 16:44 24,9 °C 26,9 °C 64 % 57 % 1018,5 hPa 0,0 l/m² 4,8 km/h (1 Bft) N-NW 337 ° 1 min 264 W/m² 17,6 °C 26,9 °C 8,0 km/h (2 Bft)
22.08.2023 16:45 25,0 °C 26,9 °C 64 % 57 % 1018,6 hPa 0,0 l/m² 8,0 km/h (2 Bft) N 360 ° 1 min 251 W/m² 17,6 °C 26,6 °C 9,7 km/h (2 Bft)
22.08.2023 16:46 24,9 °C 26,8 °C 64 % 58 % 1018,5 hPa 0,0 l/m² 6,4 km/h (2 Bft) N-NW 337 ° 1 min 237 W/m² 17,8 °C 26,8 °C 9,7 km/h (2 Bft)
22.08.2023 16:47 25,0 °C 26,8 °C 64 % 59 % 1018,4 hPa 0,0 l/m² 3,2 km/h (1 Bft) N-NW 337 ° 1 min 227 W/m² 18,1 °C 26,8 °C 4,8 km/h (1 Bft)
22.08.2023 16:48 24,9 °C 26,8 °C 64 % 57 % 1018,3 hPa 0,0 l/m² 0,0 km/h (0 Bft) N-NW 337 ° 1 min 216 W/m² 17,6 °C 26,8 °C 3,2 km/h (1 Bft)
22.08.2023 16:49 25,0 °C 26,8 °C 64 % 58 % 1018,3 hPa 0,0 l/m² 0,0 km/h (0 Bft) N-NW 337 ° 1 min 209 W/m² 17,8 °C 26,8 °C 1,6 km/h (1 Bft)
22.08.2023 16:50 24,9 °C 26,8 °C 64 % 59 % 1018,3 hPa 0,0 l/m² 0,0 km/h (0 Bft) N-NW 337 ° 1 min 213 W/m² 18,1 °C 26,8 °C 3,2 km/h (1 Bft)
22.08.2023 16:51 25,0 °C 26,8 °C 64 % 58 % 1018,4 hPa 0,0 l/m² 3,2 km/h (1 Bft) N-NW 337 ° 1 min 218 W/m² 17,8 °C 26,8 °C 3,2 km/h (1 Bft)
22.08.2023 16:52 24,9 °C 26,9 °C 64 % 57 % 1018,4 hPa 0,0 l/m² 1,6 km/h (1 Bft) W-NW 292 ° 1 min 223 W/m² 17,6 °C 26,9 °C 3,2 km/h (1 Bft)
22.08.2023 16:53 24,9 °C 26,8 °C 64 % 58 % 1018,5 hPa 0,0 l/m² 0,0 km/h (0 Bft) N 0 ° 1 min 225 W/m² 17,8 °C 26,8 °C 0,0 km/h (0 Bft)
22.08.2023 16:54 24,9 °C 26,8 °C 64 % 59 % 1018,5 hPa 0,0 l/m² 0,0 km/h (0 Bft) W-NW 292 ° 1 min 220 W/m² 18,1 °C 26,8 °C 1,6 km/h (1 Bft)
22.08.2023 16:55 24,9 °C 26,8 °C 64 % 60 % 1018,4 hPa 0,0 l/m² 1,6 km/h (1 Bft) W-NW 292 ° 1 min 190 W/m² 18,4 °C 26,8 °C 3,2 km/h (1 Bft)
22.08.2023 16:56 24,9 °C 26,8 °C 65 % 59 % 1018,5 hPa 0,0 l/m² 0,0 km/h (0 Bft) W-NW 292 ° 1 min 178 W/m² 18,1 °C 26,8 °C 1,6 km/h (1 Bft)
22.08.2023 16:57 24,9 °C 26,9 °C 64 % 59 % 1018,5 hPa 0,0 l/m² 0,0 km/h (0 Bft) N 0 ° 1 min 167 W/m² 18,2 °C 26,9 °C 0,0 km/h (0 Bft)
22.08.2023 16:58 24,9 °C 26,9 °C 65 % 59 % 1018,5 hPa 0,0 l/m² 3,2 km/h (1 Bft) N-NW 337 ° 1 min 156 W/m² 18,2 °C 26,9 °C 8,0 km/h (2 Bft)
22.08.2023 16:59 24,9 °C 26,9 °C 64 % 59 % 1018,5 hPa 0,0 l/m² 4,8 km/h (1 Bft) N-NW 337 ° 1 min 146 W/m² 18,2 °C 26,9 °C 6,4 km/h (2 Bft)
22.08.2023 17:00 24,9 °C 26,8 °C 64 % 58 % 1018,4 hPa 0,0 l/m² 4,8 km/h (1 Bft) N-NW 337 ° 1 min 137 W/m² 17,8 °C 26,8 °C 8,0 km/h (2 Bft)
22.08.2023 17:01 25,0 °C 26,8 °C 65 % 57 % 1018,3 hPa 0,0 l/m² 6,4 km/h (2 Bft) N 360 ° 1 min 127 W/m² 17,6 °C 26,8 °C 8,0 km/h (2 Bft)
22.08.2023 17:02 24,9 °C 26,8 °C 65 % 58 % 1018,4 hPa 0,0 l/m² 4,8 km/h (1 Bft) N 360 ° 1 min 125 W/m² 17,8 °C 26,8 °C 6,4 km/h (2 Bft)
22.08.2023 17:03 24,9 °C 26,7 °C 65 % 58 % 1018,4 hPa 0,0 l/m² 4,8 km/h (1 Bft) N 360 ° 1 min 123 W/m² 17,7 °C 26,7 °C 4,8 km/h (1 Bft)
22.08.2023 17:04 25,0 °C 26,7 °C 65 % 57 % 1018,4 hPa 0,0 l/m² 1,6 km/h (1 Bft) N-NW 337 ° 1 min 121 W/m² 17,5 °C 26,7 °C 4,8 km/h (1 Bft)
22.08.2023 17:05 25,0 °C 26,7 °C 65 % 59 % 1018,4 hPa 0,0 l/m² 1,6 km/h (1 Bft) N-NW 337 ° 1 min 118 W/m² 18,0 °C 26,7 °C 4,8 km/h (1 Bft)
22.08.2023 17:06 24,9 °C 26,7 °C 65 % 60 % 1018,5 hPa 0,0 l/m² 3,2 km/h (1 Bft) N-NW 337 ° 1 min 114 W/m² 18,3 °C 26,7 °C 6,4 km/h (2 Bft)
22.08.2023 17:07 24,9 °C 26,6 °C 65 % 59 % 1018,5 hPa 0,0 l/m² 4,8 km/h (1 Bft) N-NW 337 ° 1 min 111 W/m² 17,9 °C 26,6 °C 6,4 km/h (2 Bft)
22.08.2023 17:08 24,9 °C 26,6 °C 65 % 59 % 1018,5 hPa 0,0 l/m² 4,8 km/h (1 Bft) N-NW 337 ° 1 min 114 W/m² 17,9 °C 26,6 °C 8,0 km/h (2 Bft)
22.08.2023 17:09 24,9 °C 26,6 °C 65 % 60 % 1018,5 hPa 0,0 l/m² 8,0 km/h (2 Bft) N-NW 337 ° 1 min 118 W/m² 18,2 °C 26,3 °C 9,7 km/h (2 Bft)
22.08.2023 17:10 25,0 °C 26,5 °C 65 % 60 % 1018,6 hPa 0,0 l/m² 8,0 km/h (2 Bft) N-NW 337 ° 1 min 120 W/m² 18,1 °C 26,2 °C 9,7 km/h (2 Bft)
22.08.2023 17:11 25,0 °C 26,6 °C 65 % 60 % 1018,5 hPa 0,0 l/m² 6,4 km/h (2 Bft) N-NW 337 ° 1 min 125 W/m² 18,2 °C 26,6 °C 8,0 km/h (2 Bft)
22.08.2023 17:12 24,9 °C 26,5 °C 65 % 60 % 1018,5 hPa 0,0 l/m² 6,4 km/h (2 Bft) N-NW 337 ° 1 min 128 W/m² 18,1 °C 26,5 °C 8,0 km/h (2 Bft)
22.08.2023 17:13 24,9 °C 26,5 °C 65 % 60 % 1018,6 hPa 0,0 l/m² 8,0 km/h (2 Bft) N-NW 337 ° 1 min 130 W/m² 18,1 °C 26,2 °C 9,7 km/h (2 Bft)
22.08.2023 17:14 24,9 °C 26,4 °C 65 % 60 % 1018,6 hPa 0,0 l/m² 8,0 km/h (2 Bft) N-NW 337 ° 1 min 128 W/m² 18,0 °C 26,1 °C 9,7 km/h (2 Bft)
22.08.2023 17:15 25,0 °C 26,4 °C 65 % 61 % 1018,6 hPa 0,0 l/m² 6,4 km/h (2 Bft) N-NW 337 ° 1 min 123 W/m² 18,3 °C 26,4 °C 8,0 km/h (2 Bft)
22.08.2023 17:16 25,0 °C 26,4 °C 65 % 60 % 1018,6 hPa 0,0 l/m² 6,4 km/h (2 Bft) N-NW 337 ° 1 min 114 W/m² 18,0 °C 26,4 °C 9,7 km/h (2 Bft)
22.08.2023 17:17 24,9 °C 26,4 °C 65 % 60 % 1018,7 hPa 0,0 l/m² 8,0 km/h (2 Bft) N-NW 337 ° 1 min 105 W/m² 18,0 °C 26,1 °C 14,5 km/h (3 Bft)
22.08.2023 17:18 24,9 °C 26,4 °C 65 % 60 % 1018,6 hPa 0,0 l/m² 4,8 km/h (1 Bft) N 360 ° 1 min 91 W/m² 18,0 °C 26,4 °C 6,4 km/h (2 Bft)
22.08.2023 17:19 24,9 °C 26,4 °C 65 % 61 % 1018,5 hPa 0,0 l/m² 6,4 km/h (2 Bft) N-NW 337 ° 1 min 88 W/m² 18,3 °C 26,4 °C 8,0 km/h (2 Bft)
22.08.2023 17:20 24,9 °C 26,3 °C 64 % 60 % 1018,6 hPa 0,0 l/m² 6,4 km/h (2 Bft) N-NW 337 ° 1 min 86 W/m² 17,9 °C 26,3 °C 8,0 km/h (2 Bft)
22.08.2023 17:21 24,9 °C 26,3 °C 65 % 60 % 1018,6 hPa 0,0 l/m² 6,4 km/h (2 Bft) N-NW 337 ° 1 min 84 W/m² 17,9 °C 26,3 °C 9,7 km/h (2 Bft)
22.08.2023 17:22 24,9 °C 26,3 °C 65 % 60 % 1018,6 hPa 0,0 l/m² 6,4 km/h (2 Bft) N-NW 337 ° 1 min 86 W/m² 17,9 °C 26,3 °C 9,7 km/h (2 Bft)
22.08.2023 17:23 25,0 °C 26,3 °C 65 % 60 % 1018,5 hPa 0,0 l/m² 8,0 km/h (2 Bft) N-NW 337 ° 1 min 91 W/m² 17,9 °C 26,0 °C 9,7 km/h (2 Bft)
22.08.2023 17:24 24,9 °C 26,3 °C 65 % 60 % 1018,5 hPa 0,0 l/m² 6,4 km/h (2 Bft) N-NW 337 ° 1 min 97 W/m² 17,9 °C 26,3 °C 8,0 km/h (2 Bft)
22.08.2023 17:25 24,9 °C 26,3 °C 65 % 60 % 1018,5 hPa 0,0 l/m² 3,2 km/h (1 Bft) N-NW 337 ° 1 min 100 W/m² 17,9 °C 26,3 °C 6,4 km/h (2 Bft)
22.08.2023 17:26 25,0 °C 26,2 °C 65 % 61 % 1018,5 hPa 0,0 l/m² 4,8 km/h (1 Bft) N-NW 337 ° 1 min 105 W/m² 18,1 °C 26,2 °C 6,4 km/h (2 Bft)
22.08.2023 17:27 24,9 °C 26,2 °C 65 % 60 % 1018,6 hPa 0,0 l/m² 6,4 km/h (2 Bft) N-NW 337 ° 1 min 113 W/m² 17,8 °C 26,2 °C 9,7 km/h (2 Bft)
22.08.2023 17:28 24,9 °C 26,2 °C 65 % 60 % 1018,5 hPa 0,0 l/m² 4,8 km/h (1 Bft) N-NW 337 ° 1 min 120 W/m² 17,8 °C 26,2 °C 8,0 km/h (2 Bft)
22.08.2023 17:29 25,0 °C 26,2 °C 65 % 61 % 1018,5 hPa 0,0 l/m² 4,8 km/h (1 Bft) N-NW 337 ° 1 min 135 W/m² 18,1 °C 26,2 °C 8,0 km/h (2 Bft)
22.08.2023 17:30 24,9 °C 26,2 °C 65 % 60 % 1018,5 hPa 0,0 l/m² 6,4 km/h (2 Bft) N-NW 337 ° 1 min 142 W/m² 17,8 °C 26,2 °C 8,0 km/h (2 Bft)
22.08.2023 17:31 24,9 °C 26,2 °C 65 % 61 % 1018,5 hPa 0,0 l/m² 8,0 km/h (2 Bft) N-NW 337 ° 1 min 144 W/m² 18,1 °C 25,9 °C 9,7 km/h (2 Bft)
22.08.2023 17:32 24,9 °C 26,2 °C 65 % 61 % 1018,5 hPa 0,0 l/m² 8,0 km/h (2 Bft) N-NW 337 ° 1 min 146 W/m² 18,1 °C 25,9 °C 14,5 km/h (3 Bft)
22.08.2023 17:33 24,9 °C 26,2 °C 65 % 60 % 1018,5 hPa 0,0 l/m² 9,7 km/h (2 Bft) N-NW 337 ° 1 min 149 W/m² 17,8 °C 25,5 °C 12,9 km/h (3 Bft)
22.08.2023 17:34 24,9 °C 26,2 °C 65 % 61 % 1018,5 hPa 0,0 l/m² 8,0 km/h (2 Bft) N-NW 337 ° 1 min 146 W/m² 18,1 °C 25,9 °C 9,7 km/h (2 Bft)
22.08.2023 17:35 24,9 °C 26,2 °C 65 % 60 % 1018,5 hPa 0,0 l/m² 6,4 km/h (2 Bft) N-NW 337 ° 1 min 142 W/m² 17,8 °C 26,2 °C 9,7 km/h (2 Bft)
22.08.2023 17:36 24,9 °C 26,2 °C 65 % 61 % 1018,5 hPa 0,0 l/m² 6,4 km/h (2 Bft) N-NW 337 ° 1 min 142 W/m² 18,1 °C 26,2 °C 8,0 km/h (2 Bft)
22.08.2023 17:37 24,9 °C 26,2 °C 65 % 61 % 1018,5 hPa 0,0 l/m² 6,4 km/h (2 Bft) N-NW 337 ° 1 min 146 W/m² 18,1 °C 26,2 °C 9,7 km/h (2 Bft)
22.08.2023 17:38 24,9 °C 26,2 °C 65 % 61 % 1018,5 hPa 0,0 l/m² 4,8 km/h (1 Bft) N-NW 337 ° 1 min 148 W/m² 18,1 °C 26,2 °C 8,0 km/h (2 Bft)
22.08.2023 17:39 25,0 °C 26,3 °C 65 % 60 % 1018,5 hPa 0,0 l/m² 6,4 km/h (2 Bft) N-NW 337 ° 1 min 148 W/m² 17,9 °C 26,3 °C 8,0 km/h (2 Bft)
22.08.2023 17:40 24,9 °C 26,3 °C 65 % 60 % 1018,5 hPa 0,0 l/m² 4,8 km/h (1 Bft) N-NW 337 ° 1 min 149 W/m² 17,9 °C 26,3 °C 8,0 km/h (2 Bft)
22.08.2023 17:41 24,9 °C 26,3 °C 65 % 61 % 1018,5 hPa 0,0 l/m² 4,8 km/h (1 Bft) N-NW 337 ° 1 min 149 W/m² 18,2 °C 26,3 °C 8,0 km/h (2 Bft)
22.08.2023 17:42 24,9 °C 26,3 °C 65 % 61 % 1018,5 hPa 0,0 l/m² 6,4 km/h (2 Bft) N-NW 337 ° 1 min 144 W/m² 18,2 °C 26,3 °C 9,7 km/h (2 Bft)
22.08.2023 17:43 24,9 °C 26,3 °C 65 % 60 % 1018,5 hPa 0,0 l/m² 8,0 km/h (2 Bft) N-NW 337 ° 1 min 141 W/m² 17,9 °C 26,0 °C 9,7 km/h (2 Bft)
22.08.2023 17:44 24,9 °C 26,3 °C 65 % 61 % 1018,5 hPa 0,0 l/m² 9,7 km/h (2 Bft) N-NW 337 ° 1 min 139 W/m² 18,2 °C 25,7 °C 14,5 km/h (3 Bft)
22.08.2023 17:45 24,9 °C 26,3 °C 65 % 60 % 1018,6 hPa 0,0 l/m² 6,4 km/h (2 Bft) N-NW 337 ° 1 min 137 W/m² 17,9 °C 26,3 °C 9,7 km/h (2 Bft)
22.08.2023 17:46 24,9 °C 26,3 °C 65 % 61 % 1018,6 hPa 0,0 l/m² 6,4 km/h (2 Bft) N-NW 337 ° 1 min 137 W/m² 18,2 °C 26,3 °C 8,0 km/h (2 Bft)
22.08.2023 17:47 24,9 °C 26,3 °C 65 % 61 % 1018,6 hPa 0,0 l/m² 6,4 km/h (2 Bft) NW 315 ° 1 min 139 W/m² 18,2 °C 26,3 °C 8,0 km/h (2 Bft)
22.08.2023 17:48 24,9 °C 26,3 °C 65 % 61 % 1018,6 hPa 0,0 l/m² 6,4 km/h (2 Bft) N-NW 337 ° 1 min 141 W/m² 18,2 °C 26,3 °C 9,7 km/h (2 Bft)
22.08.2023 17:49 24,9 °C 26,3 °C 65 % 61 % 1018,5 hPa 0,0 l/m² 8,0 km/h (2 Bft) N-NW 337 ° 1 min 141 W/m² 18,2 °C 26,0 °C 9,7 km/h (2 Bft)
22.08.2023 17:50 25,0 °C 26,3 °C 65 % 62 % 1018,6 hPa 0,0 l/m² 4,8 km/h (1 Bft) N-NW 337 ° 1 min 141 W/m² 18,4 °C 26,3 °C 8,0 km/h (2 Bft)
22.08.2023 17:51 24,9 °C 26,3 °C 65 % 61 % 1018,6 hPa 0,0 l/m² 4,8 km/h (1 Bft) N-NW 337 ° 1 min 139 W/m² 18,2 °C 26,3 °C 8,0 km/h (2 Bft)
22.08.2023 17:52 24,9 °C 26,3 °C 65 % 61 % 1018,6 hPa 0,0 l/m² 3,2 km/h (1 Bft) NW 315 ° 1 min 137 W/m² 18,2 °C 26,3 °C 6,4 km/h (2 Bft)
22.08.2023 17:53 24,9 °C 26,3 °C 65 % 61 % 1018,6 hPa 0,0 l/m² 3,2 km/h (1 Bft) N-NW 337 ° 1 min 134 W/m² 18,2 °C 26,3 °C 4,8 km/h (1 Bft)
22.08.2023 17:54 24,9 °C 26,3 °C 65 % 62 % 1018,6 hPa 0,0 l/m² 4,8 km/h (1 Bft) N-NW 337 ° 1 min 134 W/m² 18,4 °C 26,3 °C 8,0 km/h (2 Bft)
22.08.2023 17:55 25,0 °C 26,3 °C 65 % 62 % 1018,7 hPa 0,0 l/m² 4,8 km/h (1 Bft) N-NW 337 ° 1 min 132 W/m² 18,4 °C 26,3 °C 6,4 km/h (2 Bft)
22.08.2023 17:56 24,9 °C 26,3 °C 65 % 62 % 1018,7 hPa 0,0 l/m² 3,2 km/h (1 Bft) W-NW 292 ° 1 min 130 W/m² 18,4 °C 26,3 °C 6,4 km/h (2 Bft)
22.08.2023 17:57 24,9 °C 26,3 °C 65 % 63 % 1018,6 hPa 0,0 l/m² 3,2 km/h (1 Bft) NW 315 ° 1 min 128 W/m² 18,7 °C 26,3 °C 6,4 km/h (2 Bft)
22.08.2023 17:58 24,9 °C 26,3 °C 65 % 62 % 1018,7 hPa 0,0 l/m² 6,4 km/h (2 Bft) W-NW 292 ° 1 min 127 W/m² 18,4 °C 26,3 °C 12,9 km/h (3 Bft)
22.08.2023 17:59 24,9 °C 26,3 °C 65 % 61 % 1018,8 hPa 0,0 l/m² 4,8 km/h (1 Bft) NW 315 ° 1 min 121 W/m² 18,2 °C 26,3 °C 9,7 km/h (2 Bft)
22.08.2023 18:00 24,9 °C 26,3 °C 65 % 61 % 1018,7 hPa 0,0 l/m² 1,6 km/h (1 Bft) NW 315 ° 1 min 123 W/m² 18,2 °C 26,3 °C 6,4 km/h (2 Bft)
22.08.2023 18:01 24,9 °C 26,3 °C 65 % 62 % 1018,7 hPa 0,0 l/m² 1,6 km/h (1 Bft) W-NW 292 ° 1 min 139 W/m² 18,4 °C 26,3 °C 4,8 km/h (1 Bft)
22.08.2023 18:02 24,9 °C 26,3 °C 65 % 62 % 1018,7 hPa 0,0 l/m² 4,8 km/h (1 Bft) NW 315 ° 1 min 237 W/m² 18,4 °C 26,3 °C 9,7 km/h (2 Bft)
22.08.2023 18:03 24,9 °C 26,4 °C 65 % 62 % 1018,7 hPa 0,0 l/m² 3,2 km/h (1 Bft) W-NW 292 ° 1 min 221 W/m² 18,5 °C 26,4 °C 4,8 km/h (1 Bft)
22.08.2023 18:04 24,9 °C 26,4 °C 65 % 61 % 1018,7 hPa 0,0 l/m² 4,8 km/h (1 Bft) W-NW 292 ° 1 min 341 W/m² 18,3 °C 26,4 °C 6,4 km/h (2 Bft)
22.08.2023 18:05 24,9 °C 26,6 °C 65 % 61 % 1018,6 hPa 0,0 l/m² 6,4 km/h (2 Bft) N-NW 337 ° 1 min 299 W/m² 18,4 °C 26,6 °C 8,0 km/h (2 Bft)
22.08.2023 18:06 24,9 °C 26,7 °C 65 % 61 % 1018,5 hPa 0,0 l/m² 4,8 km/h (1 Bft) N-NW 337 ° 1 min 299 W/m² 18,5 °C 26,7 °C 6,4 km/h (2 Bft)
22.08.2023 18:07 24,9 °C 26,7 °C 65 % 61 % 1018,5 hPa 0,0 l/m² 6,4 km/h (2 Bft) N-NW 337 ° 1 min 234 W/m² 18,5 °C 26,7 °C 12,9 km/h (3 Bft)
22.08.2023 18:08 24,9 °C 26,7 °C 65 % 61 % 1018,4 hPa 0,0 l/m² 4,8 km/h (1 Bft) NW 315 ° 1 min 232 W/m² 18,5 °C 26,7 °C 6,4 km/h (2 Bft)
22.08.2023 18:09 24,9 °C 26,7 °C 65 % 59 % 1018,4 hPa 0,0 l/m² 8,0 km/h (2 Bft) NW 315 ° 1 min 295 W/m² 18,0 °C 26,4 °C 12,9 km/h (3 Bft)
22.08.2023 18:10 25,0 °C 26,7 °C 65 % 60 % 1018,5 hPa 0,0 l/m² 9,7 km/h (2 Bft) N-NW 337 ° 1 min 227 W/m² 18,3 °C 26,1 °C 12,9 km/h (3 Bft)
22.08.2023 18:11 24,9 °C 26,7 °C 65 % 59 % 1018,5 hPa 0,0 l/m² 9,7 km/h (2 Bft) NW 315 ° 1 min 176 W/m² 18,0 °C 26,1 °C 12,9 km/h (3 Bft)
22.08.2023 18:12 25,0 °C 26,7 °C 65 % 59 % 1018,6 hPa 0,0 l/m² 8,0 km/h (2 Bft) N-NW 337 ° 1 min 165 W/m² 18,0 °C 26,4 °C 12,9 km/h (3 Bft)
22.08.2023 18:13 24,9 °C 26,6 °C 65 % 59 % 1018,6 hPa 0,0 l/m² 12,9 km/h (3 Bft) N-NW 337 ° 1 min 160 W/m² 17,9 °C 25,5 °C 19,3 km/h (3 Bft)
22.08.2023 18:14 24,9 °C 26,6 °C 65 % 59 % 1018,6 hPa 0,0 l/m² 9,7 km/h (2 Bft) N-NW 337 ° 1 min 158 W/m² 17,9 °C 26,0 °C 16,1 km/h (3 Bft)
22.08.2023 18:15 24,9 °C 26,5 °C 65 % 58 % 1018,5 hPa 0,0 l/m² 11,3 km/h (2 Bft) N-NW 337 ° 1 min 158 W/m² 17,5 °C 25,6 °C 16,1 km/h (3 Bft)
22.08.2023 18:16 24,9 °C 26,4 °C 65 % 58 % 1018,5 hPa 0,0 l/m² 14,5 km/h (3 Bft) N-NW 337 ° 1 min 186 W/m² 17,5 °C 25,1 °C 16,1 km/h (3 Bft)
22.08.2023 18:17 24,9 °C 26,4 °C 65 % 58 % 1018,5 hPa 0,0 l/m² 14,5 km/h (3 Bft) N-NW 337 ° 1 min 279 W/m² 17,5 °C 25,1 °C 19,3 km/h (3 Bft)
22.08.2023 18:18 25,0 °C 26,3 °C 65 % 59 % 1018,4 hPa 0,0 l/m² 9,7 km/h (2 Bft) N-NW 337 ° 1 min 190 W/m² 17,6 °C 25,7 °C 14,5 km/h (3 Bft)
22.08.2023 18:19 24,9 °C 26,3 °C 65 % 59 % 1018,4 hPa 0,0 l/m² 11,3 km/h (2 Bft) N-NW 337 ° 1 min 169 W/m² 17,6 °C 25,4 °C 16,1 km/h (3 Bft)
22.08.2023 18:20 25,0 °C 26,3 °C 65 % 59 % 1018,5 hPa 0,0 l/m² 8,0 km/h (2 Bft) N-NW 337 ° 1 min 162 W/m² 17,6 °C 26,0 °C 14,5 km/h (3 Bft)
22.08.2023 18:21 25,0 °C 26,3 °C 65 % 60 % 1018,5 hPa 0,0 l/m² 6,4 km/h (2 Bft) W-NW 292 ° 1 min 155 W/m² 17,9 °C 26,3 °C 14,5 km/h (3 Bft)
22.08.2023 18:22 24,9 °C 26,3 °C 65 % 60 % 1018,5 hPa 0,0 l/m² 8,0 km/h (2 Bft) N-NW 337 ° 1 min 151 W/m² 17,9 °C 26,0 °C 12,9 km/h (3 Bft)
22.08.2023 18:23 25,0 °C 26,3 °C 65 % 59 % 1018,5 hPa 0,0 l/m² 12,9 km/h (3 Bft) N-NW 337 ° 1 min 148 W/m² 17,6 °C 25,2 °C 19,3 km/h (3 Bft)
22.08.2023 18:24 25,0 °C 26,3 °C 65 % 58 % 1018,5 hPa 0,0 l/m² 11,3 km/h (2 Bft) N-NW 337 ° 1 min 144 W/m² 17,4 °C 25,4 °C 14,5 km/h (3 Bft)
22.08.2023 18:25 25,0 °C 26,3 °C 65 % 58 % 1018,4 hPa 0,0 l/m² 12,9 km/h (3 Bft) N-NW 337 ° 1 min 141 W/m² 17,4 °C 25,2 °C 17,7 km/h (3 Bft)
22.08.2023 18:26 25,0 °C 26,2 °C 65 % 58 % 1018,5 hPa 0,0 l/m² 14,5 km/h (3 Bft) N-NW 337 ° 1 min 137 W/m² 17,3 °C 24,8 °C 16,1 km/h (3 Bft)
22.08.2023 18:27 25,0 °C 26,2 °C 65 % 58 % 1018,4 hPa 0,0 l/m² 11,3 km/h (2 Bft) N-NW 337 ° 1 min 134 W/m² 17,3 °C 25,3 °C 16,1 km/h (3 Bft)
22.08.2023 18:28 25,0 °C 26,2 °C 65 % 58 % 1018,4 hPa 0,0 l/m² 9,7 km/h (2 Bft) NW 315 ° 1 min 132 W/m² 17,3 °C 25,5 °C 14,5 km/h (3 Bft)
22.08.2023 18:29 25,0 °C 26,2 °C 65 % 59 % 1018,4 hPa 0,0 l/m² 8,0 km/h (2 Bft) N-NW 337 ° 1 min 118 W/m² 17,5 °C 25,9 °C 12,9 km/h (3 Bft)
22.08.2023 18:30 24,9 °C 26,2 °C 65 % 59 % 1018,4 hPa 0,0 l/m² 8,0 km/h (2 Bft) N-NW 337 ° 1 min 107 W/m² 17,5 °C 25,9 °C 12,9 km/h (3 Bft)
22.08.2023 18:31 25,0 °C 26,1 °C 65 % 59 % 1018,5 hPa 0,0 l/m² 6,4 km/h (2 Bft) N-NW 337 ° 1 min 97 W/m² 17,4 °C 26,1 °C 9,7 km/h (2 Bft)
22.08.2023 18:32 24,9 °C 26,1 °C 65 % 59 % 1018,4 hPa 0,0 l/m² 9,7 km/h (2 Bft) N-NW 337 ° 1 min 88 W/m² 17,4 °C 25,4 °C 16,1 km/h (3 Bft)
22.08.2023 18:33 25,0 °C 26,1 °C 65 % 58 % 1018,4 hPa 0,0 l/m² 12,9 km/h (3 Bft) N-NW 337 ° 1 min 84 W/m² 17,2 °C 24,9 °C 16,1 km/h (3 Bft)
22.08.2023 18:34 24,9 °C 26,1 °C 65 % 59 % 1018,4 hPa 0,0 l/m² 9,7 km/h (2 Bft) N-NW 337 ° 1 min 81 W/m² 17,4 °C 25,4 °C 16,1 km/h (3 Bft)
22.08.2023 18:35 25,0 °C 26,0 °C 65 % 59 % 1018,4 hPa 0,0 l/m² 8,0 km/h (2 Bft) N-NW 337 ° 1 min 83 W/m² 17,4 °C 25,7 °C 12,9 km/h (3 Bft)
22.08.2023 18:36 25,0 °C 25,9 °C 65 % 59 % 1018,4 hPa 0,0 l/m² 6,4 km/h (2 Bft) NW 315 ° 1 min 83 W/m² 17,3 °C 25,9 °C 12,9 km/h (3 Bft)
22.08.2023 18:37 25,0 °C 25,9 °C 65 % 59 % 1018,4 hPa 0,0 l/m² 11,3 km/h (2 Bft) NW 315 ° 1 min 81 W/m² 17,3 °C 24,9 °C 16,1 km/h (3 Bft)
22.08.2023 18:38 25,0 °C 25,9 °C 65 % 60 % 1018,4 hPa 0,0 l/m² 12,9 km/h (3 Bft) NW 315 ° 1 min 81 W/m² 17,5 °C 24,7 °C 17,7 km/h (3 Bft)
22.08.2023 18:39 25,0 °C 25,9 °C 65 % 60 % 1018,4 hPa 0,0 l/m² 12,9 km/h (3 Bft) NW 315 ° 1 min 77 W/m² 17,5 °C 24,7 °C 16,1 km/h (3 Bft)
22.08.2023 18:40 25,0 °C 25,8 °C 66 % 61 % 1018,4 hPa 0,0 l/m² 4,8 km/h (1 Bft) W 270 ° 1 min 74 W/m² 17,7 °C 25,8 °C 11,3 km/h (2 Bft)
22.08.2023 18:41 25,1 °C 25,8 °C 66 % 61 % 1018,4 hPa 0,0 l/m² 8,0 km/h (2 Bft) NW 315 ° 1 min 74 W/m² 17,7 °C 25,4 °C 14,5 km/h (3 Bft)
22.08.2023 18:42 25,0 °C 25,8 °C 66 % 61 % 1018,4 hPa 0,0 l/m² 6,4 km/h (2 Bft) NW 315 ° 1 min 74 W/m² 17,7 °C 25,8 °C 16,1 km/h (3 Bft)
22.08.2023 18:43 25,1 °C 25,7 °C 66 % 61 % 1018,4 hPa 0,0 l/m² 8,0 km/h (2 Bft) NW 315 ° 1 min 70 W/m² 17,6 °C 25,3 °C 14,5 km/h (3 Bft)
22.08.2023 18:44 25,0 °C 25,7 °C 66 % 62 % 1018,4 hPa 0,0 l/m² 6,4 km/h (2 Bft) NW 315 ° 1 min 67 W/m² 17,9 °C 25,7 °C 14,5 km/h (3 Bft)
22.08.2023 18:45 25,1 °C 25,7 °C 66 % 62 % 1018,4 hPa 0,0 l/m² 11,3 km/h (2 Bft) W-NW 292 ° 1 min 62 W/m² 17,9 °C 24,7 °C 16,1 km/h (3 Bft)
22.08.2023 18:46 25,1 °C 25,7 °C 66 % 62 % 1018,5 hPa 0,0 l/m² 11,3 km/h (2 Bft) NW 315 ° 1 min 60 W/m² 17,9 °C 24,7 °C 16,1 km/h (3 Bft)
22.08.2023 18:47 25,1 °C 25,7 °C 66 % 62 % 1018,5 hPa 0,0 l/m² 11,3 km/h (2 Bft) NW 315 ° 1 min 60 W/m² 17,9 °C 24,7 °C 16,1 km/h (3 Bft)
22.08.2023 18:48 25,1 °C 25,7 °C 66 % 62 % 1018,6 hPa 0,0 l/m² 6,4 km/h (2 Bft) W 270 ° 1 min 63 W/m² 17,9 °C 25,7 °C 16,1 km/h (3 Bft)
22.08.2023 18:49 25,1 °C 25,6 °C 66 % 62 % 1018,6 hPa 0,0 l/m² 11,3 km/h (2 Bft) NW 315 ° 1 min 69 W/m² 17,8 °C 24,6 °C 17,7 km/h (3 Bft)
22.08.2023 18:50 25,1 °C 25,6 °C 66 % 63 % 1018,6 hPa 0,0 l/m² 6,4 km/h (2 Bft) NW 315 ° 1 min 76 W/m² 18,0 °C 25,6 °C 12,9 km/h (3 Bft)
22.08.2023 18:51 25,1 °C 25,6 °C 66 % 62 % 1018,5 hPa 0,0 l/m² 9,7 km/h (2 Bft) NW 315 ° 1 min 93 W/m² 17,8 °C 24,9 °C 16,1 km/h (3 Bft)
22.08.2023 18:52 25,1 °C 25,5 °C 66 % 63 % 1018,5 hPa 0,0 l/m² 8,0 km/h (2 Bft) NW 315 ° 1 min 97 W/m² 17,9 °C 25,1 °C 16,1 km/h (3 Bft)
22.08.2023 18:53 25,1 °C 25,5 °C 66 % 63 % 1018,5 hPa 0,0 l/m² 8,0 km/h (2 Bft) NW 315 ° 1 min 98 W/m² 17,9 °C 25,1 °C 14,5 km/h (3 Bft)
22.08.2023 18:54 25,1 °C 25,5 °C 66 % 62 % 1018,5 hPa 0,0 l/m² 9,7 km/h (2 Bft) W-NW 292 ° 1 min 95 W/m² 17,7 °C 24,8 °C 19,3 km/h (3 Bft)
22.08.2023 18:55 25,1 °C 25,4 °C 66 % 63 % 1018,5 hPa 0,0 l/m² 8,0 km/h (2 Bft) W-NW 292 ° 1 min 88 W/m² 17,8 °C 25,0 °C 14,5 km/h (3 Bft)
22.08.2023 18:56 25,1 °C 25,4 °C 66 % 63 % 1018,5 hPa 0,0 l/m² 4,8 km/h (1 Bft) W-NW 292 ° 1 min 79 W/m² 17,8 °C 25,4 °C 17,7 km/h (3 Bft)
22.08.2023 18:57 25,1 °C 25,4 °C 66 % 63 % 1018,5 hPa 0,0 l/m² 11,3 km/h (2 Bft) NW 315 ° 1 min 72 W/m² 17,8 °C 24,4 °C 17,7 km/h (3 Bft)
22.08.2023 18:58 25,1 °C 25,4 °C 66 % 63 % 1018,5 hPa 0,0 l/m² 8,0 km/h (2 Bft) NW 315 ° 1 min 60 W/m² 17,8 °C 25,0 °C 16,1 km/h (3 Bft)
22.08.2023 18:59 25,1 °C 25,4 °C 66 % 63 % 1018,5 hPa 0,0 l/m² 9,7 km/h (2 Bft) NW 315 ° 1 min 56 W/m² 17,8 °C 24,7 °C 16,1 km/h (3 Bft)
22.08.2023 19:00 25,1 °C 25,4 °C 66 % 63 % 1018,5 hPa 0,0 l/m² 8,0 km/h (2 Bft) NW 315 ° 1 min 83 W/m² 17,8 °C 25,0 °C 14,5 km/h (3 Bft)
22.08.2023 19:01 25,1 °C 25,3 °C 66 % 63 % 1018,5 hPa 0,0 l/m² 8,0 km/h (2 Bft) NW 315 ° 1 min 77 W/m² 17,7 °C 24,9 °C 17,7 km/h (3 Bft)
22.08.2023 19:02 25,1 °C 25,3 °C 66 % 63 % 1018,5 hPa 0,0 l/m² 11,3 km/h (2 Bft) NW 315 ° 1 min 67 W/m² 17,7 °C 24,3 °C 17,7 km/h (3 Bft)
22.08.2023 19:03 25,1 °C 25,3 °C 66 % 63 % 1018,6 hPa 0,0 l/m² 9,7 km/h (2 Bft) NW 315 ° 1 min 70 W/m² 17,7 °C 24,6 °C 17,7 km/h (3 Bft)
22.08.2023 19:04 25,1 °C 25,3 °C 66 % 63 % 1018,6 hPa 0,0 l/m² 11,3 km/h (2 Bft) NW 315 ° 1 min 76 W/m² 17,7 °C 24,3 °C 17,7 km/h (3 Bft)
22.08.2023 19:05 25,1 °C 25,3 °C 66 % 63 % 1018,6 hPa 0,0 l/m² 11,3 km/h (2 Bft) NW 315 ° 1 min 79 W/m² 17,7 °C 24,3 °C 20,9 km/h (4 Bft)
22.08.2023 19:06 25,1 °C 25,3 °C 66 % 63 % 1018,6 hPa 0,0 l/m² 14,5 km/h (3 Bft) NW 315 ° 1 min 83 W/m² 17,7 °C 23,7 °C 22,5 km/h (4 Bft)
22.08.2023 19:07 25,1 °C 25,3 °C 66 % 63 % 1018,6 hPa 0,0 l/m² 8,0 km/h (2 Bft) NW 315 ° 1 min 90 W/m² 17,7 °C 24,9 °C 14,5 km/h (3 Bft)
22.08.2023 19:08 25,1 °C 25,3 °C 66 % 64 % 1018,6 hPa 0,0 l/m² 6,4 km/h (2 Bft) W-NW 292 ° 1 min 97 W/m² 18,0 °C 25,3 °C 12,9 km/h (3 Bft)
22.08.2023 19:09 25,1 °C 25,3 °C 66 % 64 % 1018,6 hPa 0,0 l/m² 9,7 km/h (2 Bft) NW 315 ° 1 min 113 W/m² 18,0 °C 24,6 °C 17,7 km/h (3 Bft)
22.08.2023 19:10 25,1 °C 25,4 °C 66 % 64 % 1018,7 hPa 0,0 l/m² 11,3 km/h (2 Bft) NW 315 ° 1 min 107 W/m² 18,1 °C 24,4 °C 19,3 km/h (3 Bft)
22.08.2023 19:11 25,1 °C 25,4 °C 66 % 63 % 1018,6 hPa 0,0 l/m² 12,9 km/h (3 Bft) NW 315 ° 1 min 105 W/m² 17,8 °C 24,1 °C 19,3 km/h (3 Bft)
22.08.2023 19:12 25,1 °C 25,4 °C 66 % 63 % 1018,6 hPa 0,0 l/m² 11,3 km/h (2 Bft) NW 315 ° 1 min 107 W/m² 17,8 °C 24,4 °C 17,7 km/h (3 Bft)
22.08.2023 19:13 25,1 °C 25,4 °C 66 % 63 % 1018,6 hPa 0,0 l/m² 11,3 km/h (2 Bft) NW 315 ° 1 min 105 W/m² 17,8 °C 24,4 °C 16,1 km/h (3 Bft)
22.08.2023 19:14 25,1 °C 25,4 °C 66 % 63 % 1018,5 hPa 0,0 l/m² 12,9 km/h (3 Bft) NW 315 ° 1 min 107 W/m² 17,8 °C 24,1 °C 17,7 km/h (3 Bft)
22.08.2023 19:15 25,1 °C 25,4 °C 66 % 63 % 1018,5 hPa 0,0 l/m² 11,3 km/h (2 Bft) NW 315 ° 1 min 105 W/m² 17,8 °C 24,4 °C 17,7 km/h (3 Bft)
22.08.2023 19:16 25,1 °C 25,4 °C 66 % 63 % 1018,5 hPa 0,0 l/m² 12,9 km/h (3 Bft) NW 315 ° 1 min 102 W/m² 17,8 °C 24,1 °C 19,3 km/h (3 Bft)
22.08.2023 19:17 25,1 °C 25,3 °C 66 % 63 % 1018,5 hPa 0,0 l/m² 11,3 km/h (2 Bft) N-NW 337 ° 1 min 95 W/m² 17,7 °C 24,3 °C 17,7 km/h (3 Bft)
22.08.2023 19:18 25,1 °C 25,3 °C 66 % 63 % 1018,5 hPa 0,0 l/m² 9,7 km/h (2 Bft) NW 315 ° 1 min 86 W/m² 17,7 °C 24,6 °C 16,1 km/h (3 Bft)
22.08.2023 19:19 25,1 °C 25,3 °C 66 % 64 % 1018,5 hPa 0,0 l/m² 11,3 km/h (2 Bft) NW 315 ° 1 min 77 W/m² 18,0 °C 24,3 °C 16,1 km/h (3 Bft)
22.08.2023 19:20 25,1 °C 25,2 °C 66 % 63 % 1018,5 hPa 0,0 l/m² 11,3 km/h (2 Bft) NW 315 ° 1 min 69 W/m² 17,6 °C 24,1 °C 16,1 km/h (3 Bft)
22.08.2023 19:21 25,1 °C 25,2 °C 66 % 64 % 1018,5 hPa 0,0 l/m² 6,4 km/h (2 Bft) W-NW 292 ° 1 min 56 W/m² 17,9 °C 25,2 °C 12,9 km/h (3 Bft)
22.08.2023 19:22 25,1 °C 25,2 °C 66 % 64 % 1018,6 hPa 0,0 l/m² 8,0 km/h (2 Bft) W-NW 292 ° 1 min 54 W/m² 17,9 °C 24,8 °C 14,5 km/h (3 Bft)
22.08.2023 19:23 25,1 °C 25,1 °C 66 % 64 % 1018,5 hPa 0,0 l/m² 6,4 km/h (2 Bft) NW 315 ° 0 min 49 W/m² 17,8 °C 25,1 °C 14,5 km/h (3 Bft)
22.08.2023 19:24 25,1 °C 25,1 °C 66 % 64 % 1018,6 hPa 0,0 l/m² 11,3 km/h (2 Bft) NW 315 ° 0 min 44 W/m² 17,8 °C 24,0 °C 19,3 km/h (3 Bft)
22.08.2023 19:25 25,1 °C 25,0 °C 66 % 64 % 1018,5 hPa 0,0 l/m² 12,9 km/h (3 Bft) NW 315 ° 0 min 42 W/m² 17,7 °C 23,6 °C 19,3 km/h (3 Bft)
22.08.2023 19:26 25,1 °C 24,9 °C 66 % 64 % 1018,6 hPa 0,0 l/m² 4,8 km/h (1 Bft) W-NW 292 ° 0 min 40 W/m² 17,6 °C 24,9 °C 9,7 km/h (2 Bft)
22.08.2023 19:27 25,1 °C 24,9 °C 66 % 65 % 1018,5 hPa 0,0 l/m² 3,2 km/h (1 Bft) W-NW 292 ° 0 min 39 W/m² 17,9 °C 24,9 °C 6,4 km/h (2 Bft)
22.08.2023 19:28 25,1 °C 24,8 °C 66 % 65 % 1018,6 hPa 0,0 l/m² 4,8 km/h (1 Bft) N-NW 337 ° 0 min 39 W/m² 17,8 °C 24,8 °C 11,3 km/h (2 Bft)
22.08.2023 19:29 25,1 °C 24,8 °C 66 % 66 % 1018,5 hPa 0,0 l/m² 8,0 km/h (2 Bft) W-NW 292 ° 0 min 39 W/m² 18,0 °C 24,4 °C 16,1 km/h (3 Bft)
22.08.2023 19:30 25,1 °C 24,7 °C 66 % 65 % 1018,5 hPa 0,0 l/m² 8,0 km/h (2 Bft) NW 315 ° 0 min 39 W/m² 17,7 °C 24,3 °C 14,5 km/h (3 Bft)
22.08.2023 19:31 25,1 °C 24,7 °C 66 % 65 % 1018,6 hPa 0,0 l/m² 8,0 km/h (2 Bft) W-NW 292 ° 0 min 37 W/m² 17,7 °C 24,3 °C 12,9 km/h (3 Bft)
22.08.2023 19:32 25,1 °C 24,7 °C 66 % 65 % 1018,5 hPa 0,0 l/m² 8,0 km/h (2 Bft) W-NW 292 ° 0 min 37 W/m² 17,7 °C 24,3 °C 14,5 km/h (3 Bft)
22.08.2023 19:33 25,1 °C 24,6 °C 66 % 65 % 1018,6 hPa 0,0 l/m² 6,4 km/h (2 Bft) NW 315 ° 0 min 33 W/m² 17,6 °C 24,6 °C 9,7 km/h (2 Bft)
22.08.2023 19:34 25,1 °C 24,6 °C 66 % 66 % 1018,6 hPa 0,0 l/m² 6,4 km/h (2 Bft) W-NW 292 ° 0 min 33 W/m² 17,8 °C 24,6 °C 12,9 km/h (3 Bft)
22.08.2023 19:35 25,1 °C 24,6 °C 66 % 65 % 1018,6 hPa 0,0 l/m² 8,0 km/h (2 Bft) NW 315 ° 0 min 33 W/m² 17,6 °C 24,2 °C 14,5 km/h (3 Bft)
22.08.2023 19:36 25,1 °C 24,6 °C 66 % 65 % 1018,7 hPa 0,0 l/m² 9,7 km/h (2 Bft) NW 315 ° 0 min 33 W/m² 17,6 °C 23,8 °C 14,5 km/h (3 Bft)
22.08.2023 19:37 25,1 °C 24,5 °C 66 % 65 % 1018,6 hPa 0,0 l/m² 6,4 km/h (2 Bft) W-NW 292 ° 0 min 33 W/m² 17,5 °C 24,5 °C 9,7 km/h (2 Bft)
22.08.2023 19:38 25,1 °C 24,6 °C 66 % 65 % 1018,6 hPa 0,0 l/m² 3,2 km/h (1 Bft) W-NW 292 ° 0 min 33 W/m² 17,6 °C 24,6 °C 6,4 km/h (2 Bft)
22.08.2023 19:39 25,1 °C 24,5 °C 66 % 66 % 1018,7 hPa 0,0 l/m² 3,2 km/h (1 Bft) W-NW 292 ° 0 min 33 W/m² 17,7 °C 24,5 °C 8,0 km/h (2 Bft)
22.08.2023 19:40 25,1 °C 24,5 °C 66 % 65 % 1018,7 hPa 0,0 l/m² 6,4 km/h (2 Bft) NW 315 ° 0 min 33 W/m² 17,5 °C 24,5 °C 9,7 km/h (2 Bft)
22.08.2023 19:41 25,1 °C 24,5 °C 66 % 65 % 1018,7 hPa 0,0 l/m² 8,0 km/h (2 Bft) NW 315 ° 0 min 32 W/m² 17,5 °C 24,1 °C 14,5 km/h (3 Bft)
22.08.2023 19:42 25,1 °C 24,4 °C 66 % 65 % 1018,7 hPa 0,0 l/m² 4,8 km/h (1 Bft) W-NW 292 ° 0 min 30 W/m² 17,4 °C 24,4 °C 8,0 km/h (2 Bft)
22.08.2023 19:43 25,1 °C 24,4 °C 66 % 66 % 1018,7 hPa 0,0 l/m² 4,8 km/h (1 Bft) NW 315 ° 0 min 28 W/m² 17,6 °C 24,4 °C 8,0 km/h (2 Bft)
22.08.2023 19:44 25,1 °C 24,4 °C 66 % 66 % 1018,6 hPa 0,0 l/m² 1,6 km/h (1 Bft) NW 315 ° 0 min 26 W/m² 17,6 °C 24,4 °C 4,8 km/h (1 Bft)
22.08.2023 19:45 25,1 °C 24,4 °C 66 % 66 % 1018,7 hPa 0,0 l/m² 4,8 km/h (1 Bft) NW 315 ° 0 min 23 W/m² 17,6 °C 24,4 °C 6,4 km/h (2 Bft)
22.08.2023 19:46 25,1 °C 24,3 °C 66 % 66 % 1018,7 hPa 0,0 l/m² 4,8 km/h (1 Bft) N 360 ° 0 min 19 W/m² 17,5 °C 24,3 °C 6,4 km/h (2 Bft)
22.08.2023 19:47 25,1 °C 24,3 °C 66 % 66 % 1018,7 hPa 0,0 l/m² 3,2 km/h (1 Bft) NW 315 ° 0 min 14 W/m² 17,5 °C 24,3 °C 6,4 km/h (2 Bft)
22.08.2023 19:48 25,1 °C 24,3 °C 66 % 66 % 1018,7 hPa 0,0 l/m² 6,4 km/h (2 Bft) NW 315 ° 0 min 12 W/m² 17,5 °C 24,3 °C 11,3 km/h (2 Bft)
22.08.2023 19:49 25,1 °C 24,2 °C 66 % 67 % 1018,8 hPa 0,0 l/m² 4,8 km/h (1 Bft) N-NW 337 ° 0 min 12 W/m² 17,7 °C 24,2 °C 8,0 km/h (2 Bft)
22.08.2023 19:50 25,1 °C 24,2 °C 66 % 67 % 1018,7 hPa 0,0 l/m² 6,4 km/h (2 Bft) NW 315 ° 0 min 11 W/m² 17,7 °C 24,2 °C 8,0 km/h (2 Bft)
22.08.2023 19:51 25,1 °C 24,2 °C 66 % 66 % 1018,6 hPa 0,0 l/m² 4,8 km/h (1 Bft) NW 315 ° 0 min 9 W/m² 17,4 °C 24,2 °C 11,3 km/h (2 Bft)
22.08.2023 19:52 25,1 °C 24,2 °C 66 % 66 % 1018,6 hPa 0,0 l/m² 4,8 km/h (1 Bft) N-NW 337 ° 0 min 7 W/m² 17,4 °C 24,2 °C 8,0 km/h (2 Bft)
22.08.2023 19:53 25,1 °C 24,2 °C 66 % 66 % 1018,6 hPa 0,0 l/m² 6,4 km/h (2 Bft) NW 315 ° 0 min 7 W/m² 17,4 °C 24,2 °C 9,7 km/h (2 Bft)
22.08.2023 19:54 25,1 °C 24,2 °C 66 % 66 % 1018,6 hPa 0,0 l/m² 4,8 km/h (1 Bft) NW 315 ° 0 min 7 W/m² 17,4 °C 24,2 °C 8,0 km/h (2 Bft)
22.08.2023 20:01 25,1 °C 24,0 °C 66 % 67 % 1018,6 hPa 0,0 l/m² 2,5 km/h (1 Bft) W-NW 285 ° 0 min 7 W/m² 17,5 °C 24,0 °C 4,8 km/h (1 Bft)
22.08.2023 20:03 25,1 °C 23,9 °C 66 % 67 % 1018,5 hPa 0,0 l/m² 3,6 km/h (1 Bft) NW 315 ° 0 min 7 W/m² 17,4 °C 23,9 °C 8,0 km/h (2 Bft)
22.08.2023 20:04 25,1 °C 23,9 °C 66 % 67 % 1018,5 hPa 0,0 l/m² 3,4 km/h (1 Bft) NW 324 ° 0 min 7 W/m² 17,4 °C 23,9 °C 4,8 km/h (1 Bft)
22.08.2023 20:05 25,1 °C 23,9 °C 66 % 68 % 1018,6 hPa 0,0 l/m² 3,6 km/h (1 Bft) W-NW 295 ° 0 min 7 W/m² 17,6 °C 23,9 °C 4,8 km/h (1 Bft)
22.08.2023 20:07 25,1 °C 23,8 °C 66 % 68 % 1018,5 hPa 0,0 l/m² 3,4 km/h (1 Bft) NW 321 ° 0 min 7 W/m² 17,5 °C 23,8 °C 6,4 km/h (2 Bft)
22.08.2023 20:09 25,1 °C 23,8 °C 66 % 68 % 1018,5 hPa 0,0 l/m² 3,3 km/h (1 Bft) W-NW 298 ° 0 min 7 W/m² 17,5 °C 23,8 °C 4,8 km/h (1 Bft)
22.08.2023 20:10 25,1 °C 23,7 °C 66 % 68 % 1018,5 hPa 0,0 l/m² 2,6 km/h (1 Bft) NW 305 ° 0 min 7 W/m² 17,4 °C 23,7 °C 6,4 km/h (2 Bft)
22.08.2023 20:11 25,1 °C 23,7 °C 66 % 68 % 1018,6 hPa 0,0 l/m² 2,9 km/h (1 Bft) W-NW 288 ° 0 min 7 W/m² 17,4 °C 23,7 °C 4,8 km/h (1 Bft)
22.08.2023 20:12 25,1 °C 23,7 °C 66 % 68 % 1018,6 hPa 0,0 l/m² 2,5 km/h (1 Bft) W-NW 301 ° 0 min 7 W/m² 17,4 °C 23,7 °C 4,8 km/h (1 Bft)
22.08.2023 20:14 25,1 °C 23,7 °C 66 % 69 % 1018,6 hPa 0,0 l/m² 2,7 km/h (1 Bft) W 275 ° 0 min 5 W/m² 17,7 °C 23,7 °C 6,4 km/h (2 Bft)
22.08.2023 20:15 25,1 °C 23,6 °C 66 % 69 % 1018,7 hPa 0,0 l/m² 5,2 km/h (1 Bft) W-NW 298 ° 0 min 5 W/m² 17,6 °C 23,6 °C 8,0 km/h (2 Bft)
22.08.2023 20:17 25,1 °C 23,6 °C 66 % 69 % 1018,7 hPa 0,0 l/m² 0,8 km/h (0 Bft) W-NW 298 ° 0 min 0 W/m² 17,6 °C 23,6 °C 4,8 km/h (1 Bft)
22.08.2023 20:18 25,1 °C 23,6 °C 66 % 68 % 1018,7 hPa 0,0 l/m² 1,5 km/h (1 Bft) W-NW 300 ° 0 min 0 W/m² 17,3 °C 23,6 °C 3,2 km/h (1 Bft)
22.08.2023 20:19 25,1 °C 23,6 °C 66 % 68 % 1018,7 hPa 0,0 l/m² 1,2 km/h (1 Bft) N 355 ° 0 min 0 W/m² 17,3 °C 23,6 °C 4,8 km/h (1 Bft)
22.08.2023 20:21 25,1 °C 23,5 °C 66 % 69 % 1018,7 hPa 0,0 l/m² 3,0 km/h (1 Bft) NW 313 ° 0 min 0 W/m² 17,5 °C 23,5 °C 6,4 km/h (2 Bft)
22.08.2023 20:22 25,1 °C 23,5 °C 66 % 69 % 1018,7 hPa 0,0 l/m² 4,1 km/h (1 Bft) W-NW 297 ° 0 min 0 W/m² 17,5 °C 23,5 °C 8,0 km/h (2 Bft)
22.08.2023 20:23 25,1 °C 23,4 °C 66 % 69 % 1018,8 hPa 0,0 l/m² 3,8 km/h (1 Bft) NW 324 ° 0 min 0 W/m² 17,4 °C 23,4 °C 6,4 km/h (2 Bft)
22.08.2023 20:25 25,1 °C 23,4 °C 66 % 70 % 1018,8 hPa 0,0 l/m² 3,6 km/h (1 Bft) W 269 ° 0 min 0 W/m² 17,6 °C 23,4 °C 8,0 km/h (2 Bft)
22.08.2023 20:27 25,1 °C 23,3 °C 66 % 69 % 1018,9 hPa 0,0 l/m² 4,5 km/h (1 Bft) NW 310 ° 0 min 0 W/m² 17,3 °C 23,3 °C 8,0 km/h (2 Bft)
22.08.2023 20:29 25,1 °C 23,3 °C 66 % 69 % 1018,9 hPa 0,0 l/m² 4,2 km/h (1 Bft) N-NW 338 ° 0 min 0 W/m² 17,3 °C 23,3 °C 8,0 km/h (2 Bft)
22.08.2023 20:30 25,1 °C 23,3 °C 66 % 69 % 1019,0 hPa 0,0 l/m² 1,9 km/h (1 Bft) W-NW 296 ° 0 min 0 W/m² 17,3 °C 23,3 °C 4,8 km/h (1 Bft)
22.08.2023 20:31 25,1 °C 23,2 °C 66 % 69 % 1019,0 hPa 0,0 l/m² 1,4 km/h (1 Bft) NW 310 ° 0 min 0 W/m² 17,2 °C 23,2 °C 3,2 km/h (1 Bft)
22.08.2023 20:32 25,1 °C 23,2 °C 66 % 69 % 1019,0 hPa 0,0 l/m² 5,1 km/h (1 Bft) W-NW 302 ° 0 min 0 W/m² 17,2 °C 23,2 °C 11,3 km/h (2 Bft)
22.08.2023 20:34 25,1 °C 23,2 °C 66 % 69 % 1019,0 hPa 0,0 l/m² 2,6 km/h (1 Bft) W-NW 284 ° 0 min 0 W/m² 17,2 °C 23,2 °C 9,7 km/h (2 Bft)
22.08.2023 20:36 25,1 °C 23,2 °C 66 % 70 % 1019,1 hPa 0,0 l/m² 1,8 km/h (1 Bft) NW 311 ° 0 min 0 W/m² 17,4 °C 23,2 °C 4,8 km/h (1 Bft)
22.08.2023 20:38 25,1 °C 23,1 °C 66 % 69 % 1019,0 hPa 0,0 l/m² 3,6 km/h (1 Bft) W-NW 293 ° 0 min 0 W/m² 17,1 °C 23,1 °C 6,4 km/h (2 Bft)
22.08.2023 20:40 25,1 °C 23,1 °C 66 % 69 % 1019,0 hPa 0,0 l/m² 3,7 km/h (1 Bft) W-NW 297 ° 0 min 0 W/m² 17,1 °C 23,1 °C 6,4 km/h (2 Bft)
22.08.2023 20:41 25,1 °C 23,1 °C 66 % 69 % 1019,0 hPa 0,0 l/m² 1,0 km/h (0 Bft) W-NW 302 ° 0 min 0 W/m² 17,1 °C 23,1 °C 3,2 km/h (1 Bft)
22.08.2023 20:42 25,1 °C 23,0 °C 66 % 69 % 1019,0 hPa 0,0 l/m² 1,6 km/h (1 Bft) NW 305 ° 0 min 0 W/m² 17,0 °C 23,0 °C 3,2 km/h (1 Bft)
22.08.2023 20:43 25,1 °C 23,0 °C 66 % 69 % 1019,1 hPa 0,0 l/m² 2,9 km/h (1 Bft) W-NW 296 ° 0 min 0 W/m² 17,0 °C 23,0 °C 4,8 km/h (1 Bft)
22.08.2023 20:45 25,2 °C 22,9 °C 66 % 69 % 1019,1 hPa 0,0 l/m² 2,7 km/h (1 Bft) NW 304 ° 0 min 0 W/m² 16,9 °C 22,9 °C 4,8 km/h (1 Bft)
22.08.2023 20:47 25,2 °C 22,9 °C 66 % 69 % 1019,2 hPa 0,0 l/m² 3,6 km/h (1 Bft) W-NW 302 ° 0 min 0 W/m² 16,9 °C 22,9 °C 8,0 km/h (2 Bft)
22.08.2023 20:49 25,1 °C 22,9 °C 66 % 68 % 1019,1 hPa 0,0 l/m² 2,3 km/h (1 Bft) W-NW 300 ° 0 min 0 W/m² 16,7 °C 22,9 °C 6,4 km/h (2 Bft)
22.08.2023 20:50 25,2 °C 22,9 °C 66 % 68 % 1019,2 hPa 0,0 l/m² 2,4 km/h (1 Bft) NW 311 ° 0 min 0 W/m² 16,7 °C 22,9 °C 6,4 km/h (2 Bft)
22.08.2023 20:51 25,2 °C 22,9 °C 66 % 69 % 1019,2 hPa 0,0 l/m² 4,3 km/h (1 Bft) NW 305 ° 0 min 0 W/m² 16,9 °C 22,9 °C 4,8 km/h (1 Bft)
22.08.2023 20:53 25,2 °C 22,9 °C 66 % 68 % 1019,2 hPa 0,0 l/m² 5,1 km/h (1 Bft) W-NW 295 ° 0 min 0 W/m² 16,7 °C 22,9 °C 9,7 km/h (2 Bft)
22.08.2023 20:54 25,2 °C 22,9 °C 66 % 67 % 1019,2 hPa 0,0 l/m² 3,7 km/h (1 Bft) NW 321 ° 0 min 0 W/m² 16,4 °C 22,9 °C 8,0 km/h (2 Bft)
22.08.2023 20:55 25,2 °C 22,9 °C 66 % 67 % 1019,2 hPa 0,0 l/m² 2,9 km/h (1 Bft) NW 304 ° 0 min 0 W/m² 16,4 °C 22,9 °C 6,4 km/h (2 Bft)
22.08.2023 20:56 25,2 °C 22,8 °C 66 % 68 % 1019,2 hPa 0,0 l/m² 1,9 km/h (1 Bft) N-NW 327 ° 0 min 0 W/m² 16,6 °C 22,8 °C 4,8 km/h (1 Bft)
22.08.2023 20:58 25,2 °C 22,8 °C 66 % 67 % 1019,3 hPa 0,0 l/m² 3,0 km/h (1 Bft) NW 324 ° 0 min 0 W/m² 16,3 °C 22,8 °C 6,4 km/h (2 Bft)
22.08.2023 20:59 25,2 °C 22,8 °C 66 % 68 % 1019,2 hPa 0,0 l/m² 3,2 km/h (1 Bft) NW 315 ° 0 min 0 W/m² 16,6 °C 22,8 °C 6,4 km/h (2 Bft)
22.08.2023 21:01 25,2 °C 22,8 °C 66 % 67 % 1019,3 hPa 0,0 l/m² 2,5 km/h (1 Bft) NW 307 ° 0 min 0 W/m² 16,3 °C 22,8 °C 6,4 km/h (2 Bft)
22.08.2023 21:02 25,2 °C 22,7 °C 66 % 68 % 1019,3 hPa 0,0 l/m² 4,5 km/h (1 Bft) W-NW 295 ° 0 min 0 W/m² 16,5 °C 22,7 °C 6,4 km/h (2 Bft)
22.08.2023 21:04 25,2 °C 22,7 °C 66 % 67 % 1019,3 hPa 0,0 l/m² 4,4 km/h (1 Bft) W-NW 298 ° 0 min 0 W/m² 16,2 °C 22,7 °C 8,0 km/h (2 Bft)
22.08.2023 21:05 25,2 °C 22,7 °C 66 % 67 % 1019,3 hPa 0,0 l/m² 2,5 km/h (1 Bft) NW 325 ° 0 min 0 W/m² 16,2 °C 22,7 °C 4,8 km/h (1 Bft)
22.08.2023 21:06 25,2 °C 22,7 °C 66 % 67 % 1019,4 hPa 0,0 l/m² 1,5 km/h (1 Bft) NW 307 ° 0 min 0 W/m² 16,2 °C 22,7 °C 3,2 km/h (1 Bft)
22.08.2023 21:07 25,2 °C 22,7 °C 66 % 67 % 1019,4 hPa 0,0 l/m² 4,2 km/h (1 Bft) NW 312 ° 0 min 0 W/m² 16,2 °C 22,7 °C 8,0 km/h (2 Bft)
22.08.2023 21:08 25,2 °C 22,7 °C 66 % 66 % 1019,4 hPa 0,0 l/m² 3,4 km/h (1 Bft) NW 307 ° 0 min 0 W/m² 16,0 °C 22,7 °C 4,8 km/h (1 Bft)
22.08.2023 21:09 25,2 °C 22,6 °C 66 % 66 % 1019,4 hPa 0,0 l/m² 3,6 km/h (1 Bft) NW 317 ° 0 min 0 W/m² 15,9 °C 22,6 °C 6,4 km/h (2 Bft)
22.08.2023 21:11 25,2 °C 22,6 °C 66 % 66 % 1019,3 hPa 0,0 l/m² 0,9 km/h (0 Bft) NW 317 ° 0 min 0 W/m² 15,9 °C 22,6 °C 4,8 km/h (1 Bft)
22.08.2023 21:13 25,2 °C 22,6 °C 66 % 66 % 1019,3 hPa 0,0 l/m² 1,0 km/h (0 Bft) NW 312 ° 0 min 0 W/m² 15,9 °C 22,6 °C 3,2 km/h (1 Bft)
22.08.2023 21:14 25,3 °C 22,6 °C 66 % 67 % 1019,4 hPa 0,0 l/m² 3,0 km/h (1 Bft) W-NW 294 ° 0 min 0 W/m² 16,2 °C 22,6 °C 4,8 km/h (1 Bft)
22.08.2023 21:15 25,2 °C 22,6 °C 66 % 66 % 1019,4 hPa 0,0 l/m² 2,5 km/h (1 Bft) NW 309 ° 0 min 0 W/m² 15,9 °C 22,6 °C 4,8 km/h (1 Bft)
22.08.2023 21:16 25,2 °C 22,5 °C 66 % 66 % 1019,4 hPa 0,0 l/m² 0,3 km/h (0 Bft) NW 308 ° 0 min 0 W/m² 15,8 °C 22,5 °C 1,6 km/h (1 Bft)
22.08.2023 21:17 25,2 °C 22,5 °C 66 % 66 % 1019,5 hPa 0,0 l/m² 2,6 km/h (1 Bft) NW 313 ° 0 min 0 W/m² 15,8 °C 22,5 °C 6,4 km/h (2 Bft)
22.08.2023 21:18 25,2 °C 22,4 °C 66 % 66 % 1019,4 hPa 0,0 l/m² 1,9 km/h (1 Bft) NW 304 ° 0 min 0 W/m² 15,7 °C 22,4 °C 4,8 km/h (1 Bft)
22.08.2023 21:19 25,3 °C 22,4 °C 66 % 66 % 1019,4 hPa 0,0 l/m² 0,3 km/h (0 Bft) NW 306 ° 0 min 0 W/m² 15,7 °C 22,4 °C 1,6 km/h (1 Bft)
22.08.2023 21:21 25,3 °C 22,4 °C 66 % 66 % 1019,4 hPa 0,0 l/m² 1,8 km/h (1 Bft) NW 323 ° 0 min 0 W/m² 15,7 °C 22,4 °C 4,8 km/h (1 Bft)
22.08.2023 21:23 25,2 °C 22,4 °C 66 % 66 % 1019,5 hPa 0,0 l/m² 1,7 km/h (1 Bft) W-NW 299 ° 0 min 0 W/m² 15,7 °C 22,4 °C 3,2 km/h (1 Bft)
22.08.2023 21:24 25,3 °C 22,4 °C 66 % 66 % 1019,5 hPa 0,0 l/m² 2,3 km/h (1 Bft) NW 305 ° 0 min 0 W/m² 15,7 °C 22,4 °C 6,4 km/h (2 Bft)
22.08.2023 21:25 25,3 °C 22,4 °C 66 % 65 % 1019,4 hPa 0,0 l/m² 1,8 km/h (1 Bft) NW 325 ° 0 min 0 W/m² 15,5 °C 22,4 °C 3,2 km/h (1 Bft)
22.08.2023 21:27 25,3 °C 22,3 °C 66 % 66 % 1019,5 hPa 0,0 l/m² 2,1 km/h (1 Bft) N-NW 338 ° 0 min 0 W/m² 15,6 °C 22,3 °C 4,8 km/h (1 Bft)
22.08.2023 21:28 25,3 °C 22,3 °C 66 % 66 % 1019,5 hPa 0,0 l/m² 1,0 km/h (0 Bft) N-NW 328 ° 0 min 0 W/m² 15,6 °C 22,3 °C 3,2 km/h (1 Bft)
22.08.2023 21:29 25,3 °C 22,3 °C 66 % 66 % 1019,5 hPa 0,0 l/m² 2,1 km/h (1 Bft) NW 313 ° 0 min 0 W/m² 15,6 °C 22,3 °C 4,8 km/h (1 Bft)
22.08.2023 21:30 25,2 °C 22,3 °C 66 % 66 % 1019,6 hPa 0,0 l/m² 1,1 km/h (1 Bft) NW 323 ° 0 min 0 W/m² 15,6 °C 22,3 °C 3,2 km/h (1 Bft)
22.08.2023 21:32 25,3 °C 22,2 °C 66 % 66 % 1019,5 hPa 0,0 l/m² 1,4 km/h (1 Bft) NW 321 ° 0 min 0 W/m² 15,5 °C 22,2 °C 4,8 km/h (1 Bft)
22.08.2023 21:33 25,3 °C 22,2 °C 66 % 66 % 1019,6 hPa 0,0 l/m² 0,9 km/h (0 Bft) NW 317 ° 0 min 0 W/m² 15,5 °C 22,2 °C 4,8 km/h (1 Bft)
22.08.2023 21:34 25,3 °C 22,2 °C 66 % 66 % 1019,6 hPa 0,0 l/m² 0,1 km/h (0 Bft) NW 317 ° 0 min 0 W/m² 15,5 °C 22,2 °C 1,6 km/h (1 Bft)
22.08.2023 21:35 25,3 °C 22,2 °C 66 % 66 % 1019,6 hPa 0,0 l/m² 0,1 km/h (0 Bft) N 355 ° 0 min 0 W/m² 15,5 °C 22,2 °C 1,6 km/h (1 Bft)
22.08.2023 21:36 25,3 °C 22,2 °C 66 % 66 % 1019,6 hPa 0,0 l/m² 0,0 km/h (0 Bft) N 355 ° 0 min 0 W/m² 15,5 °C 22,2 °C 0,0 km/h (0 Bft)
22.08.2023 21:37 25,3 °C 22,2 °C 66 % 66 % 1019,5 hPa 0,0 l/m² 1,3 km/h (1 Bft) NW 305 ° 0 min 0 W/m² 15,5 °C 22,2 °C 4,8 km/h (1 Bft)
22.08.2023 21:38 25,3 °C 22,2 °C 66 % 66 % 1019,6 hPa 0,0 l/m² 3,0 km/h (1 Bft) NW 308 ° 0 min 0 W/m² 15,5 °C 22,2 °C 4,8 km/h (1 Bft)
22.08.2023 21:39 25,3 °C 22,1 °C 66 % 66 % 1019,5 hPa 0,0 l/m² 0,3 km/h (0 Bft) NW 308 ° 0 min 0 W/m² 15,4 °C 22,1 °C 1,6 km/h (1 Bft)
22.08.2023 21:41 25,3 °C 22,1 °C 66 % 65 % 1019,6 hPa 0,0 l/m² 0,0 km/h (0 Bft) NW 308 ° 0 min 0 W/m² 15,2 °C 22,1 °C 1,6 km/h (1 Bft)
22.08.2023 21:43 25,2 °C 22,0 °C 66 % 65 % 1019,6 hPa 0,0 l/m² 0,0 km/h (0 Bft) NW 308 ° 0 min 0 W/m² 15,1 °C 22,0 °C 0,0 km/h (0 Bft)
22.08.2023 21:44 25,3 °C 22,0 °C 66 % 65 % 1019,5 hPa 0,0 l/m² 0,6 km/h (0 Bft) W-NW 293 ° 0 min 0 W/m² 15,1 °C 22,0 °C 3,2 km/h (1 Bft)
22.08.2023 21:46 25,3 °C 21,9 °C 66 % 65 % 1019,5 hPa 0,0 l/m² 0,6 km/h (0 Bft) W-NW 290 ° 0 min 0 W/m² 15,0 °C 21,9 °C 3,2 km/h (1 Bft)
22.08.2023 21:47 25,3 °C 21,9 °C 66 % 66 % 1019,5 hPa 0,0 l/m² 1,1 km/h (1 Bft) NW 325 ° 0 min 0 W/m² 15,3 °C 21,9 °C 3,2 km/h (1 Bft)
22.08.2023 21:48 25,2 °C 21,9 °C 66 % 65 % 1019,5 hPa 0,0 l/m² 0,5 km/h (0 Bft) NW 325 ° 0 min 0 W/m² 15,0 °C 21,9 °C 1,6 km/h (1 Bft)
22.08.2023 21:49 25,3 °C 21,9 °C 66 % 65 % 1019,6 hPa 0,0 l/m² 1,7 km/h (1 Bft) W-NW 292 ° 0 min 0 W/m² 15,0 °C 21,9 °C 3,2 km/h (1 Bft)
22.08.2023 21:50 25,3 °C 22,0 °C 66 % 65 % 1019,5 hPa 0,0 l/m² 2,7 km/h (1 Bft) NW 313 ° 0 min 0 W/m² 15,1 °C 22,0 °C 4,8 km/h (1 Bft)
22.08.2023 21:52 25,3 °C 22,0 °C 66 % 65 % 1019,6 hPa 0,0 l/m² 2,5 km/h (1 Bft) NW 312 ° 0 min 0 W/m² 15,1 °C 22,0 °C 4,8 km/h (1 Bft)
22.08.2023 21:53 25,2 °C 22,0 °C 66 % 65 % 1019,6 hPa 0,0 l/m² 1,9 km/h (1 Bft) NW 323 ° 0 min 0 W/m² 15,1 °C 22,0 °C 4,8 km/h (1 Bft)
22.08.2023 21:54 25,3 °C 22,0 °C 66 % 65 % 1019,5 hPa 0,0 l/m² 2,8 km/h (1 Bft) W-NW 296 ° 0 min 0 W/m² 15,1 °C 22,0 °C 4,8 km/h (1 Bft)
22.08.2023 21:55 25,3 °C 21,9 °C 66 % 66 % 1019,5 hPa 0,0 l/m² 1,4 km/h (1 Bft) NW 309 ° 0 min 0 W/m² 15,3 °C 21,9 °C 3,2 km/h (1 Bft)
22.08.2023 21:56 25,3 °C 21,9 °C 66 % 66 % 1019,5 hPa 0,0 l/m² 0,5 km/h (0 Bft) W-NW 298 ° 0 min 0 W/m² 15,3 °C 21,9 °C 1,6 km/h (1 Bft)
22.08.2023 21:57 25,3 °C 21,9 °C 66 % 66 % 1019,5 hPa 0,0 l/m² 2,3 km/h (1 Bft) W-NW 293 ° 0 min 0 W/m² 15,3 °C 21,9 °C 4,8 km/h (1 Bft)
22.08.2023 21:58 25,2 °C 21,9 °C 66 % 67 % 1019,5 hPa 0,0 l/m² 3,1 km/h (1 Bft) N-NW 330 ° 0 min 0 W/m² 15,5 °C 21,9 °C 4,8 km/h (1 Bft)
22.08.2023 21:59 25,3 °C 21,8 °C 66 % 67 % 1019,5 hPa 0,0 l/m² 3,2 km/h (1 Bft) NW 317 ° 0 min 0 W/m² 15,4 °C 21,8 °C 6,4 km/h (2 Bft)
22.08.2023 22:00 25,3 °C 21,8 °C 66 % 67 % 1019,5 hPa 0,0 l/m² 1,9 km/h (1 Bft) NW 311 ° 0 min 0 W/m² 15,4 °C 21,8 °C 4,8 km/h (1 Bft)
22.08.2023 22:02 25,3 °C 21,8 °C 66 % 67 % 1019,5 hPa 0,0 l/m² 0,8 km/h (0 Bft) NW 309 ° 0 min 0 W/m² 15,4 °C 21,8 °C 3,2 km/h (1 Bft)
22.08.2023 22:03 25,3 °C 21,8 °C 66 % 67 % 1019,6 hPa 0,0 l/m² 1,7 km/h (1 Bft) NW 310 ° 0 min 0 W/m² 15,4 °C 21,8 °C 3,2 km/h (1 Bft)
22.08.2023 22:04 25,3 °C 21,8 °C 66 % 67 % 1019,6 hPa 0,0 l/m² 1,1 km/h (1 Bft) NW 310 ° 0 min 0 W/m² 15,4 °C 21,8 °C 1,6 km/h (1 Bft)
22.08.2023 22:05 25,3 °C 21,8 °C 66 % 68 % 1019,5 hPa 0,0 l/m² 0,7 km/h (0 Bft) W-NW 302 ° 0 min 0 W/m² 15,6 °C 21,8 °C 3,2 km/h (1 Bft)
22.08.2023 22:06 25,3 °C 21,7 °C 66 % 68 % 1019,6 hPa 0,0 l/m² 1,4 km/h (1 Bft) W-NW 303 ° 0 min 0 W/m² 15,5 °C 21,7 °C 3,2 km/h (1 Bft)
22.08.2023 22:07 25,2 °C 21,7 °C 66 % 68 % 1019,5 hPa 0,0 l/m² 0,5 km/h (0 Bft) W-NW 303 ° 0 min 0 W/m² 15,5 °C 21,7 °C 3,2 km/h (1 Bft)
22.08.2023 22:08 25,3 °C 21,7 °C 66 % 68 % 1019,6 hPa 0,0 l/m² 0,3 km/h (0 Bft) W-NW 303 ° 0 min 0 W/m² 15,5 °C 21,7 °C 1,6 km/h (1 Bft)
22.08.2023 22:09 25,3 °C 21,7 °C 66 % 68 % 1019,6 hPa 0,0 l/m² 0,4 km/h (0 Bft) W-NW 303 ° 0 min 0 W/m² 15,5 °C 21,7 °C 1,6 km/h (1 Bft)
22.08.2023 22:10 25,3 °C 21,6 °C 66 % 68 % 1019,6 hPa 0,0 l/m² 0,0 km/h (0 Bft) W-NW 303 ° 0 min 0 W/m² 15,4 °C 21,6 °C 0,0 km/h (0 Bft)
22.08.2023 22:12 25,3 °C 21,6 °C 66 % 67 % 1019,5 hPa 0,0 l/m² 0,0 km/h (0 Bft) W-NW 303 ° 0 min 0 W/m² 15,2 °C 21,6 °C 1,6 km/h (1 Bft)
22.08.2023 22:13 25,2 °C 21,6 °C 66 % 68 % 1019,6 hPa 0,0 l/m² 0,0 km/h (0 Bft) W-NW 303 ° 0 min 0 W/m² 15,4 °C 21,6 °C 0,0 km/h (0 Bft)
22.08.2023 22:14 25,2 °C 21,6 °C 66 % 68 % 1019,6 hPa 0,0 l/m² 0,0 km/h (0 Bft) W-NW 303 ° 0 min 0 W/m² 15,4 °C 21,6 °C 0,0 km/h (0 Bft)
22.08.2023 22:15 25,3 °C 21,5 °C 66 % 68 % 1019,6 hPa 0,0 l/m² 0,0 km/h (0 Bft) W-NW 303 ° 0 min 0 W/m² 15,3 °C 21,5 °C 0,0 km/h (0 Bft)
22.08.2023 22:16 25,2 °C 21,4 °C 66 % 69 % 1019,5 hPa 0,0 l/m² 0,0 km/h (0 Bft) W-NW 303 ° 0 min 0 W/m² 15,5 °C 21,4 °C 0,0 km/h (0 Bft)
22.08.2023 22:17 25,3 °C 21,4 °C 66 % 69 % 1019,5 hPa 0,0 l/m² 0,0 km/h (0 Bft) W-NW 303 ° 0 min 0 W/m² 15,5 °C 21,4 °C 0,0 km/h (0 Bft)
22.08.2023 22:18 25,3 °C 21,4 °C 66 % 68 % 1019,5 hPa 0,0 l/m² 0,0 km/h (0 Bft) W-NW 303 ° 0 min 0 W/m² 15,2 °C 21,4 °C 0,0 km/h (0 Bft)
22.08.2023 22:19 25,3 °C 21,4 °C 66 % 68 % 1019,4 hPa 0,0 l/m² 0,0 km/h (0 Bft) W-NW 303 ° 0 min 0 W/m² 15,2 °C 21,4 °C 0,0 km/h (0 Bft)
22.08.2023 22:20 25,2 °C 21,4 °C 66 % 68 % 1019,5 hPa 0,0 l/m² 0,1 km/h (0 Bft) W-NW 303 ° 0 min 0 W/m² 15,2 °C 21,4 °C 1,6 km/h (1 Bft)
22.08.2023 22:22 25,2 °C 21,4 °C 66 % 69 % 1019,5 hPa 0,0 l/m² 1,5 km/h (1 Bft) NW 304 ° 0 min 0 W/m² 15,5 °C 21,4 °C 3,2 km/h (1 Bft)
22.08.2023 22:23 25,2 °C 21,3 °C 66 % 69 % 1019,5 hPa 0,0 l/m² 1,8 km/h (1 Bft) NW 306 ° 0 min 0 W/m² 15,4 °C 21,3 °C 3,2 km/h (1 Bft)
22.08.2023 22:24 25,2 °C 21,3 °C 66 % 69 % 1019,5 hPa 0,0 l/m² 2,8 km/h (1 Bft) W-NW 296 ° 0 min 0 W/m² 15,4 °C 21,3 °C 4,8 km/h (1 Bft)
22.08.2023 22:25 25,2 °C 21,3 °C 66 % 69 % 1019,5 hPa 0,0 l/m² 2,2 km/h (1 Bft) NW 321 ° 0 min 0 W/m² 15,4 °C 21,3 °C 3,2 km/h (1 Bft)
22.08.2023 22:26 25,2 °C 21,3 °C 66 % 70 % 1019,6 hPa 0,0 l/m² 1,5 km/h (1 Bft) NW 321 ° 0 min 0 W/m² 15,6 °C 21,3 °C 3,2 km/h (1 Bft)
22.08.2023 22:27 25,2 °C 21,3 °C 66 % 70 % 1019,6 hPa 0,0 l/m² 1,7 km/h (1 Bft) NW 311 ° 0 min 0 W/m² 15,6 °C 21,3 °C 3,2 km/h (1 Bft)
22.08.2023 22:28 25,2 °C 21,3 °C 66 % 70 % 1019,6 hPa 0,0 l/m² 2,1 km/h (1 Bft) NW 311 ° 0 min 0 W/m² 15,6 °C 21,3 °C 3,2 km/h (1 Bft)
22.08.2023 22:29 25,2 °C 21,3 °C 66 % 71 % 1019,6 hPa 0,0 l/m² 1,3 km/h (1 Bft) W-NW 299 ° 0 min 0 W/m² 15,8 °C 21,3 °C 3,2 km/h (1 Bft)
22.08.2023 22:30 25,2 °C 21,2 °C 66 % 70 % 1019,6 hPa 0,0 l/m² 2,7 km/h (1 Bft) W-NW 294 ° 0 min 0 W/m² 15,5 °C 21,2 °C 4,8 km/h (1 Bft)
22.08.2023 22:31 25,2 °C 21,2 °C 66 % 70 % 1019,6 hPa 0,0 l/m² 2,7 km/h (1 Bft) NW 319 ° 0 min 0 W/m² 15,5 °C 21,2 °C 4,8 km/h (1 Bft)
22.08.2023 22:32 25,2 °C 21,2 °C 66 % 70 % 1019,7 hPa 0,0 l/m² 1,3 km/h (1 Bft) NW 312 ° 0 min 0 W/m² 15,5 °C 21,2 °C 3,2 km/h (1 Bft)
22.08.2023 22:33 25,2 °C 21,2 °C 66 % 70 % 1019,6 hPa 0,0 l/m² 2,1 km/h (1 Bft) NW 321 ° 0 min 0 W/m² 15,5 °C 21,2 °C 4,8 km/h (1 Bft)
22.08.2023 22:34 25,2 °C 21,2 °C 66 % 70 % 1019,6 hPa 0,0 l/m² 1,4 km/h (1 Bft) NW 326 ° 0 min 0 W/m² 15,5 °C 21,2 °C 3,2 km/h (1 Bft)
22.08.2023 22:35 25,2 °C 21,2 °C 66 % 70 % 1019,6 hPa 0,0 l/m² 1,3 km/h (1 Bft) NW 323 ° 0 min 0 W/m² 15,5 °C 21,2 °C 4,8 km/h (1 Bft)
22.08.2023 22:36 25,2 °C 21,2 °C 66 % 69 % 1019,6 hPa 0,0 l/m² 2,3 km/h (1 Bft) N-NW 329 ° 0 min 0 W/m² 15,3 °C 21,2 °C 4,8 km/h (1 Bft)
22.08.2023 22:37 25,2 °C 21,3 °C 66 % 69 % 1019,6 hPa 0,0 l/m² 1,3 km/h (1 Bft) W-NW 302 ° 0 min 0 W/m² 15,4 °C 21,3 °C 3,2 km/h (1 Bft)
22.08.2023 22:38 25,2 °C 21,2 °C 66 % 69 % 1019,6 hPa 0,0 l/m² 1,1 km/h (1 Bft) W-NW 302 ° 0 min 0 W/m² 15,3 °C 21,2 °C 1,6 km/h (1 Bft)
22.08.2023 22:39 25,2 °C 21,2 °C 66 % 70 % 1019,6 hPa 0,0 l/m² 1,0 km/h (0 Bft) W-NW 302 ° 0 min 0 W/m² 15,5 °C 21,2 °C 3,2 km/h (1 Bft)
22.08.2023 22:40 25,2 °C 21,2 °C 66 % 69 % 1019,6 hPa 0,0 l/m² 0,2 km/h (0 Bft) W-NW 302 ° 0 min 0 W/m² 15,3 °C 21,2 °C 1,6 km/h (1 Bft)
22.08.2023 22:42 25,2 °C 21,2 °C 66 % 69 % 1019,6 hPa 0,0 l/m² 0,7 km/h (0 Bft) NW 319 ° 0 min 0 W/m² 15,3 °C 21,2 °C 3,2 km/h (1 Bft)
22.08.2023 22:43 25,2 °C 21,2 °C 66 % 69 % 1019,7 hPa 0,0 l/m² 1,7 km/h (1 Bft) NW 321 ° 0 min 0 W/m² 15,3 °C 21,2 °C 3,2 km/h (1 Bft)
22.08.2023 22:44 25,2 °C 21,2 °C 66 % 70 % 1019,7 hPa 0,0 l/m² 0,8 km/h (0 Bft) NW 304 ° 0 min 0 W/m² 15,5 °C 21,2 °C 3,2 km/h (1 Bft)
22.08.2023 22:45 25,2 °C 21,2 °C 66 % 70 % 1019,6 hPa 0,0 l/m² 2,1 km/h (1 Bft) NW 306 ° 0 min 0 W/m² 15,5 °C 21,2 °C 4,8 km/h (1 Bft)
22.08.2023 22:46 25,2 °C 21,2 °C 66 % 70 % 1019,6 hPa 0,0 l/m² 1,5 km/h (1 Bft) W-NW 290 ° 0 min 0 W/m² 15,5 °C 21,2 °C 3,2 km/h (1 Bft)
22.08.2023 22:47 25,2 °C 21,2 °C 66 % 70 % 1019,6 hPa 0,0 l/m² 1,0 km/h (0 Bft) W-NW 291 ° 0 min 0 W/m² 15,5 °C 21,2 °C 3,2 km/h (1 Bft)
22.08.2023 22:48 25,2 °C 21,2 °C 66 % 70 % 1019,7 hPa 0,0 l/m² 1,4 km/h (1 Bft) W-NW 292 ° 0 min 0 W/m² 15,5 °C 21,2 °C 3,2 km/h (1 Bft)
22.08.2023 22:49 25,2 °C 21,1 °C 66 % 71 % 1019,5 hPa 0,0 l/m² 1,4 km/h (1 Bft) W-NW 303 ° 0 min 0 W/m² 15,6 °C 21,1 °C 3,2 km/h (1 Bft)
22.08.2023 22:50 25,2 °C 21,1 °C 66 % 70 % 1019,7 hPa 0,0 l/m² 1,6 km/h (1 Bft) W-NW 298 ° 0 min 0 W/m² 15,4 °C 21,1 °C 3,2 km/h (1 Bft)
22.08.2023 22:52 25,2 °C 21,1 °C 66 % 71 % 1019,5 hPa 0,0 l/m² 1,2 km/h (1 Bft) W-NW 299 ° 0 min 0 W/m² 15,6 °C 21,1 °C 3,2 km/h (1 Bft)
22.08.2023 22:53 25,2 °C 21,1 °C 66 % 71 % 1019,7 hPa 0,0 l/m² 1,5 km/h (1 Bft) NW 321 ° 0 min 0 W/m² 15,6 °C 21,1 °C 4,8 km/h (1 Bft)
22.08.2023 22:54 25,2 °C 21,1 °C 66 % 71 % 1019,7 hPa 0,0 l/m² 1,7 km/h (1 Bft) NW 317 ° 0 min 0 W/m² 15,6 °C 21,1 °C 3,2 km/h (1 Bft)
22.08.2023 22:55 25,2 °C 21,1 °C 66 % 72 % 1019,6 hPa 0,0 l/m² 1,7 km/h (1 Bft) W-NW 293 ° 0 min 0 W/m² 15,8 °C 21,1 °C 3,2 km/h (1 Bft)
22.08.2023 22:56 25,1 °C 21,0 °C 66 % 71 % 1019,6 hPa 0,0 l/m² 1,9 km/h (1 Bft) W-NW 294 ° 0 min 0 W/m² 15,5 °C 21,0 °C 3,2 km/h (1 Bft)
22.08.2023 22:57 25,1 °C 21,0 °C 66 % 71 % 1019,6 hPa 0,0 l/m² 1,3 km/h (1 Bft) W-NW 294 ° 0 min 0 W/m² 15,5 °C 21,0 °C 3,2 km/h (1 Bft)
22.08.2023 22:58 25,1 °C 21,0 °C 66 % 72 % 1019,6 hPa 0,0 l/m² 1,9 km/h (1 Bft) W-NW 298 ° 0 min 0 W/m² 15,8 °C 21,0 °C 3,2 km/h (1 Bft)
22.08.2023 22:59 25,1 °C 21,1 °C 66 % 71 % 1019,7 hPa 0,0 l/m² 1,9 km/h (1 Bft) NW 304 ° 0 min 0 W/m² 15,6 °C 21,1 °C 3,2 km/h (1 Bft)
22.08.2023 23:00 25,1 °C 21,1 °C 66 % 71 % 1019,6 hPa 0,0 l/m² 2,1 km/h (1 Bft) W-NW 303 ° 0 min 0 W/m² 15,6 °C 21,1 °C 3,2 km/h (1 Bft)
22.08.2023 23:02 25,1 °C 21,1 °C 66 % 74 % 1019,6 hPa 0,0 l/m² 1,2 km/h (1 Bft) W-NW 302 ° 0 min 0 W/m² 16,3 °C 21,1 °C 3,2 km/h (1 Bft)
22.08.2023 23:03 25,1 °C 21,0 °C 66 % 73 % 1019,6 hPa 0,0 l/m² 1,1 km/h (1 Bft) W-NW 284 ° 0 min 0 W/m² 16,0 °C 21,0 °C 3,2 km/h (1 Bft)
22.08.2023 23:04 25,1 °C 20,9 °C 66 % 73 % 1019,6 hPa 0,0 l/m² 1,9 km/h (1 Bft) NW 306 ° 0 min 0 W/m² 15,9 °C 20,9 °C 4,8 km/h (1 Bft)
22.08.2023 23:05 25,1 °C 20,9 °C 66 % 72 % 1019,5 hPa 0,0 l/m² 1,7 km/h (1 Bft) NW 304 ° 0 min 0 W/m² 15,7 °C 20,9 °C 4,8 km/h (1 Bft)
22.08.2023 23:06 25,1 °C 20,9 °C 66 % 72 % 1019,6 hPa 0,0 l/m² 0,0 km/h (0 Bft) W-NW 303 ° 0 min 0 W/m² 15,7 °C 20,9 °C 0,0 km/h (0 Bft)
22.08.2023 23:07 25,1 °C 20,9 °C 66 % 72 % 1019,6 hPa 0,0 l/m² 0,3 km/h (0 Bft) W-NW 298 ° 0 min 0 W/m² 15,7 °C 20,9 °C 1,6 km/h (1 Bft)
22.08.2023 23:08 25,1 °C 20,9 °C 66 % 73 % 1019,6 hPa 0,0 l/m² 0,1 km/h (0 Bft) W-NW 298 ° 0 min 0 W/m² 15,9 °C 20,9 °C 1,6 km/h (1 Bft)
22.08.2023 23:09 25,1 °C 20,9 °C 66 % 74 % 1019,6 hPa 0,0 l/m² 0,0 km/h (0 Bft) W-NW 298 ° 0 min 0 W/m² 16,1 °C 20,9 °C 0,0 km/h (0 Bft)
22.08.2023 23:10 25,1 °C 20,9 °C 66 % 75 % 1019,6 hPa 0,0 l/m² 0,0 km/h (0 Bft) W-NW 298 ° 0 min 0 W/m² 16,3 °C 20,9 °C 0,0 km/h (0 Bft)
22.08.2023 23:12 25,1 °C 20,8 °C 66 % 76 % 1019,6 hPa 0,0 l/m² 0,0 km/h (0 Bft) W-NW 298 ° 0 min 0 W/m² 16,4 °C 20,8 °C 1,6 km/h (1 Bft)
22.08.2023 23:13 25,1 °C 20,8 °C 66 % 77 % 1019,6 hPa 0,0 l/m² 0,0 km/h (0 Bft) W-NW 298 ° 0 min 0 W/m² 16,6 °C 20,8 °C 0,0 km/h (0 Bft)
22.08.2023 23:14 25,1 °C 20,7 °C 66 % 77 % 1019,6 hPa 0,0 l/m² 0,0 km/h (0 Bft) W-NW 298 ° 0 min 0 W/m² 16,5 °C 20,7 °C 0,0 km/h (0 Bft)
22.08.2023 23:15 25,1 °C 20,7 °C 66 % 77 % 1019,5 hPa 0,0 l/m² 0,0 km/h (0 Bft) W-NW 298 ° 0 min 0 W/m² 16,5 °C 20,7 °C 0,0 km/h (0 Bft)
22.08.2023 23:16 25,1 °C 20,7 °C 66 % 77 % 1019,5 hPa 0,0 l/m² 0,0 km/h (0 Bft) N 0 ° 0 min 0 W/m² 16,5 °C 20,7 °C 0,0 km/h (0 Bft)
22.08.2023 23:22 25,1 °C 20,5 °C 66 % 78 % 1019,6 hPa 0,0 l/m² 0,0 km/h (0 Bft) W-NW 298 ° 0 min 0 W/m² 16,5 °C 20,5 °C 0,0 km/h (0 Bft)
22.08.2023 23:24 25,1 °C 20,5 °C 66 % 78 % 1019,5 hPa 0,0 l/m² 0,0 km/h (0 Bft) W-NW 298 ° 0 min 0 W/m² 16,5 °C 20,5 °C 0,0 km/h (0 Bft)
22.08.2023 23:25 25,1 °C 20,4 °C 66 % 78 % 1019,5 hPa 0,0 l/m² 0,0 km/h (0 Bft) W-NW 298 ° 0 min 0 W/m² 16,4 °C 20,4 °C 0,0 km/h (0 Bft)
22.08.2023 23:26 25,1 °C 20,4 °C 66 % 78 % 1019,6 hPa 0,0 l/m² 0,0 km/h (0 Bft) W-NW 298 ° 0 min 0 W/m² 16,4 °C 20,4 °C 0,0 km/h (0 Bft)
22.08.2023 23:28 25,1 °C 20,4 °C 66 % 78 % 1019,7 hPa 0,0 l/m² 0,0 km/h (0 Bft) W-NW 298 ° 0 min 0 W/m² 16,4 °C 20,4 °C 0,0 km/h (0 Bft)
22.08.2023 23:30 25,1 °C 20,4 °C 65 % 78 % 1019,6 hPa 0,0 l/m² 0,6 km/h (0 Bft) W-NW 298 ° 0 min 0 W/m² 16,4 °C 20,4 °C 1,6 km/h (1 Bft)
22.08.2023 23:31 25,1 °C 20,4 °C 66 % 78 % 1019,6 hPa 0,0 l/m² 1,7 km/h (1 Bft) W-NW 298 ° 0 min 0 W/m² 16,4 °C 20,4 °C 3,2 km/h (1 Bft)
22.08.2023 23:32 25,1 °C 20,4 °C 66 % 78 % 1019,6 hPa 0,0 l/m² 1,5 km/h (1 Bft) W-NW 298 ° 0 min 0 W/m² 16,4 °C 20,4 °C 1,6 km/h (1 Bft)
22.08.2023 23:34 25,1 °C 20,4 °C 65 % 78 % 1019,6 hPa 0,0 l/m² 0,9 km/h (0 Bft) W-NW 298 ° 0 min 0 W/m² 16,4 °C 20,4 °C 3,2 km/h (1 Bft)
22.08.2023 23:35 25,1 °C 20,4 °C 65 % 79 % 1019,6 hPa 0,0 l/m² 0,9 km/h (0 Bft) W-NW 298 ° 0 min 0 W/m² 16,6 °C 20,4 °C 3,2 km/h (1 Bft)
22.08.2023 23:37 25,1 °C 20,4 °C 65 % 79 % 1019,6 hPa 0,0 l/m² 0,2 km/h (0 Bft) W-NW 298 ° 0 min 0 W/m² 16,6 °C 20,4 °C 1,6 km/h (1 Bft)
22.08.2023 23:39 25,1 °C 20,3 °C 65 % 79 % 1019,5 hPa 0,0 l/m² 0,0 km/h (0 Bft) W-NW 298 ° 0 min 0 W/m² 16,5 °C 20,3 °C 0,0 km/h (0 Bft)
22.08.2023 23:40 25,1 °C 20,3 °C 65 % 79 % 1019,6 hPa 0,0 l/m² 0,0 km/h (0 Bft) W-NW 298 ° 0 min 0 W/m² 16,5 °C 20,3 °C 0,0 km/h (0 Bft)
22.08.2023 23:41 25,1 °C 20,3 °C 65 % 79 % 1019,5 hPa 0,0 l/m² 0,0 km/h (0 Bft) W-NW 298 ° 0 min 0 W/m² 16,5 °C 20,3 °C 0,0 km/h (0 Bft)
22.08.2023 23:42 25,1 °C 20,2 °C 65 % 79 % 1019,5 hPa 0,0 l/m² 0,0 km/h (0 Bft) W-NW 298 ° 0 min 0 W/m² 16,4 °C 20,2 °C 0,0 km/h (0 Bft)
22.08.2023 23:44 25,1 °C 20,2 °C 65 % 78 % 1019,5 hPa 0,0 l/m² 0,0 km/h (0 Bft) W-NW 298 ° 0 min 0 W/m² 16,2 °C 20,2 °C 0,0 km/h (0 Bft)
22.08.2023 23:45 25,1 °C 20,2 °C 65 % 78 % 1019,5 hPa 0,0 l/m² 0,0 km/h (0 Bft) W-NW 298 ° 0 min 0 W/m² 16,2 °C 20,2 °C 0,0 km/h (0 Bft)
22.08.2023 23:47 25,1 °C 20,2 °C 65 % 78 % 1019,5 hPa 0,0 l/m² 1,2 km/h (1 Bft) W-NW 298 ° 0 min 0 W/m² 16,2 °C 20,2 °C 3,2 km/h (1 Bft)
22.08.2023 23:49 25,1 °C 20,2 °C 65 % 78 % 1019,5 hPa 0,0 l/m² 2,0 km/h (1 Bft) W-NW 298 ° 0 min 0 W/m² 16,2 °C 20,2 °C 3,2 km/h (1 Bft)
22.08.2023 23:50 25,0 °C 20,2 °C 65 % 78 % 1019,5 hPa 0,0 l/m² 2,1 km/h (1 Bft) W-NW 298 ° 0 min 0 W/m² 16,2 °C 20,2 °C 3,2 km/h (1 Bft)
22.08.2023 23:51 25,1 °C 20,2 °C 65 % 78 % 1019,5 hPa 0,0 l/m² 1,8 km/h (1 Bft) W-NW 298 ° 0 min 0 W/m² 16,2 °C 20,2 °C 3,2 km/h (1 Bft)
22.08.2023 23:52 25,1 °C 20,2 °C 65 % 78 % 1019,5 hPa 0,0 l/m² 1,1 km/h (1 Bft) W-NW 298 ° 0 min 0 W/m² 16,2 °C 20,2 °C 1,6 km/h (1 Bft)
22.08.2023 23:54 25,1 °C 20,2 °C 65 % 79 % 1019,6 hPa 0,0 l/m² 0,2 km/h (0 Bft) W-NW 298 ° 0 min 0 W/m² 16,4 °C 20,2 °C 1,6 km/h (1 Bft)
22.08.2023 23:56 25,1 °C 20,2 °C 65 % 80 % 1019,6 hPa 0,0 l/m² 2,5 km/h (1 Bft) W-NW 298 ° 0 min 0 W/m² 16,6 °C 20,2 °C 3,2 km/h (1 Bft)
22.08.2023 23:58 25,0 °C 20,1 °C 65 % 80 % 1019,6 hPa 0,0 l/m² 2,8 km/h (1 Bft) W-SW 255 ° 0 min 0 W/m² 16,5 °C 20,1 °C 4,8 km/h (1 Bft)
22.08.2023 23:59 25,0 °C 20,1 °C 65 % 81 % 1019,6 hPa 0,0 l/m² 3,7 km/h (1 Bft) W-SW 255 ° 0 min 0 W/m² 16,7 °C 20,1 °C 4,8 km/h (1 Bft)
_ Min-Zeit 08:04 06:25 07:21 15:04 15:25 - 23:45 - - - - 06:16 06:25 23:45
Minimum _ 24,5 °C 16,9 °C 59 % 55 % 1018,2 hPa - 0,0 km/h (0 Bft) - - - - 14,8 °C 16,9 °C 0,0 km/h (0 Bft)
_ Max-Zeit 22:19 14:59 23:32 03:17 00:00 23:59 19:06 - - 19:22 12:59 12:49 14:54 19:06
Maximum _ 25,3 °C 28,1 °C 66 % 91 % 1021,3 hPa 0,0 l/m² 14,5 km/h
NW (3 Bft)
- - 1 min 1013 W/m² 20,6 °C 28,1 °C 22,5 km/h
N-NW (4 Bft)
Durchschnitt _ 24,9 °C 22,6 °C 64 % 72 % 1019,1 hPa #0,0 l/m² 3,3 km/h (1 Bft) W-NW - #12:07 h 210 W/m² 17,0 °C 22,5 °C 6,1 km/h (2 Bft)
© 2009 Mathias Hoßbach